[[{"header":{"parameterUnit":"m.s-1","parameterCategory":1,"la1":30.6,"la2":29.2853,"lo1":-89.7004,"lo2":-87.6739,"dy":0.0162,"dx":0.0183,"nx":112,"ny":82,"refTime":"2024-09-08T00:00:00:Z","depth":0,"parameterNumber":2,"parameterNumberName":"U-component_of_WINDS"},"data":[0.0,0.0,0.0,0.0,0.0,0.0,0.0,0.0,0.0,0.0,0.0,0.0,0.0,0.0,0.0,0.0,0.0,0.0,0.0,0.0,0.0,0.0,0.0,0.0,0.0,0.0,0.0,0.0,0.0,0.0,0.0,0.0,0.0,0.0,0.0,0.0,0.0,0.0,0.0,0.0,0.0,0.0,0.0,0.0,0.0,0.0,0.0,0.0,0.0,0.0,0.0,0.0,0.0,0.0,0.0,0.0,0.0,0.0,0.0,0.0,0.0,0.0,0.0,0.0,0.0,0.0,0.0,0.0,0.0,0.0,0.0,0.0,0.0,0.0,0.0,0.0,0.0,0.0,0.0,0.0,0.0,0.0,0.0,0.0,0.0,0.0,0.0,0.0,0.0,0.0,0.0,0.0,0.0,0.0,0.0,0.0,0.0076,0.0327,0.0,0.0,0.0,0.0,0.0,0.0,0.0,0.0,0.0,0.0,0.0,0.0,0.0,0.0,0.0,0.0,0.0,0.0,0.0,0.0,0.0,0.0,0.0,0.0,0.0,0.0,0.0,0.0,0.0,0.0,0.0,0.0,0.0,0.0,0.0,0.0,0.0,0.0,0.0,0.0,0.0,0.0,0.0,0.0,0.0,0.0,0.0,0.0,0.0,0.0,0.0,0.0,0.0,0.0,0.0,0.0,0.0,0.0,0.0,0.0,0.0,0.0,0.0,0.0,0.0,0.0,0.0,0.0,0.0,0.0,0.0,0.0,0.0,0.0,0.0,0.0,0.0,0.0,0.0,0.0,0.0,0.0,0.0,0.0,0.0,0.0,0.0,0.0,0.0,0.0,0.0,0.0,0.0,0.0,0.0,0.0,0.0,0.0,0.0,0.0,0.0,0.0,0.0,0.0,0.0,0.0,0.0,0.0,0.0,0.0,0.0,0.0066,0.0,0.0,0.0,0.0,0.0,0.0,0.0,0.0,0.0,0.0,0.0,0.0,0.0,0.0,0.0,0.0,0.0,0.0,0.0,0.0,0.0,0.0,0.0,0.0,0.0,0.0,0.0,0.0,0.0,0.0,0.0,0.0,0.0,0.0,0.0,0.0,0.0,0.0,0.0,0.0,0.0,0.0,0.0,0.0,0.0,0.0,0.0,0.0,0.0,0.0,0.0,0.0,0.0,0.0,0.0,0.0,0.0,0.0,0.0,0.0,0.0,0.0,0.0,0.0,0.0,0.0,0.0,0.0,0.0,0.0,0.0,0.0,0.0,0.0,0.0,0.0,0.0,0.0,0.0,0.0,0.0,0.0,0.0,0.0,0.0,0.0,0.0,0.0,0.0,0.0,0.0,0.0,0.0,0.0,0.0,0.0,0.0,0.0,0.0,0.0,0.0,0.0,0.0,0.0,0.0,0.0,0.0,0.0,0.0,0.0,0.0,0.0,0.0123,0.0,0.0,0.0,0.0,0.0,0.0,0.0,0.0,0.0,0.0,0.0,0.0,0.0,0.0,0.0,0.0,0.0,0.0,0.0,0.0,0.0,0.0,0.0,0.0,0.0,0.0,0.0,0.0,0.0,0.0,0.0,0.0,0.0,0.0,0.0,0.0,0.0,0.0,0.0,0.0,0.0,0.0,0.0,0.0,0.0,0.0,0.0,0.0,0.0,0.0,0.0,0.0,0.0,0.0,0.0,0.0,0.0,0.0,0.0,0.0,0.0,0.0,0.0,0.0,0.0,0.0,0.0,0.0,0.0,0.0,0.0,0.0,0.0,0.0,0.0,0.0,0.0,0.0,0.0,0.0,0.0,0.0,0.0,0.0,0.0,0.0,0.0,0.0,0.0,0.0,0.0,0.0,0.0,0.0,0.0,0.0,0.0,0.0,0.0,0.0,0.0,0.0,-0.0275,-0.0361,0.0,0.0,0.0,0.0,0.0,0.0,0.0,0.0,0.0,0.0,0.0,0.0,0.0,0.0,0.0,0.0,0.0,0.0,0.0,0.0,0.0,0.0,0.0,0.0,0.0,0.0,0.0,0.0,0.0,0.0,0.0,0.0,0.0,0.0,0.0,0.0,0.0,0.0,0.0,0.0,0.0,0.0,0.0,0.0,0.0,0.0,0.0,0.0,0.0,0.0,0.0,0.0,0.0,0.0,0.0,0.0,0.0,0.0,0.0,0.0,0.0,0.0,0.0,0.0,0.0,0.0,0.0,0.0,0.0,0.0,0.0,0.0,0.0,0.0,0.0,0.0,0.0,0.0,0.0,0.0,0.0,0.0,0.0,0.0,0.0,0.0,0.0,0.0,0.0,0.0,0.0,0.0,0.0,0.0,0.0,0.0,0.0,0.0,0.0,0.0,0.0,0.0,0.0,0.0,0.0,0.0,0.0,0.0,0.0,0.0,-0.1109,-0.1481,-0.0156,0.0,0.0,0.0,0.0,0.0,0.0,0.0,0.0,0.0,0.0,0.0,0.0,0.0,0.0,0.0,0.0,0.0,0.0,0.0,0.0,0.0,0.0,0.0,0.0,0.0,0.0,0.0,0.0,0.0,0.0,0.0,0.0,0.0,0.0,0.0,0.0,0.0,0.0,0.0,0.0,0.0,0.0,0.0,0.0,0.0,0.0,0.0,0.0,0.0,0.0,0.0,0.0,0.0,0.0,0.0,0.0,0.0,0.0,0.0,0.0,0.0,0.0,0.0,0.0,0.0,0.0,0.0,0.0,0.0,0.0,0.0,0.0,0.0,0.0,0.0,0.0,0.0,0.0,0.0,0.0,0.0,0.0,0.0,0.0,0.0,0.0,0.0,0.0,0.0,0.0,0.0,0.0,0.0,0.0,0.0,0.0,0.0,0.0,0.0,0.0,0.0,0.0,0.0,0.0,0.0,0.0,0.0,0.0,0.0,-0.1981,-0.2041,0.0,-0.0628,0.0,0.0,0.0,0.0,0.0,0.0,0.0,0.0,0.0,0.0,0.0,0.0,0.0,0.0,0.0,0.0,0.0,0.0,0.0,0.0,0.0,0.0,0.0,0.0,0.0,0.0,0.0,0.0,0.0,0.0,0.0,0.0,0.0,0.0,0.0,0.0,0.0,0.0,0.0,0.0,0.0,0.0,0.0,0.0,0.0,0.0,0.0,0.0,0.0,0.0,0.0,0.0,0.0,0.0,0.0,0.0,0.0,0.0,0.0,0.0,0.0,0.0,0.0,0.0,0.0,0.0,0.0,0.0,0.0,0.0,0.0,0.0,0.0,0.0,0.0,0.0,0.0,0.0,0.0,0.0,0.0,0.0,0.0,0.0,0.0,0.0,0.0,0.0,0.0,0.0,0.0,0.0,0.0,0.0,0.0,0.0,0.0,0.0,0.0,0.0,0.0,0.0,0.0,0.0,0.0,0.0,0.0,-0.3038,-0.301,-0.2851,0.0,-0.102,0.0,0.0,0.0,0.0,0.0,0.0,0.0,0.0,0.0,0.0,0.0,0.0,0.0,0.0,0.0,0.0,0.0,0.0,0.0,0.0,0.0,0.0,0.0,0.0,0.0,0.0,0.0,0.0,0.0,0.0,0.0,0.0,0.0,0.0,0.0,0.0,0.0,0.0,0.0,0.0,0.0,0.0,0.0,0.0,0.0,0.0,0.0,0.0,0.0,0.0,0.0,0.0,0.0,0.0,0.0,0.0,0.0,0.0,0.0,0.0,0.0,0.0,0.0,0.0,0.0,0.0,0.0,0.0,0.0,0.0,0.0,0.0,0.0,0.0,0.0,0.0,0.0,0.0,0.0,0.0,0.0,0.0,0.0,0.0,0.0,0.0,0.0,0.0,0.0,0.0,0.0,0.0,0.0,0.0,0.0,0.0,0.0,0.0,0.0,0.0,0.0,0.0,0.0,0.0,0.0,0.0,0.0,-0.4256,-0.4348,-0.3988,-0.2732,-0.102,0.0,0.0,0.0,0.0,0.0,0.0,0.0,0.0,0.0,0.0,0.0,0.0,0.0,0.0,0.0,0.0,0.0,0.0,0.0,0.0,0.0,0.0,0.0,0.0,0.0,0.0,0.0,0.0,0.0,0.0,0.0,0.0,0.0,0.0,0.0,0.0,0.0,0.0,0.0,0.0,0.0,0.0,0.0,0.0,0.0,0.0,0.0,0.0,0.0,0.0,0.0,0.0,0.0,0.0,0.0,0.0,0.0,0.0,0.0,0.0,0.0,0.0,0.0,0.0,0.0,0.0,0.0,0.0,0.0,0.0,0.0,0.0,0.0,0.0,0.0,0.0,0.0,0.0,0.0,0.0,0.0,0.0,0.0,0.0,0.0,0.0,0.0,0.0,0.0,0.0,0.0,0.0,0.0,0.0,0.0,0.0,0.0,0.0,0.0,0.0,0.0,0.0,0.0,0.0,0.0,0.0,0.0,-0.4829,-0.5719,-0.6297,-0.6088,-0.3447,-0.1788,-0.1752,-0.0658,0.0,0.0,0.0,0.0,0.0,0.0,0.0,0.0,0.0,0.0,0.0,0.0,0.0,0.0,0.0,0.0,0.0,0.0,0.0,0.0,0.0,0.0,0.0,0.0,0.0,0.0,0.0,0.0,0.0,0.0,0.0,0.0,0.0,0.0,0.0,0.0,0.0,0.0,0.0,0.0,0.0,0.0,0.0,0.0,0.0,0.0,0.0,0.0,0.0,0.0,0.0,0.0,0.0,0.0,0.0,0.0,0.0,0.0,0.0,0.0,0.0,0.0,0.0,0.0,0.0,0.0,0.0,0.0,0.0,0.0,0.0,0.0,0.0,0.0,0.0,0.0,0.0,0.0,0.0,0.0,0.0,0.0,0.0,0.0,0.0,0.0,0.0,0.0,0.0,0.0,0.0,0.0,0.0,0.0,0.0,0.0,0.0,0.0,0.0,0.0,0.0,0.0,0.0,0.0,-0.6294,-0.6798,-0.7313,-0.7497,-0.5089,-0.3498,-0.3507,-0.252,-0.1802,-0.1708,0.0,0.0,0.0,0.0,0.0,0.0,0.0,0.0,0.0,0.0,0.0,0.0,0.0,0.0,0.0,0.0,0.0,0.0,0.0,0.0,0.0,0.0,0.0,0.0,0.0,0.0,0.0,0.0,0.0,0.0,0.0,0.0,0.0,0.0,0.0,0.0,0.0,0.0,0.0,0.0,0.0,0.0,0.0,0.0,0.0,0.0,0.0,0.0,0.0,0.0,0.0,0.0,0.0,0.0,0.0,0.0,0.0,0.0,0.0,0.0,0.0,0.0,0.0,0.0,0.0,0.0,0.0,0.0,0.0,0.0,0.0,0.0,0.0,0.0,0.0,0.0,0.0,0.0,0.0,0.0,0.0,0.0,0.0,0.0,0.0,0.0,0.0,0.0,0.0,0.0,0.0,0.0,0.0,0.0,0.0,0.0,0.0,0.0,0.0,0.0,0.0,0.0,-0.7981,-0.7738,-0.7553,-0.7743,-0.6268,-0.5223,-0.5237,-0.4914,-0.4628,-0.4325,0.0,0.0,0.0,0.0,0.0,0.0,0.0,0.0,0.0,0.0,0.0,0.0,0.0,0.0,0.0,0.0,0.0,0.0,0.0,0.0,0.0,0.0,0.0,0.0,0.0,0.0,0.0,0.0,0.0,0.0,0.0,0.0,0.0,0.0,0.0,0.0,0.0,0.0,0.0,0.0,0.0,0.0,0.0,0.0,0.0,0.0,0.0,0.0,0.0,0.0,0.0,0.0,0.0,0.0,0.0,0.0,0.0,0.0,0.0,0.0,-0.8133,-0.7638,0.0,0.0,0.0,0.0,0.0,0.0,0.0,0.0,0.0,0.0,0.0,0.0,0.0,0.0,0.0,0.0,0.0,0.0,0.0,0.0,0.0,0.0,0.0,0.0,0.0,0.0,0.0,0.0,0.0,0.0,0.0,0.0,0.0,0.0,0.0,0.0,0.0,0.0,0.0,0.0,-0.7285,-0.8395,-0.9351,-0.9583,-0.8028,-0.6933,-0.7003,-0.5625,-0.4707,-0.4648,-0.3996,0.0,0.0,0.0,0.0,0.0,0.0,0.0,0.0,0.0,0.0,0.0,0.0,0.0,0.0,0.0,0.0,0.0,0.0,0.0,0.0,0.0,0.0,0.0,0.0,0.0,0.0,0.0,0.0,0.0,0.0,0.0,0.0,0.0,0.0,0.0,0.0,0.0,0.0,0.0,0.0,0.0,0.0,0.0,0.0,0.0,0.0,0.0,0.0,0.0,0.0,0.0,0.0,0.0,0.0,0.0,0.0,0.0,0.0,0.0,-0.9128,-0.878,0.0,0.0,0.0,0.0,0.0,0.0,0.0,0.0,0.0,0.0,0.0,0.0,0.0,0.0,0.0,0.0,0.0,0.0,0.0,0.0,0.0,0.0,0.0,0.0,0.0,0.0,0.0,0.0,0.0,0.0,0.0,0.0,0.0,0.0,0.0,0.0,0.0,0.0,0.0,0.0,-0.7836,-0.8988,-0.9932,-1.0177,-0.9301,-0.8667,-0.8688,-0.7733,-0.7075,-0.68,-0.6014,0.0,0.0,0.0,0.0,0.0,0.0,0.0,0.0,0.0,0.0,0.0,0.0,0.0,0.0,0.0,0.0,0.0,0.0,0.0,0.0,0.0,0.0,0.0,0.0,0.0,0.0,0.0,0.0,0.0,0.0,0.0,0.0,0.0,0.0,0.0,0.0,0.0,0.0,0.0,0.0,0.0,0.0,0.0,0.0,0.0,0.0,0.0,0.0,0.0,0.0,0.0,0.0,0.0,-0.9997,-1.0308,-1.0542,-1.0564,-1.0687,-1.0853,-1.0319,-1.0147,-1.0139,-0.9302,0.0,0.0,0.0,0.0,0.0,0.0,0.0,0.0,0.0,0.0,0.0,0.0,0.0,0.0,0.0,0.0,0.0,0.0,0.0,0.0,0.0,0.0,-0.906,-0.9618,-0.9719,-0.9334,-0.81,0.0,0.0,0.0,0.0,0.0,0.0,0.0,0.0,0.0,0.0,0.0,-0.8769,-0.9454,-0.9965,-1.021,-1.0106,-1.0019,-1.0019,-0.9824,-0.9563,-0.9247,-0.804,-0.7158,0.0,0.0,0.0,0.0,0.0,0.0,0.0,0.0,0.0,0.0,0.0,0.0,0.0,0.0,0.0,0.0,0.0,0.0,0.0,0.0,0.0,0.0,0.0,0.0,0.0,0.0,0.0,0.0,0.0,0.0,0.0,0.0,-0.741,-0.7568,0.0,0.0,0.0,0.0,0.0,0.0,0.0,0.0,0.0,0.0,0.0,0.0,0.0,-0.993,-1.0419,-1.1209,-1.1541,-1.1505,-1.2583,-1.2951,-1.2668,-1.2776,-1.2759,-1.2777,-1.2674,0.0,-1.0177,-0.9835,0.0,0.0,0.0,0.0,0.0,0.0,0.0,0.0,0.0,0.0,0.0,0.0,0.0,0.0,0.0,0.0,0.0,0.0,0.0,0.0,0.0,0.0,-0.9998,-1.0108,-1.0311,-1.0307,-0.9911,-0.8948,-0.8062,-0.7703,-0.7258,-0.6796,0.0,0.0,0.0,0.0,0.0,0.0,-0.9128,-0.9682,-1.009,-1.0335,-1.0155,-1.0019,-1.0019,-0.9894,-0.9753,-0.9606,-0.9104,-0.8692,-0.8462,-0.7937,0.0,0.0,0.0,0.0,0.0,0.0,0.0,0.0,0.0,0.0,0.0,0.0,0.0,0.0,0.0,0.0,0.0,0.0,0.0,0.0,0.0,0.0,0.0,0.0,0.0,0.0,0.0,0.0,0.0,-0.7682,-0.852,-0.9206,-0.8931,-0.9339,0.0,0.0,0.0,0.0,0.0,0.0,0.0,0.0,0.0,-1.0287,-1.065,-1.0983,-1.1374,-1.1869,-1.2201,-1.2209,-1.29,-1.3138,-1.2973,-1.3107,-1.3126,-1.3046,-1.2991,-1.2439,-1.1505,-1.1091,-1.062,-1.0134,0.0,0.0,0.0,0.0,-0.9665,-0.9596,-1.0099,-1.0234,-1.0123,-0.9818,0.0,0.0,0.0,0.0,0.0,0.0,0.0,-0.9137,-0.9482,-1.0188,-1.0941,-1.1399,-1.1728,-1.1845,-1.1587,-1.0695,-0.968,-0.8607,-0.8274,-0.7905,-0.6997,-0.697,0.0,0.0,0.0,-0.8889,-0.9525,-0.9905,-1.0188,-1.0367,-1.0166,-1.0019,-1.0019,-0.997,-0.9889,-0.9769,-0.9617,-0.9421,-0.9182,-0.8725,-0.8231,0.0,0.0,0.0,0.0,0.0,0.0,0.0,0.0,0.0,0.0,0.0,0.0,0.0,0.0,0.0,0.0,0.0,0.0,0.0,0.0,0.0,0.0,0.0,0.0,0.0,0.0,0.0,0.0,-0.9343,-1.0195,-1.1476,-1.0671,-1.0831,0.0,0.0,0.0,0.0,0.0,0.0,-1.1517,-1.1353,-1.1334,-1.1566,-1.1789,-1.1978,-1.2225,-1.2471,-1.2712,-1.2866,-1.3117,-1.3318,-1.3413,-1.3515,-1.3598,-1.3584,-1.3496,-1.3267,-1.3006,-1.2291,-1.169,-1.1297,-1.0866,-1.0638,-1.0595,-1.1076,-1.1114,-1.0995,-1.174,-1.1936,-1.1789,-1.1383,-1.1237,-1.0915,-0.9886,0.0,0.0,0.0,0.0,-1.0262,-1.0732,-1.1193,-1.1689,-1.2423,-1.2674,-1.2765,-1.2564,-1.2083,-1.1143,-0.9501,-0.9281,-0.9076,-0.8072,-0.8211,0.0,-0.8294,-0.8911,-0.9505,-0.9873,-1.0117,-1.0297,-1.0416,-1.021,-1.0068,-1.0068,-1.0041,-0.9981,-0.9889,-0.9883,-0.978,-0.9541,-0.9247,-0.8861,-0.8383,0.0,0.0,0.0,0.0,0.0,0.0,0.0,0.0,0.0,0.0,0.0,0.0,0.0,0.0,0.0,0.0,0.0,0.0,0.0,0.0,0.0,0.0,0.0,0.0,0.0,0.0,0.0,0.0,0.0,-1.4354,-1.2287,0.0,0.0,0.0,0.0,-1.4692,-1.4074,-1.3635,-1.3808,-1.3331,-1.2862,-1.2557,-1.3028,-1.3347,-1.3509,-1.3658,-1.3813,-1.4061,-1.4136,-1.4469,-1.4903,-1.4918,-1.5183,-1.5528,-1.5087,-1.4819,-1.4562,-1.2964,-1.2081,-1.1806,-1.1659,-1.1598,-1.1678,-1.1703,-1.1783,-1.1899,-1.2084,-1.2139,-1.2195,-1.2539,-1.2306,-1.1832,-1.1195,-1.1071,0.0,0.0,-1.133,-1.1543,-1.1832,-1.2023,-1.2244,-1.2564,-1.2674,-1.268,-1.2661,-1.2545,-1.1981,-1.0412,-1.0173,-1.0139,-0.9893,0.0,-1.0217,-0.9918,-1.012,-1.023,-1.0218,-1.0297,-1.0422,-1.0618,-1.0335,-1.0193,-1.0193,-1.009,-1.0019,-1.0014,-1.0008,-0.9905,-0.9671,-0.953,-0.9237,-0.8753,-0.8133,0.0,0.0,0.0,0.0,0.0,0.0,0.0,0.0,0.0,0.0,0.0,0.0,0.0,0.0,0.0,0.0,0.0,0.0,0.0,0.0,0.0,0.0,0.0,0.0,0.0,0.0,0.0,0.0,-1.3707,-1.2745,0.0,-1.5048,-1.3762,-1.3447,-1.5065,-1.4632,-1.4295,-1.4346,-1.4521,-1.4498,-1.4507,-1.465,-1.4843,-1.4923,-1.4981,-1.5031,-1.5096,-1.5154,-1.5264,-1.544,-1.544,-1.5528,-1.5704,-1.5528,-1.5177,-1.4764,-1.4132,-1.3566,-1.2951,-1.289,-1.2749,-1.2844,-1.2943,-1.3008,-1.2984,-1.3212,-1.3258,-1.3271,-1.3252,-1.3087,-1.2719,-1.2536,-1.2496,-1.2536,-1.2536,-1.2505,-1.251,-1.2605,-1.2803,-1.3013,-1.3159,-1.3442,-1.3663,-1.3216,-1.3066,-1.2711,-1.1623,-1.1213,-1.0956,-1.0596,-1.0761,-1.0835,-1.0656,-1.095,-1.1075,-1.0884,-1.0871,-1.0835,-1.0634,-1.0416,-1.0291,-1.021,-1.1017,-1.1407,-1.1157,-1.2033,-1.2402,-1.2191,-1.2036,-1.1875,-1.1617,-1.107,-1.0309,0.0,0.0,0.0,0.0,0.0,0.0,0.0,0.0,0.0,0.0,0.0,0.0,0.0,0.0,0.0,0.0,0.0,0.0,0.0,0.0,0.0,0.0,0.0,0.0,0.0,-1.3044,-1.3202,-1.456,-1.3721,-1.3764,-1.5546,-1.4426,-1.3952,-1.4953,-1.4942,-1.49,-1.4865,-1.5216,-1.5463,-1.5533,-1.554,-1.5593,-1.5704,-1.5704,-1.5704,-1.5704,-1.5704,-1.5793,-1.5969,-1.5969,-1.6057,-1.6145,-1.5969,-1.5645,-1.5111,-1.4937,-1.4468,-1.3838,-1.3627,-1.3546,-1.3566,-1.3722,-1.3862,-1.4053,-1.4198,-1.4167,-1.4146,-1.3885,-1.3715,-1.3553,-1.3553,-1.3553,-1.3553,-1.3553,-1.3526,-1.3429,-1.3429,-1.3567,-1.3705,-1.3705,-1.4048,-1.4183,-1.3819,-1.3666,-1.3547,-1.3089,-1.2522,-1.194,-1.1523,-1.1753,-1.194,-1.1591,-1.1819,-1.2081,-1.232,-1.2414,-1.2477,-1.2664,-1.2614,-1.2469,-1.2246,-1.2776,-1.309,-1.2938,-1.3482,-1.3706,-1.3587,-1.3364,-1.3157,-1.305,-1.2605,-1.2134,-1.1526,0.0,0.0,0.0,0.0,0.0,0.0,0.0,0.0,0.0,0.0,0.0,0.0,0.0,0.0,0.0,0.0,0.0,0.0,0.0,0.0,0.0,0.0,0.0,-1.5872,-1.5217,-1.5239,-1.7144,-1.5301,-1.4175,-1.5186,-1.4853,-1.4629,-1.4629,-1.5064,-1.5388,-1.5538,-1.5545,-1.5628,-1.5697,-1.5704,-1.5704,-1.5704,-1.5704,-1.5704,-1.5704,-1.5704,-1.5969,-1.6401,-1.6401,-1.6665,-1.7112,-1.6577,-1.6137,-1.5704,-1.5256,-1.4734,-1.4272,-1.3973,-1.3858,-1.3871,-1.4021,-1.443,-1.4887,-1.4942,-1.4992,-1.4911,-1.4476,-1.4299,-1.4299,-1.4299,-1.4299,-1.4299,-1.4299,-1.4299,-1.4299,-1.4299,-1.4299,-1.4299,-1.4299,-1.4299,-1.4299,-1.4299,-1.4271,-1.4249,-1.4771,-1.4146,-1.337,-1.2811,-1.3431,-1.3725,-1.2969,-1.2899,0.0,-1.4616,-1.4781,-1.5362,-1.6797,-1.6765,-1.6564,-1.6303,-1.5462,-1.4984,-1.5235,-1.4285,-1.3705,-1.3855,-1.3384,-1.3118,-1.2949,-1.2693,-1.2707,-1.3146,0.0,0.0,0.0,0.0,0.0,0.0,0.0,0.0,0.0,0.0,0.0,0.0,0.0,0.0,0.0,0.0,0.0,0.0,0.0,0.0,0.0,-1.6086,-1.5872,-1.5836,-1.4792,-1.4209,-1.4754,-1.4585,-1.4522,-1.4934,-1.5138,-1.5263,-1.5388,-1.5825,-1.611,-1.6156,-1.6506,-1.6705,-1.6665,-1.6761,-1.6761,-1.6761,-1.6761,-1.6761,-1.6761,-1.6761,-1.6761,-1.6936,-1.6936,-1.7024,-1.7112,-1.6936,-1.6665,-1.6225,-1.6049,-1.5697,-1.5256,-1.4467,-1.4345,-1.4696,-1.4738,-1.5023,-1.5469,-1.5513,-1.5528,-1.5528,-1.5352,-1.5352,-1.5352,-1.5352,-1.5352,-1.5352,-1.5352,-1.5352,-1.5352,-1.5352,-1.5352,-1.5352,-1.5352,-1.5352,-1.5352,-1.5352,-1.5315,-1.5345,-1.5749,-1.6113,-1.6289,-1.6029,-1.631,-1.6734,-1.7182,-1.7078,-1.6992,-1.7065,-1.7065,-1.7121,-1.7223,-1.6725,-1.6455,-1.6573,-1.6648,-1.6664,-1.6558,-1.7076,-1.735,-1.7418,-1.6963,-1.6739,-1.6636,-1.6221,-1.5978,0.0,0.0,0.0,0.0,0.0,0.0,0.0,0.0,0.0,0.0,0.0,0.0,0.0,0.0,0.0,0.0,0.0,0.0,0.0,0.0,0.0,0.0,-1.635,-1.6087,-1.5899,-1.5063,-1.4564,-1.4627,-1.4902,-1.5111,-1.5206,-1.5563,-1.5943,-1.5961,-1.6401,-1.6665,-1.6665,-1.6928,-1.7112,-1.7112,-1.7112,-1.7112,-1.7112,-1.7112,-1.7112,-1.7112,-1.7112,-1.7112,-1.7112,-1.7112,-1.7112,-1.7112,-1.7112,-1.6841,-1.6401,-1.6401,-1.6137,-1.5616,0.0,0.0,0.0,0.0,-1.5785,-1.5969,-1.5969,-1.5969,-1.5969,-1.5793,-1.5704,-1.5704,-1.5704,-1.5704,-1.5704,-1.5704,-1.5704,-1.5704,-1.5704,-1.5704,-1.5704,-1.5704,-1.5704,-1.5793,-1.5969,-1.5969,-1.6202,-1.6974,-1.7723,0.0,-1.9448,-1.8931,-1.8542,-1.8947,-1.8907,-1.8884,-1.9277,-1.9339,-1.9472,-1.9785,-1.9504,-1.9303,-1.9206,-1.9122,0.0,0.0,0.0,-1.9129,-1.9038,-1.8857,0.0,0.0,0.0,0.0,0.0,-1.9315,0.0,0.0,-1.7631,-1.7676,0.0,0.0,0.0,0.0,0.0,0.0,0.0,0.0,0.0,0.0,0.0,0.0,0.0,0.0,0.0,0.0,-1.6308,-1.5828,-1.6183,-1.5923,-1.5715,-1.569,-1.5793,-1.5793,-1.5793,-1.6225,-1.6489,-1.6489,-1.6841,-1.7112,-1.7112,-1.7112,0.0,0.0,0.0,-1.7112,-1.7112,-1.7112,-1.7112,-1.7112,-1.7112,-1.7112,-1.7112,-1.7112,-1.7112,-1.7112,-1.7112,-1.6841,-1.6489,-1.6489,-1.6225,-1.5881,-1.5793,-1.5793,-1.5881,-1.6313,-1.6489,-1.6489,-1.6489,0.0,0.0,-1.5969,-1.5881,-1.5881,-1.5881,-1.5881,-1.5881,-1.5881,-1.5881,-1.5881,-1.5881,-1.5881,-1.5881,-1.5881,-1.5969,-1.6057,-1.6577,-1.6665,-1.7096,-1.841,-1.9108,-2.0163,-2.2406,-2.1098,-1.9819,-1.9698,-1.9639,-2.0128,-2.1367,-2.1508,-2.2064,-2.3289,-2.3399,0.0,-2.2778,-2.1948,-2.1405,-2.1381,-2.065,-2.0099,-1.9876,-2.0379,-2.0627,-2.0542,-2.1202,-2.1919,-2.2519,-2.282,-2.3017,-2.3131,-2.0699,-2.0484,0.0,0.0,0.0,0.0,0.0,0.0,0.0,0.0,0.0,0.0,0.0,0.0,0.0,0.0,0.0,-1.7718,-1.7255,-1.6793,-1.688,-1.688,-1.6545,-1.5793,-1.6049,-1.6225,-1.6225,-1.6665,-1.6936,-1.6936,-1.7024,-1.7112,-1.7112,-1.7112,-1.7112,-1.7112,-1.7112,-1.7112,-1.7112,-1.7112,-1.7112,-1.7112,-1.7112,0.0,-1.7112,-1.7112,-1.7112,-1.7112,-1.7112,-1.7024,-1.6936,-1.6936,-1.6936,-1.6761,-1.6401,-1.6225,-1.6313,-1.6753,-1.6936,-1.6936,-1.6936,-1.6936,-1.6928,-1.6849,-1.6849,-1.6849,-1.6849,-1.6849,0.0,-1.6849,-1.6849,-1.6849,-1.6849,-1.6849,-1.6936,-1.7296,-1.7384,-1.7559,-1.7989,-1.8418,-1.8855,-1.9457,-2.0337,-2.1379,-2.302,-2.2705,-2.2668,-2.3706,-2.3677,-2.3539,-2.3609,-2.3655,-2.3641,-2.3712,-2.3258,-2.3024,-2.3231,-2.2419,-2.1952,-2.2124,-2.3184,-2.364,-2.3297,-2.5263,-2.5574,-2.3744,-2.5585,-2.5999,-2.4673,-2.5094,-2.4931,-2.4125,-2.305,-2.2853,0.0,0.0,0.0,0.0,0.0,0.0,0.0,0.0,0.0,0.0,0.0,-1.7469,-1.747,0.0,-1.7776,-1.7579,-1.7281,-1.7112,-1.7112,-1.7112,-1.6936,-1.6497,-1.6577,-1.6841,-1.7112,-1.7288,-1.7551,-1.7814,-1.7814,-1.7814,-1.7814,-1.7551,-1.7463,-1.7463,-1.72,-1.7112,-1.7112,-1.7112,-1.7112,-1.7112,-1.7112,-1.7112,-1.7112,-1.7112,-1.7112,-1.7112,-1.7112,-1.7112,-1.7112,-1.7112,-1.7112,-1.7112,-1.6841,-1.6753,-1.6753,-1.7024,-1.7112,-1.7112,-1.7112,-1.7112,-1.7112,-1.7112,-1.7112,-1.7112,-1.7112,-1.7112,-1.7112,-1.7112,-1.7112,-1.7112,-1.7112,-1.7288,-1.7463,-1.7735,-1.7998,-1.8339,-1.903,-1.9379,-1.9815,-2.0771,-2.1292,-2.2081,-2.3548,-2.3619,-2.392,-2.4807,-2.4927,-2.4685,-2.4287,-2.4238,-2.413,-2.3796,-2.3492,-2.3666,-2.4541,-2.4892,-2.5095,-2.5187,-2.6135,-2.6594,-2.6444,-2.7956,-2.8302,-2.712,-2.8496,-2.8745,-2.7861,-2.7264,-2.6736,-2.6217,-2.4999,-2.4432,0.0,0.0,0.0,0.0,0.0,0.0,0.0,-1.7671,-1.8207,-1.7224,-1.7788,-1.8366,-1.7899,-1.8166,-1.8222,-1.7501,-1.7375,-1.7375,-1.7375,-1.7375,-1.7375,-1.7375,-1.7288,-1.7375,-1.791,-1.791,-1.8085,-1.8427,-1.8514,-1.8514,-1.8514,-1.8164,-1.791,-1.791,-1.7463,-1.72,-1.72,-1.7112,-1.7112,-1.7112,-1.7112,-1.7112,-1.7112,-1.7112,-1.7112,-1.7112,-1.7112,-1.7112,-1.7112,-1.7112,-1.7112,-1.7112,-1.7112,-1.7112,-1.7112,-1.7024,-1.6936,-1.6936,-1.6936,-1.7024,-1.7112,-1.7112,-1.7112,-1.7112,-1.7112,-1.7112,-1.7112,-1.7112,-1.7112,-1.7112,-1.72,-1.7559,-1.7822,-1.7998,-1.8427,-1.903,-1.9815,-2.0163,-2.0684,-2.1811,-2.2168,-2.2686,-2.3892,-2.4149,-2.4423,-2.4987,-2.512,-2.4867,-2.4456,-2.4347,-2.4308,-2.4492,-2.4381,-2.4949,-2.6483,-2.7611,-2.8473,-2.8851,-2.9181,-2.9346,-2.9346,-3.023,-3.0548,-3.0231,-3.1058,-3.136,-3.0951,-2.9786,-2.9076,-2.8601,-2.7297,-2.6227,-1.823,-1.8037,-1.7464,-1.6583,-1.6638,-1.6828,0.0,-1.7054,-1.7842,-1.7498,-1.8016,-1.8477,-1.8374,-1.8418,-1.8462,-1.8331,-1.8339,-1.8339,-1.8339,-1.8339,-1.8339,-1.8339,-1.7998,-1.791,-1.8339,-1.8427,-1.8427,-1.8514,-1.8514,-1.8514,-1.8514,-1.8427,-1.8427,-1.8427,-1.7998,-1.7735,-1.7735,-1.7288,-1.7112,-1.7112,-1.7112,-1.7112,-1.7112,-1.7112,-1.7112,-1.7112,-1.7112,-1.7112,-1.7112,-1.7112,-1.7112,-1.7112,-1.7112,-1.7112,-1.7024,-1.6665,-1.6489,-1.6489,-1.6489,-1.6753,-1.7112,-1.7112,-1.7112,-1.7112,-1.7112,-1.7112,-1.7112,-1.7112,-1.7112,-1.72,-1.7647,-1.7735,-1.7998,-1.8864,-1.9379,-1.9902,-2.0434,-2.1215,-2.1811,-2.1995,-2.2686,-2.3462,-2.3978,-2.4407,-2.4823,-2.5312,-2.5397,-2.5289,-2.4915,-2.4733,-2.5141,-2.6741,-2.6347,-2.6822,-2.8863,-2.9164,-3.0069,-3.1889,-3.2032,-3.2047,-3.2047,-3.3875,-3.4153,-3.2681,-3.4486,-3.4701,-3.3038,-3.3218,-3.2373,-3.0524,-3.0991,-2.924,-1.7931,-1.7991,-1.8044,-1.7253,-1.7542,-1.8043,-1.7776,-1.8415,-1.8836,-1.8235,-1.8287,-1.8514,-1.8514,-1.8514,-1.8514,-1.8514,-1.8514,-1.8514,-1.8514,-1.8514,-1.8602,-1.8855,-1.8777,-1.8689,-1.8864,-1.8943,-1.9039,-1.9301,-1.931,-1.931,-1.931,-1.9039,-1.8943,-1.8943,-1.8173,-1.7822,-1.7822,-1.7288,-1.7112,-1.7112,-1.7112,-1.7112,-1.7112,-1.7112,-1.7112,-1.7112,-1.7112,-1.7112,-1.7112,-1.7112,-1.7112,-1.7112,-1.7112,-1.6928,-1.6665,-1.6753,-1.6841,-1.6841,-1.6841,-1.7112,-1.7463,-1.7463,-1.7726,-1.7902,-1.7902,-1.7902,-1.7902,-1.7902,-1.7902,-1.7989,-1.8164,-1.8427,-1.8777,-1.9466,-1.9989,-2.0607,-2.1562,-2.2168,-2.26,-2.3117,-2.372,-2.4235,-2.4407,-2.5665,-2.6758,-2.694,-2.6103,-2.5677,-2.6472,-2.6498,-2.7004,-2.8706,-2.9494,-3.025,-3.1099,-3.2079,-3.3025,-3.3913,-3.4113,-3.4229,-3.4229,-3.5316,-3.5519,-3.4859,-3.5672,-3.5757,-3.5011,-3.408,-3.3337,-3.2637,-3.1906,-3.078,-1.8356,-1.8375,-1.8641,-1.7964,-1.8215,-1.8691,-1.888,-1.9331,-1.9553,-1.8855,-1.8777,-1.8864,-1.8864,-1.8864,-1.8952,-1.9039,-1.9039,-1.9039,-1.9039,-1.9039,-1.9126,-1.9388,-1.9388,-1.9388,-1.9388,-1.9388,-1.9563,-1.9834,-1.9921,-1.9921,-1.9921,-1.9563,-1.9388,-1.9388,-1.8514,-1.7998,-1.7998,-1.7375,-1.7112,-1.7112,-1.7112,-1.7112,-1.7112,-1.7112,-1.7112,-1.7112,-1.7112,-1.7112,-1.7112,-1.7112,-1.7112,-1.7112,-1.7112,-1.6936,-1.6841,-1.72,-1.7112,-1.6928,-1.7024,-1.7375,-1.7822,-1.791,-1.8252,-1.8514,-1.8514,-1.8514,-1.8514,-1.8514,-1.8514,-1.8602,-1.8864,-1.9117,-1.9553,-2.0163,-2.0771,-2.1475,-2.2514,-2.3031,-2.3462,-2.4149,-2.4835,-2.5336,-2.558,-2.7181,-2.8517,-2.8853,-2.7772,-2.7272,-2.8385,-2.8938,-2.9606,-3.0575,-3.23,-3.3334,-3.3334,-3.4474,-3.5172,-3.5275,-3.5532,-3.5669,-3.5669,-3.5943,-3.6097,-3.6097,-3.6097,-3.6097,-3.6097,-3.4849,-3.444,-3.47,-3.3531,-3.2777,-2.0447,-2.0064,-2.0179,-1.9004,-1.8246,-1.7989,-1.841,-1.8855,-1.9204,-1.9204,-1.9563,-1.9834,-1.9834,-1.9834,-2.0008,-2.0434,-2.052,-2.052,-2.052,-2.052,-2.0347,-1.9921,-1.9921,-1.9921,-1.9921,-1.9921,-1.9921,-1.9921,-1.9921,-1.9921,-1.9921,-1.9921,-1.9921,-1.9921,-1.8952,-1.8514,-1.8514,-1.7551,-1.7112,-1.7112,-1.7112,-1.7112,-1.7112,-1.7112,-1.7112,-1.7112,-1.7112,-1.7112,-1.7112,-1.7112,-1.7112,-1.7112,-1.7112,-1.7375,-1.7735,-1.7735,-1.72,-1.6489,-1.6928,-1.7375,-1.791,-1.8339,-1.8514,-1.8514,-1.8514,-1.8514,-1.8514,-1.8514,-1.8514,-1.8689,-1.964,-1.9902,-2.0076,-2.1042,-2.1995,-2.2686,-2.2686,-2.3709,-2.4664,-2.4664,-2.5775,-2.7037,-2.7857,-2.8769,-2.9676,-3.0592,-3.0676,-3.0661,-3.0744,-3.2165,-3.298,-3.2459,-3.4229,-3.5401,-3.5401,-3.5498,-3.5652,-3.6029,-3.6063,-3.608,-3.608,-3.608,-3.6097,-3.6097,-3.6097,-3.6097,-3.6097,-3.6358,-3.6529,-3.6546,-3.6839,-3.6075,-2.1092,-2.0083,-1.9146,-1.8308,-1.82,-1.8427,-1.8864,-1.9117,-1.9292,-1.9563,-2.1272,-2.2622,-2.2622,-2.276,-2.2906,-2.2991,-2.183,-2.0832,-2.0832,-2.0692,-2.052,-2.0347,-2.0095,-1.9921,-1.9921,-1.9921,-1.9921,-1.9921,-1.9921,-1.9921,-1.9921,-1.9921,-1.9746,-1.9475,-1.8864,-1.8339,-1.8085,-1.7375,-1.7112,-1.7112,-1.7112,-1.7112,-1.7112,-1.7112,-1.7112,-1.7112,-1.7112,-1.7112,-1.7112,-1.7112,-1.7112,-1.7112,-1.7463,-1.7647,-1.7822,-1.8173,-1.8077,-1.7805,-1.7989,-1.8339,-1.8777,-1.8943,-1.9214,-1.9397,-1.9397,-1.9397,-1.9475,-1.9824,-1.9911,-1.9998,-2.0694,-2.0858,-2.1032,-2.1995,-2.2514,-2.3031,-2.4235,-2.4835,-2.5433,-2.6371,-2.7376,-2.8278,-2.8853,-3.0676,-3.2592,-3.4083,-3.3249,-3.251,-3.251,-3.4099,-3.5089,-3.4919,-3.5485,-3.5892,-3.5892,-3.5892,-3.596,-3.608,-3.6097,-3.6097,-3.6097,-3.6097,-3.6097,-3.6097,-3.6097,-3.6097,-3.6097,-3.6217,-3.6388,-3.6628,-3.7022,-3.6996,-2.0739,-1.9542,-1.8698,-1.8209,-1.8427,-1.8846,-1.9296,-1.9364,-1.9433,-1.9627,-2.1725,-2.3511,-2.3687,-2.3839,-2.4401,-2.6039,-2.4446,-2.2967,-2.3054,-2.2847,-2.2158,-2.0724,-2.0182,-1.9921,-1.9921,-1.9921,-1.9921,-1.9921,-1.9921,-1.9921,-1.9921,-1.9921,-1.965,-1.9204,-1.8777,-1.8252,-1.7822,-1.7288,-1.7112,-1.7112,-1.7112,-1.7112,-1.7112,-1.7112,-1.7112,-1.7112,-1.7112,-1.7112,-1.7112,-1.7288,-1.7375,-1.7375,-1.7902,-1.8173,-1.8339,-1.8602,-1.8864,-1.8952,-1.8777,-1.8943,-1.9204,-1.9388,-1.965,-1.9921,-1.9921,-2.0008,-2.0182,-2.052,-2.0694,-2.0955,-2.1649,-2.1822,-2.2081,-2.2945,-2.329,-2.3806,-2.5092,-2.5775,-2.6456,-2.7474,-2.8726,-2.9718,-3.0524,-3.269,-3.4767,-3.5918,-3.5092,-3.4343,-3.4343,-3.5335,-3.6097,-3.6097,-3.6097,-3.6097,-3.6097,-3.6097,-3.6097,-3.6097,-3.6097,-3.6097,-3.6097,-3.6097,-3.6097,-3.6097,-3.6097,-3.6097,-3.6097,-3.6097,-3.6268,-3.6628,-3.6885,-3.721,-1.9748,-1.879,-1.8967,-1.867,-1.8934,-1.9315,-1.9542,-1.9581,-1.96,-1.9456,-2.1117,-2.2783,-2.3234,-2.3353,-2.4751,-2.8995,-2.7901,-2.6584,-2.6753,-2.6347,-2.4683,-2.1112,-2.0182,-1.9921,-1.9921,-1.9921,-1.9921,-1.9921,-1.9921,-1.9921,-1.9921,-1.9921,-1.965,-1.9204,-1.8777,-1.8252,-1.7822,-1.7288,-1.7112,-1.7112,-1.7112,-1.7112,-1.7112,-1.7112,-1.7112,-1.7112,-1.7112,-1.7112,-1.72,-1.7647,-1.7822,-1.791,-1.8339,-1.8777,-1.9204,-1.9204,-1.9563,-1.9834,-1.9388,-1.9204,-1.9292,-1.9746,-1.9921,-1.9921,-1.9921,-2.0269,-2.0607,-2.0607,-2.0955,-2.1562,-2.2514,-2.2772,-2.2945,-2.3892,-2.4407,-2.4835,-2.5348,-2.6541,-2.7643,-2.8136,-2.9732,-3.1399,-3.2705,-3.4686,-3.6097,-3.6097,-3.6097,-3.6097,-3.6097,-3.6097,-3.6097,-3.6097,-3.6097,-3.6097,-3.6097,-3.6097,-3.6097,-3.6097,-3.6097,-3.6097,-3.6097,-3.6097,-3.6097,-3.6097,-3.6097,-3.6097,-3.6097,-3.6097,-3.6268,-3.6628,-3.6645,-3.6868,-1.9866,-1.9049,-1.8781,-1.9167,-1.9675,-1.9961,-1.9835,-1.9786,-2.0051,-2.0688,-2.2885,-2.5011,-2.6184,-2.6254,-2.6434,-2.76,-2.5357,-2.3481,-2.3648,-2.29,-2.1984,-2.1215,-2.0443,-1.9921,-1.9921,-1.9921,-1.9921,-1.9921,-1.9921,-1.9921,-1.9921,-1.9921,-1.965,-1.9204,-1.8777,-1.8252,-1.7822,-1.7288,-1.7112,-1.7112,-1.7112,-1.7112,-1.7112,-1.7112,-1.7112,-1.7112,-1.7112,-1.7288,-1.7647,-1.7735,-1.7998,-1.8339,-1.8864,-1.9117,-1.9204,-1.9563,-1.9834,-1.9921,-1.9746,-1.9746,-1.9737,-1.9834,-1.9921,-1.9921,-1.9921,-2.0269,-2.0694,-2.1042,-2.1475,-2.2081,-2.2945,-2.3204,-2.3462,-2.4321,-2.4664,-2.5006,-2.6201,-2.6965,-2.7897,-2.9411,-3.1647,-3.346,-3.4213,-3.5271,-3.6097,-3.6097,-3.6097,-3.6097,-3.6097,-3.6097,-3.6097,-3.6097,-3.6097,-3.6097,-3.6097,-3.6097,-3.6097,-3.6097,-3.6097,-3.6097,-3.6097,-3.6097,-3.6097,-3.6097,-3.6097,-3.6097,-3.6097,-3.6097,-3.6268,-3.6628,-3.6919,-3.7261,-1.9355,-1.8706,-1.853,-1.937,-1.9865,-2.0254,-2.0631,-2.0669,-2.0879,-2.1603,-2.3922,-2.5864,-2.6487,-2.6576,-2.7104,-2.8669,-2.644,-2.4604,-2.4913,-2.388,-2.2729,-2.1735,-2.0781,-2.0269,-2.052,-2.0356,-2.0182,-2.0182,-2.0008,-1.9959,-2.0044,-2.0053,-1.9827,-1.9469,-1.9203,-1.8814,-1.8206,-1.8021,-1.7802,-1.7726,-1.7726,-1.7639,-1.7375,-1.7375,-1.7288,-1.7112,-1.7112,-1.7375,-1.7822,-1.7998,-1.8339,-1.8864,-1.9301,-1.9475,-1.9563,-1.9834,-1.9921,-1.9921,-1.9921,-1.9921,-1.9921,-1.9921,-1.9921,-1.9921,-1.9921,-2.0269,-2.0694,-2.1128,-2.1649,-2.2254,-2.3204,-2.3376,-2.3634,-2.4492,-2.4835,-2.5348,-2.6541,-2.7474,-2.8655,-3.068,-3.2736,-3.4213,-3.4702,-3.5531,-3.6097,-3.6097,-3.6097,-3.6097,-3.6097,-3.6097,-3.6097,-3.6097,-3.6097,-3.6097,-3.6097,-3.6097,-3.6097,-3.6097,-3.6097,-3.6097,-3.6097,-3.6097,-3.6166,-3.632,-3.632,-3.6405,-3.6577,-3.6577,-3.6679,-3.6885,-3.7279,-3.7553,-1.8506,-1.8026,-1.8465,-1.9476,-1.9825,-2.0259,-2.1458,-2.1742,-2.186,-2.2473,-2.4283,-2.5779,-2.5616,-2.582,-2.6983,-3.0002,-2.8476,-2.6955,-2.7353,-2.6189,-2.458,-2.2286,-2.1215,-2.0868,-2.1302,-2.0898,-2.0656,-2.0656,-2.0249,-2.0062,-2.0214,-2.0251,-2.0079,-1.9797,-1.9806,-1.9455,-1.8831,-1.8831,-1.8734,-1.855,-1.855,-1.8278,-1.7822,-1.7822,-1.7559,-1.7112,-1.7112,-1.7375,-1.791,-1.8339,-1.8777,-1.9292,-1.9737,-1.9921,-1.9921,-1.9921,-1.9921,-1.9921,-1.9921,-1.9834,-1.9834,-1.9921,-1.9921,-1.9921,-1.9921,-2.0269,-2.0694,-2.1128,-2.1562,-2.2081,-2.3031,-2.329,-2.3548,-2.4492,-2.5092,-2.5702,-2.6664,-2.8034,-2.9705,-3.1775,-3.3312,-3.4294,-3.4702,-3.5565,-3.6166,-3.6166,-3.6217,-3.6217,-3.6166,-3.6131,-3.6097,-3.6097,-3.6097,-3.6097,-3.6097,-3.6097,-3.6097,-3.6097,-3.6097,-3.6097,-3.6097,-3.6131,-3.6303,-3.6611,-3.6679,-3.6868,-3.721,-3.721,-3.7244,-3.7379,-3.7705,-3.7961,-1.8339,-1.8278,-1.8515,-2.006,-2.0356,-2.0528,-2.1754,-2.1808,-2.2007,-2.368,-2.4142,-2.4601,-2.6083,-2.6264,-2.6291,-2.6494,-2.5356,-2.4393,-2.4187,-2.2961,-2.2065,-2.204,-2.1475,-2.1215,-2.1302,-2.1027,-2.0871,-2.0871,-2.0594,-2.0374,-2.0223,-2.0384,-2.0228,-1.9806,-1.9806,-1.9518,-1.9042,-1.9042,-1.8945,-1.8743,-1.8743,-1.8399,-1.7822,-1.7822,-1.7559,-1.7112,-1.7112,-1.7551,-1.8339,-1.8427,-1.9039,-1.9834,-1.9834,-1.9921,-1.9921,-1.9921,-1.9921,-1.9921,-1.9921,-1.965,-1.9388,-1.9746,-1.9921,-1.9921,-1.9921,-2.0269,-2.0607,-2.0694,-2.1042,-2.1649,-2.26,-2.2859,-2.3117,-2.4407,-2.5092,-2.575,-2.6904,-2.9094,-3.1154,-3.2069,-3.3558,-3.4702,-3.4783,-3.5767,-3.6525,-3.6525,-3.6816,-3.6902,-3.6577,-3.6268,-3.6097,-3.6097,-3.6097,-3.6097,-3.6097,-3.6097,-3.6097,-3.6097,-3.6097,-3.6097,-3.6097,-3.6371,-3.6559,-3.6628,-3.6936,-3.7142,-3.721,-3.721,-3.7548,-3.8261,-3.8331,-3.8691,-1.8252,-1.8468,-1.8721,-2.0234,-2.0714,-2.1275,-2.2868,-2.3062,-2.3313,-2.489,-2.5048,-2.5071,-2.572,-2.6043,-2.619,-2.6161,-2.4815,-2.3891,-2.4069,-2.2466,-2.1516,-2.2118,-2.1836,-2.169,-2.1813,-2.1477,-2.1235,-2.1087,-2.0852,-2.0648,-2.0544,-2.0752,-2.0774,-2.05,-2.0491,-2.0354,-1.997,-1.997,-1.9815,-1.9505,-1.9505,-1.9052,-1.8173,-1.8173,-1.7726,-1.7112,-1.7112,-1.7639,-1.8514,-1.8514,-1.9039,-1.9921,-1.9921,-1.9921,-1.9834,-1.965,-1.9563,-1.9475,-1.9301,-1.9039,-1.8864,-1.9126,-1.9126,-1.9126,-1.9126,-1.9301,-1.9563,-1.9824,-1.9989,-2.0424,-2.1389,-2.1822,-2.2341,-2.372,-2.5187,-2.6831,-2.8479,-3.0267,-3.1775,-3.2555,-3.4183,-3.5345,-3.5345,-3.6239,-3.6919,-3.6919,-3.709,-3.7142,-3.6953,-3.6594,-3.6303,-3.6114,-3.6097,-3.6166,-3.6354,-3.6371,-3.6457,-3.6662,-3.6679,-3.6679,-3.6679,-3.6833,-3.7105,-3.756,-3.775,-3.8108,-3.8467,-3.8467,-3.8723,-3.9085,-3.9085,-3.9342,-1.8436,-1.8483,-1.8856,-2.0373,-2.1002,-2.1919,-2.3976,-2.4317,-2.4575,-2.583,-2.5979,-2.576,-2.5503,-2.5932,-2.6435,-2.6761,-2.5763,-2.4918,-2.4926,-2.34,-2.2368,-2.2204,-2.2138,-2.2002,-2.2143,-2.1764,-2.1432,-2.1302,-2.1154,-2.1004,-2.0913,-2.1074,-2.1168,-2.1168,-2.1168,-2.1083,-2.0913,-2.0913,-2.0705,-2.0289,-2.0289,-1.9627,-1.8514,-1.8514,-1.7989,-1.7112,-1.7112,-1.7551,-1.8339,-1.8427,-1.8952,-1.9737,-1.9737,-1.9737,-1.965,-1.9214,-1.903,-1.903,-1.8602,-1.8427,-1.8339,-1.8339,-1.8427,-1.8514,-1.8514,-1.8514,-1.8602,-1.8855,-1.8943,-1.9204,-1.9998,-2.0607,-2.1486,-2.3172,-2.5452,-2.7775,-2.9918,-3.1153,-3.2215,-3.3251,-3.4762,-3.5957,-3.6041,-3.6778,-3.733,-3.733,-3.7733,-3.7983,-3.7913,-3.786,-3.7717,-3.7347,-3.6615,-3.6234,-3.6594,-3.6628,-3.6782,-3.7193,-3.7293,-3.7376,-3.7376,-3.7546,-3.7885,-3.8618,-3.8705,-3.9049,-3.9689,-3.9689,-3.9774,-3.9876,-3.9876,-3.9858,-1.9154,-1.8483,-1.8941,-2.0698,-2.1274,-2.2159,-2.4655,-2.475,-2.4765,-2.6437,-2.6243,-2.5836,-2.6119,-2.6518,-2.6858,-2.7115,-2.7872,-2.7653,-2.5479,-2.5577,-2.4855,-2.2353,-2.1984,-2.1905,-2.1693,-2.1373,-2.1312,-2.1426,-2.165,-2.1602,-2.1232,-2.1159,-2.1168,-2.1168,-2.1168,-2.1159,-2.114,-2.114,-2.0932,-2.0516,-2.0516,-1.9765,-1.8514,-1.8514,-1.7989,-1.7112,-1.7112,-1.7375,-1.791,-1.8339,-1.8777,-1.9292,-1.9292,-1.9292,-1.9204,-1.8777,-1.8602,-1.8602,-1.8514,-1.8252,-1.7822,-1.7822,-1.8173,-1.8514,-1.8514,-1.8514,-1.8427,-1.8068,-1.8243,-1.8593,-1.8672,-1.937,-2.0724,-2.3642,-2.5715,-2.7659,-2.9872,-3.1324,-3.2654,-3.4149,-3.5268,-3.6041,-3.6459,-3.7232,-3.7707,-3.7707,-3.94,-4.0498,-4.0115,-4.1084,-4.1631,-4.1305,-3.8184,-3.6234,-3.6594,-3.6628,-3.6782,-3.7193,-3.7608,-3.7857,-3.7857,-3.854,-3.8918,-3.9037,-3.9374,-3.9653,-3.9689,-3.9689,-3.9961,-4.0318,-4.0318,-4.0554,-1.9263,-1.8983,-1.9567,-2.0619,-2.2498,-2.4291,-2.5201,-2.5779,-2.628,-2.6772,-2.6229,-2.5787,-2.6113,-2.6509,-2.7102,-2.813,-2.8012,-2.771,-2.7437,-2.5948,-2.4356,-2.3246,-2.2268,-2.1673,-2.1363,-2.1671,-2.199,-2.2118,-2.2218,-2.2268,-2.2093,-2.1816,-2.1631,-2.1631,-2.1353,-2.1168,-2.1168,-2.1168,-2.096,-2.0544,-2.0544,-1.9784,-1.8514,-1.8514,-1.7989,-1.7112,-1.7112,-1.7375,-1.7822,-1.8339,-1.8602,-1.8777,-1.9117,-1.903,-1.8689,-1.8252,-1.8085,-1.8085,-1.7726,-1.7551,-1.7375,-1.7375,-1.7551,-1.7639,-1.7639,-1.7455,-1.7192,-1.7016,-1.6928,-1.6936,-1.7543,-1.9021,-2.0985,-2.3479,-2.5302,-2.7297,-3.0106,-3.1873,-3.3463,-3.5231,-3.7165,-3.867,-3.9192,-4.0388,-4.1314,-4.1314,-4.2046,-4.25,-4.2328,-4.2581,-4.2737,-4.258,-4.0534,-3.9379,-4.0012,-3.9295,-3.9176,-3.9909,-3.9294,-3.8975,-3.8975,-3.9303,-3.956,-3.9898,-4.0059,-4.03,-4.0554,-4.0554,-4.0639,-4.0807,-4.0807,-4.0892,-2.0878,-2.0463,-2.0745,-2.1492,-2.3732,-2.586,-2.5786,-2.659,-2.7219,-2.7062,-2.6437,-2.6026,-2.619,-2.6462,-2.7133,-2.8618,-2.8487,-2.846,-2.9234,-2.7708,-2.6242,-2.5702,-2.4855,-2.3764,-2.2532,-2.2302,-2.2373,-2.2811,-2.2821,-2.2913,-2.3005,-2.2637,-2.2185,-2.1908,-2.1538,-2.1353,-2.1168,-2.1168,-2.096,-2.0544,-2.0544,-1.9784,-1.8514,-1.8514,-1.7989,-1.7112,-1.7112,-1.7288,-1.7647,-1.8085,-1.8252,-1.8339,-1.8689,-1.8602,-1.8252,-1.7735,-1.7559,-1.7559,-1.72,-1.7112,-1.7112,-1.7112,-1.7024,-1.6928,-1.6928,-1.6665,-1.6313,-1.6049,-1.5785,-1.5704,-1.6665,-1.8322,-2.0288,-2.242,-2.4413,-2.6795,-2.9994,-3.2134,-3.4128,-3.6394,-3.8682,-4.0548,-4.1239,-4.264,-4.3633,-4.3633,-4.4044,-4.4373,-4.4373,-4.4563,-4.4602,-4.4602,-4.365,-4.2837,-4.2541,-4.1733,-4.1323,-4.1704,-4.0921,-4.0282,-3.9961,-4.0046,-4.03,-4.0554,-4.0639,-4.0723,-4.106,-4.1189,-4.1244,-4.1244,-4.1372,-4.1512,-2.4439,-2.3167,-2.2717,-2.3621,-2.501,-2.62,-2.653,-2.698,-2.7297,-2.7225,-2.6866,-2.6591,-2.6591,-2.6591,-2.6995,-2.8205,-2.9745,-3.0669,-3.0453,-3.17,-3.2047,-3.018,-3.0236,-2.9108,-2.5536,-2.314,-2.236,-2.3291,-2.3383,-2.3567,-2.4026,-2.3659,-2.2923,-2.1908,-2.1908,-2.1631,-2.1168,-2.1168,-2.096,-2.0544,-2.0544,-1.9784,-1.8514,-1.8514,-1.7989,-1.7112,-1.7112,-1.7112,-1.7112,-1.7647,-1.7822,-1.7822,-1.7822,-1.7822,-1.7735,-1.7288,-1.7112,-1.7112,-1.7112,-1.7112,-1.7112,-1.7112,-1.6753,-1.6401,-1.6401,-1.6401,-1.6225,-1.5256,-1.4992,-1.5256,-1.6137,-1.7104,-1.8374,-2.05,-2.3005,-2.5901,-2.9427,-3.1856,-3.4375,-3.7688,-3.9381,-4.0716,-4.2076,-4.2991,-4.3633,-4.3633,-4.5108,-4.6264,-4.6264,-4.7404,-4.8165,-4.8165,-4.775,-4.6223,-4.3354,-4.3069,-4.2674,-4.1788,-4.2076,-4.1695,-4.0469,-4.0807,-4.106,-4.106,-4.106,-4.106,-4.106,-4.1482,-4.1684,-4.1702,-4.2087,-4.2512,-2.5522,-2.5139,-2.5143,-2.4012,-2.5681,-2.7442,-2.6829,-2.7608,-2.8241,-2.7397,-2.6866,-2.6591,-2.6591,-2.6591,-2.7435,-3.0039,-3.0864,-3.1847,-3.3713,-3.1424,-2.9305,-2.8347,-2.5871,-2.3997,-2.3433,-2.3096,-2.3189,-2.3843,-2.4199,-2.428,-2.4107,-2.4291,-2.3913,-2.2923,-2.2268,-2.1816,-2.1723,-2.1353,-2.096,-2.0544,-2.0544,-1.9962,-1.8952,-1.8689,-1.8164,-1.7559,-1.72,-1.7112,-1.7112,-1.7647,-1.7647,-1.7375,-1.7647,-1.7559,-1.7288,-1.7112,-1.7112,-1.7112,-1.7112,-1.7112,-1.7112,-1.7112,-1.6753,-1.6313,-1.6049,-1.5697,-1.5344,-1.4734,-1.4734,-1.508,-1.5344,-1.6137,-1.7375,-1.9268,-2.1656,-2.4518,-2.8212,-3.1334,-3.436,-3.7671,-4.0632,-4.2972,-4.431,-4.6022,-4.7251,-4.7251,-4.7752,-4.8071,-4.8071,-4.8439,-4.8667,-4.8667,-4.8771,-4.8283,-4.6732,-4.5978,-4.5688,-4.5717,-4.5251,-4.4291,-4.2659,-4.2742,-4.2262,-4.1145,-4.106,-4.106,-4.106,-4.1189,-4.1413,-4.1751,-4.2414,-4.2876,-2.7523,-2.7363,-2.7331,-2.5716,-2.7036,-2.8661,-2.8104,-2.8305,-2.8339,-2.7696,-2.7066,-2.6591,-2.6591,-2.6591,-2.7343,-2.9672,-3.0406,-3.128,-3.2876,-3.083,-2.9037,-2.8548,-2.5342,-2.3544,-2.4387,-2.3994,-2.3832,-2.4291,-2.4829,-2.5012,-2.4657,-2.4738,-2.4555,-2.3924,-2.3005,-2.2278,-2.1908,-2.1631,-2.1182,-2.0658,-2.0582,-2.0097,-1.9323,-1.8725,-1.8252,-1.7735,-1.7288,-1.7112,0.0,-1.7375,-1.7375,-1.7112,-1.7375,-1.7375,-1.7112,-1.7112,-1.7112,-1.7112,-1.7112,-1.7112,-1.7112,-1.7112,-1.6665,-1.6049,-1.5352,-1.4999,-1.4646,-1.4387,-1.4476,-1.4734,-1.4734,-1.5256,-1.6305,-1.8226,-2.0627,-2.3598,-2.7297,-3.0913,-3.4432,-3.7826,-4.1286,-4.4044,-4.5637,-4.7512,-4.8907,-4.8907,-4.8907,-4.8907,-4.8907,-4.8907,-4.8986,-4.9144,-4.9381,-4.9327,-4.9018,-4.8427,-4.7964,-4.7847,-4.7288,-4.6223,-4.4618,-4.4618,-4.4126,-4.2991,-4.2991,-4.2761,-4.2281,-4.1947,-4.2031,-4.2415,-4.3121,-4.3509,0.0,-2.9629,-2.9398,-2.8286,-2.8793,-2.9686,-3.0004,-2.9007,0.0,-2.8291,-2.7511,-2.6828,-2.6902,-2.6792,-2.7087,-2.8079,-2.914,-2.9775,-2.9438,-3.0013,-3.0338,-3.0055,-2.7574,-2.645,-2.7599,-2.5446,-2.4269,-2.4635,-2.5195,-2.556,-2.5468,-2.5012,-2.4818,-2.4727,-2.3832,-2.2913,-2.2001,-2.1908,-2.1515,-2.0837,-2.0648,-2.0172,-1.9505,-1.8884,-1.8269,-1.7822,-1.7288,-1.7112,-1.7112,-1.7112,-1.7112,-1.7112,-1.7112,-1.7112,-1.7112,-1.7112,-1.7112,-1.7112,-1.7112,-1.7112,-1.7112,-1.7024,-1.6409,-1.5528,-1.4564,-1.4299,-1.4299,-1.4299,-1.4299,-1.4299,-1.4299,-1.4646,-1.5433,-1.7192,-1.9823,-2.2945,-2.6672,-3.0534,-3.4401,-3.8152,-4.1453,-4.4126,-4.5961,-4.7773,-4.8907,-4.8907,-4.8907,-4.8907,-4.8986,-4.8986,-4.9065,-4.9538,-4.9617,-4.9774,-5.0244,-5.0244,-4.9752,-4.8425,-4.8425,-4.7789,-4.6465,-4.6384,-4.6304,-4.6223,-4.6223,-4.5657,-4.4454,-4.362,-4.3348,-4.3776,-4.4128,-4.4318,-3.0206,0.0,-3.0731,-2.9233,-2.9305,-2.9776,0.0,-2.9903,-2.9789,-2.9562,-2.9303,-2.9246,-2.9659,-2.8932,-2.9165,-3.193,-3.2625,-3.2594,-3.1983,-2.8677,-2.6765,-2.781,-2.4834,-2.4263,-2.8087,-2.5487,-2.3649,-2.374,-2.4463,-2.4829,-2.4474,-2.4646,-2.4646,-2.4291,-2.3659,-2.3107,-2.2452,-2.2093,-2.1515,-2.0837,-2.079,-2.0492,-2.0046,-1.9106,-1.8567,-1.8252,-1.7463,-1.7112,-1.7112,-1.7112,-1.7112,-1.7112,-1.7112,-1.7112,-1.7112,-1.7112,-1.7112,-1.7112,-1.7112,-1.7112,-1.7024,-1.6233,-1.5881,-1.5528,-1.4564,-1.4299,-1.4299,-1.4299,-1.4299,-1.4299,-1.4299,-1.4646,-1.5168,-1.5969,-1.8496,-2.1628,-2.4856,-2.8943,-3.3327,-3.757,-4.1184,-4.4126,-4.5961,-4.7773,-4.8907,-4.8907,-4.8907,-4.8986,-4.9302,-4.9381,-4.9538,-5.0009,-5.0322,-5.0555,-5.0633,-5.0633,-5.0533,-5.0221,-5.0455,-4.9886,-4.8244,-4.8187,-4.7528,-4.6223,-4.6223,-4.6223,-4.6182,-4.5408,-4.5012,-4.5122,-4.494,-4.4674,-3.0227,-3.1744,-3.3049,-3.1718,-3.1678,-3.2148,-3.2683,-3.1445,-3.0327,-3.0599,-3.0276,-3.0134,-3.0882,-2.9069,-2.9067,-3.3914,-3.1791,-3.023,-3.2507,-3.1732,-3.0359,-2.8719,-2.6948,-2.5845,-2.5597,-2.4301,-2.3362,-2.3362,-2.4097,-2.4372,-2.4097,-2.4188,-2.3994,-2.3822,-2.3281,-2.2913,-2.2637,-2.2083,-2.1563,-2.0989,-2.0885,-2.0677,-2.0276,-1.9284,-1.869,-1.8427,-1.7551,-1.7112,-1.7112,-1.7112,-1.7112,-1.7112,-1.7112,-1.7112,-1.7112,-1.7112,-1.7112,-1.7112,-1.7112,-1.7112,-1.6936,-1.5969,-1.5704,-1.5528,-1.4564,-1.4299,-1.4299,-1.4299,-1.4299,-1.4299,-1.4299,-1.4646,-1.508,-1.5616,-1.8089,-2.1245,-2.4251,-2.8543,-3.3054,-3.733,-4.11,-4.4126,-4.5961,-4.7773,-4.8907,-4.8907,-4.9065,-4.9223,-4.946,-4.9695,-5.0009,-5.04,-5.0633,-5.0866,-5.1021,-5.1122,-5.1122,-5.1122,-5.1277,-5.1021,-5.0042,-4.9964,-4.955,-4.8583,-4.8165,-4.8064,-4.828,-4.7733,-4.7047,-4.6168,-4.6241,-4.5644,-3.0698,-3.27,-3.4588,-3.3852,-3.4284,-3.509,-3.5908,-3.325,-3.0924,-3.1907,-3.1383,-3.0861,-3.1238,-2.9368,-2.9511,-3.4776,-2.9971,-2.6904,-3.0913,-3.3855,-3.4031,-3.002,-2.9404,-2.7597,-2.3087,-2.2903,-2.3025,-2.3025,-2.3525,-2.3913,-2.3913,-2.3444,-2.3271,-2.3271,-2.2729,-2.2452,-2.2452,-2.2083,-2.1631,-2.1168,-2.0979,-2.069,-2.0402,-1.9285,-1.8734,-1.8383,-1.7471,-1.7112,-1.7112,-1.7112,-1.7112,-1.7112,-1.7112,-1.7112,-1.7112,-1.7112,-1.7112,-1.7112,-1.7112,-1.7024,-1.6849,-1.5969,-1.5616,-1.544,-1.4564,-1.4299,-1.4299,-1.4299,-1.4299,-1.4299,-1.4299,-1.4646,-1.508,-1.5616,-1.8148,-2.1343,-2.4273,-2.8634,-3.3203,-3.7347,-4.11,-4.4126,-4.5961,-4.7773,-4.8907,-4.8986,-4.9302,-4.9538,-4.9695,-5.0087,-5.0478,-5.0866,-5.0866,-5.1021,-5.1354,-5.1431,-5.1431,-5.1431,-5.1431,-5.1431,-5.1431,-5.1431,-5.1485,-5.1485,-5.0821,-5.0543,-5.0543,-4.9984,-4.9031,-4.7641,-4.7651,-4.6817,-3.2833,-3.2356,-3.1476,-3.245,-3.4393,-3.5885,-3.5168,-3.4523,-3.4087,-3.4295,-3.4509,-3.3874,-3.1291,-3.3836,-3.5997,-3.5065,-3.2466,-2.9424,-2.5958,-2.4363,-2.4605,-2.7566,-2.4313,-2.2923,-2.5819,-2.3179,-2.126,-2.126,-2.225,-2.2821,-2.2821,-2.2729,-2.2729,-2.2729,-2.2268,-2.2001,-2.2001,-2.1908,-2.1631,-2.1168,-2.113,-2.0824,-2.0153,-1.941,-1.8766,-1.8131,-1.7441,-1.7112,-1.7112,-1.7112,-1.7112,-1.7112,-1.7112,-1.7112,-1.7112,-1.7112,-1.7112,-1.7112,-1.7112,-1.6841,-1.6401,-1.5881,-1.544,-1.4999,-1.4476,-1.4299,-1.4299,-1.4299,-1.4299,-1.4299,-1.4299,-1.4646,-1.508,-1.5616,-1.8055,-2.1166,-2.424,-2.8478,-3.2934,-3.7382,-4.11,-4.4126,-4.5961,-4.7773,-4.8986,-4.9381,-4.946,-4.9774,-5.0478,-5.0633,-5.0866,-5.1277,-5.1354,-5.1354,-5.1431,-5.1431,-5.1431,-5.1431,-5.1431,-5.1431,-5.1431,-5.1716,-5.1947,-5.1947,-5.2154,-5.236,-5.2764,-5.1254,-5.0781,-5.1244,-4.8698,-4.7464,-3.1984,-3.2779,-3.3043,-3.2254,-3.2567,-3.3047,-3.3132,-3.1953,-3.1444,-3.3596,-3.3847,-3.3437,-3.2515,-3.26,-3.1287,-2.6703,-3.0335,-3.2122,-2.7682,-2.8728,-2.9647,-2.8547,-2.6162,-2.4085,-2.2851,-2.137,-2.0482,-2.0482,-2.1321,-2.1816,-2.1816,-2.1816,-2.1714,-2.1427,-2.1137,-2.0861,-2.0696,-2.0861,-2.1055,-2.1168,-2.1168,-2.0778,-2.0107,-1.9454,-1.872,-1.8085,-1.7362,-1.7112,-1.7112,-1.7112,-1.7112,-1.7112,-1.7112,-1.7112,-1.7112,-1.7112,-1.7112,-1.7112,-1.7112,-1.6753,-1.6313,-1.5881,-1.5352,-1.4911,-1.4476,-1.4299,-1.4299,-1.4299,-1.4299,-1.4387,-1.4646,-1.4999,-1.5521,-1.6313,-1.8893,-2.2063,-2.5044,-2.9259,-3.3868,-3.8101,-4.1686,-4.4556,-4.6387,-4.8092,-4.9302,-4.946,-4.9931,-5.0322,-5.0711,-5.1021,-5.1199,-5.1354,-5.1431,-5.1431,-5.1431,-5.1431,-5.1431,-5.1431,-5.1431,-5.1508,-5.1716,-5.187,-5.2077,-5.2307,-5.2688,-5.2992,-5.3243,-5.3229,-5.2822,-5.1996,-5.1419,-5.0544,-3.1433,-3.2718,-3.3595,-3.2636,-3.2305,-3.2088,-3.1584,-2.9896,-2.9117,-3.1561,-3.1559,-3.1438,-3.2607,-3.1098,-2.7962,-2.295,-2.8537,-3.1984,-2.7599,-3.0712,-3.1855,-2.7349,-2.6354,-2.4195,-1.9312,-1.9381,-1.9779,-1.9861,-2.0557,-2.1075,-2.1168,-2.1075,-2.077,-2.0335,-2.0098,-1.9795,-1.9534,-1.9804,-2.0309,-2.0973,-2.1168,-2.0806,-1.9997,-1.9381,-1.8656,-1.7965,-1.7386,-1.7112,-1.7112,-1.7112,-1.7112,-1.7112,-1.7112,-1.7112,-1.7112,-1.7112,-1.7112,-1.7112,-1.6936,-1.6665,-1.6137,-1.5704,-1.5264,-1.4734,-1.4387,-1.4299,-1.4299,-1.4476,-1.4476,-1.4564,-1.4734,-1.5352,-1.6137,-1.7008,-1.9841,-2.3076,-2.6034,-3.0244,-3.475,-3.8818,-4.2122,-4.4883,-4.679,-4.841,-4.9538,-4.9774,-5.04,-5.0789,-5.0944,-5.1199,-5.1431,-5.1431,-5.1431,-5.1431,-5.1431,-5.1508,-5.1562,-5.1562,-5.1562,-5.1716,-5.2077,-5.223,-5.2459,-5.2764,-5.3143,-5.3295,-5.3295,-5.4487,-5.4164,-5.2643,-5.3428,-5.2908,-3.3132,-3.1335,-2.9661,-3.351,-3.6248,-3.6729,-3.1804,-3.0941,-3.0671,-2.883,-2.8129,-2.8263,-2.9735,-3.2142,-3.3606,-3.2788,-3.0221,-2.6104,-2.0023,-2.0098,-2.0517,-1.987,-1.9231,-1.867,-1.8199,-1.8377,-1.8669,-1.9112,-2.0006,-2.0696,-2.1168,-2.0696,-2.0326,-2.0144,-1.9659,-1.9388,-1.9138,-1.9379,-1.9748,-2.0501,-2.0973,-2.0696,-1.9732,-1.9261,-1.8544,-1.7599,-1.7258,-1.7112,-1.7112,-1.7112,-1.7112,-1.7112,-1.7112,-1.7112,-1.7112,-1.7112,-1.7112,-1.7024,-1.6577,-1.6137,-1.5704,-1.5175,-1.4734,-1.4299,-1.4299,-1.4299,-1.4387,-1.4822,-1.4903,-1.4822,-1.4476,-1.5352,-1.6577,-1.7543,-2.0283,-2.3609,-2.6947,-3.0986,-3.5114,-3.8903,-4.2122,-4.4965,-4.7192,-4.8648,-4.9774,-5.0555,-5.0789,-5.0944,-5.1354,-5.1354,-5.1431,-5.1431,-5.1431,-5.1431,-5.1431,-5.1716,-5.1947,-5.1947,-5.1947,-5.2154,-5.2535,-5.2916,-5.3167,-5.3167,-5.3521,-5.3747,-5.3747,-5.3894,-5.4083,-5.4363,-5.2891,-5.2284,-3.18,-3.0072,-2.889,-3.2784,-3.4718,-3.4173,-2.8662,-2.765,-2.8786,-3.196,-2.8808,-2.6608,-3.0421,-2.7046,-2.4741,-2.813,-2.4737,-2.1027,-1.8919,-1.8716,-1.8677,-1.8489,-1.7957,-1.7606,-1.7491,-1.8015,-1.8553,-1.9094,-1.9905,-2.0594,-2.1168,-2.0696,-2.0132,-1.9659,-1.9079,-1.8621,-1.8183,-1.8411,-1.8759,-1.9132,-1.993,-1.986,-1.9201,-1.8823,-1.8282,-1.7624,-1.7266,-1.7112,-1.7112,-1.7112,-1.7112,-1.7112,-1.7112,-1.7112,-1.7112,-1.7112,-1.7112,-1.7024,-1.6577,-1.6049,-1.5616,-1.5175,-1.4646,-1.4387,-1.4646,-1.4734,-1.4822,-1.5264,-1.5609,-1.5873,-1.5609,-1.6225,-1.7304,-1.935,-2.1961,-2.5136,-2.8916,-3.2703,-3.6502,-4.0108,-4.3118,-4.5677,-4.7672,-4.928,-5.04,-5.0789,-5.1021,-5.1254,-5.1354,-5.1431,-5.1431,-5.1431,-5.1431,-5.1508,-5.1716,-5.1947,-5.223,-5.2688,-5.2535,-5.2535,-5.2992,-5.3143,-5.3295,-5.3596,-5.3747,-5.3822,-5.3822,-5.4159,-5.4255,-5.4135,-5.4069,-5.4051,-2.9327,-2.9045,-2.9016,-3.0596,-3.2497,-3.2373,-2.6164,-2.5886,-2.7527,-2.9624,-2.6978,-2.5467,-2.9139,-2.416,-2.0872,-2.483,-2.1189,-1.8004,-1.8262,-1.8203,-1.804,-1.7848,-1.7476,-1.725,-1.712,-1.7705,-1.8372,-1.9094,-1.9721,-2.0408,-2.0881,-2.0417,-1.9828,-1.9114,-1.844,-1.7952,-1.7478,-1.777,-1.7982,-1.8116,-1.8692,-1.8937,-1.8744,-1.8431,-1.8017,-1.7543,-1.7242,-1.7112,-1.7112,-1.7112,-1.7112,-1.7112,-1.7112,-1.7112,-1.7112,-1.7112,-1.7112,-1.7024,-1.6401,-1.5961,-1.5616,-1.4999,-1.4564,-1.4387,-1.4822,-1.4992,-1.5168,-1.5793,-1.6137,-1.6489,-1.6753,-1.7279,-1.8374,-2.0676,-2.3347,-2.6406,-3.029,-3.3925,-3.7466,-4.095,-4.386,-4.6345,-4.815,-4.9752,-5.0866,-5.0944,-5.1199,-5.1431,-5.1431,-5.1431,-5.1431,-5.1562,-5.1562,-5.1716,-5.2154,-5.2307,-5.2612,-5.3167,-5.3068,-5.3143,-5.337,-5.337,-5.3521,-5.3822,-5.3822,-5.3822,-5.3822,-5.4183,-5.4183,-5.3822,-5.4415,-5.4483,-2.6133,-2.8143,-2.9806,-2.7062,-3.0432,-3.2474,-2.5035,-2.6603,-2.7529,-1.999,-2.1957,-2.4927,-2.4927,-2.4843,-2.4927,-2.5203,-2.0851,-1.7388,-1.7388,-1.7388,-1.7315,-1.7128,-1.7112,-1.7112,-1.7112,-1.7429,-1.8002,-1.9004,-1.9455,-1.9944,-2.0408,-1.9944,-1.9314,-1.8389,-1.792,-1.7469,-1.7112,-1.7291,-1.7388,-1.7388,-1.7559,-1.7911,-1.8372,-1.8178,-1.7826,-1.738,-1.7193,-1.7112,-1.7112,-1.7112,-1.7112,-1.7112,-1.7112,-1.7112,-1.7112,-1.7112,-1.7112,-1.6936,-1.6057,-1.5704,-1.5528,-1.4653,-1.4299,-1.4387,-1.4822,-1.4992,-1.5168,-1.6137,-1.6401,-1.6665,-1.7559,-1.8514,-1.96,-2.1291,-2.4062,-2.7322,-3.0843,-3.4374,-3.7826,-4.095,-4.4126,-4.687,-4.8569,-4.9931,-5.0944,-5.1354,-5.1431,-5.1431,-5.1431,-5.1431,-5.1562,-5.1947,-5.2024,-5.2154,-5.2588,-5.2992,-5.3243,-5.3243,-5.3596,-5.3822,-5.3822,-5.3822,-5.3822,-5.3822,-5.3822,-5.3822,-5.3822,-5.3822,-5.3822,-5.3822,-5.337,-5.3243,-3.0392,-2.7682,-2.6155,-2.9953,-2.9107,-2.6743,-2.4839,-2.5067,-2.4226,-1.8694,-2.2315,-2.6179,-2.5108,-2.1915,-2.0623,-2.4383,-2.0616,-1.7193,-1.7193,-1.7193,-1.7169,-1.712,-1.7112,-1.7112,-1.7112,-1.7323,-1.7788,-1.8544,-1.8875,-1.9248,-1.9851,-1.9358,-1.8809,-1.8389,-1.7804,-1.7348,-1.7112,-1.7169,-1.7193,-1.7193,-1.7242,-1.7494,-1.7821,-1.764,-1.7567,-1.738,-1.7193,-1.7112,-1.7112,-1.7112,-1.7112,-1.7112,-1.7112,-1.7112,-1.7112,-1.7112,-1.7112,-1.6936,-1.6057,-1.5704,-1.5528,-1.4653,-1.4299,-1.4476,-1.5264,-1.5528,-1.5704,-1.6673,-1.7112,-1.7639,-1.8514,-1.9728,-2.1025,-2.2631,-2.5407,-2.8837,-3.2514,-3.5761,-3.8785,-4.1974,-4.4782,-4.717,-4.8648,-5.0165,-5.1277,-5.1354,-5.1431,-5.1431,-5.1431,-5.1639,-5.187,-5.2024,-5.223,-5.2612,-5.2992,-5.3167,-5.3295,-5.3596,-5.3747,-5.3822,-5.3822,-5.3822,-5.3822,-5.3822,-5.3822,-5.3822,-5.3822,-5.3822,-5.3822,-5.3822,-5.337,-5.3243,-2.822,-2.6229,-2.5271,-2.65,-2.5191,-2.3336,-2.2281,-2.1621,-2.0552,-1.7651,-2.0326,-2.2912,-2.1989,-1.9191,-1.8113,-2.1251,-1.9191,-1.7112,-1.7112,-1.7112,-1.7112,-1.7112,-1.7112,-1.7112,-1.7112,-1.7283,-1.764,-1.8364,-1.855,-1.8911,-1.9387,-1.8937,-1.8467,-1.8109,-1.7657,-1.7299,-1.7112,-1.6936,-1.6841,-1.6841,-1.6841,-1.6952,-1.7152,-1.7234,-1.7274,-1.7266,-1.7161,-1.7112,-1.7112,-1.7112,-1.7112,-1.7112,-1.7112,-1.7112,-1.7112,-1.7112,-1.7112,-1.6936,-1.6057,-1.5704,-1.5528,-1.4653,-1.4299,-1.4476,-1.544,-1.5704,-1.5881,-1.6849,-1.7463,-1.8085,-1.9204,-2.0675,-2.2339,-2.4129,-2.6696,-2.9735,-3.377,-3.6707,-3.9466,-4.2659,-4.5352,-4.7629,-4.8864,-5.04,-5.1431,-5.1431,-5.1431,-5.1431,-5.1639,-5.187,-5.2077,-5.2459,-5.2688,-5.2992,-5.337,-5.3446,-5.3521,-5.3822,-5.3822,-5.3822,-5.3822,-5.3822,-5.3822,-5.3822,-5.3822,-5.3822,-5.3822,-5.3822,-5.3747,-5.3521,-5.3143,-5.284,-2.2847,-2.4307,-2.5855,-1.9452,-2.0119,-2.1477,-1.8443,-1.7463,-1.7112,-1.7112,-1.7112,-1.7112,-1.7112,-1.7112,-1.7024,-1.7024,-1.7024,-1.6936,-1.6936,-1.6936,-1.7024,-1.7024,-1.7024,-1.7024,-1.7112,-1.7266,-1.7624,-1.8273,-1.8533,-1.8702,-1.8803,-1.8727,-1.8259,-1.7624,-1.7453,-1.7283,-1.7024,-1.6577,-1.6401,-1.6313,-1.6313,-1.6313,-1.6313,-1.6849,-1.7112,-1.7112,-1.7112,-1.7112,-1.7112,-1.7112,-1.7112,-1.7112,-1.7112,-1.7112,-1.7112,-1.7112,-1.7112,-1.6936,-1.6057,-1.5704,-1.5528,-1.4653,-1.4299,-1.4476,-1.5352,-1.5704,-1.5881,-1.6849,-1.7463,-1.8252,-1.964,-2.1455,-2.3464,-2.595,-2.8008,-3.0531,-3.4759,-3.7397,-3.9957,-4.3156,-4.586,-4.8028,-4.9258,-5.0533,-5.1431,-5.1431,-5.1408,-5.1562,-5.2024,-5.2077,-5.2383,-5.3096,-5.3195,-5.337,-5.3675,-5.3798,-5.3822,-5.3822,-5.3822,-5.3822,-5.3822,-5.3822,-5.3822,-5.3822,-5.3822,-5.3822,-5.3822,-5.3822,-5.3596,-5.3167,-5.2764,-5.2383,-2.7557,-2.4707,-2.2269,-2.1166,-1.9889,-1.8649,-1.7955,-1.7463,-1.7112,-1.7112,-1.7112,-1.7112,-1.7112,-1.6841,-1.6577,-1.6577,-1.6233,-1.5969,-1.5969,-1.5969,-1.6145,-1.6489,-1.6577,-1.6665,-1.7024,-1.7145,-1.7299,-1.7714,-1.7771,-1.796,-1.8149,-1.7985,-1.7706,-1.7445,-1.7266,-1.6969,-1.6577,-1.6489,-1.6225,-1.5881,-1.5881,-1.5881,-1.5881,-1.6761,-1.7112,-1.7112,-1.7112,-1.7112,-1.7112,-1.7112,-1.7112,-1.7112,-1.7112,-1.7112,-1.7112,-1.7112,-1.7112,-1.6936,-1.6057,-1.5704,-1.5528,-1.4653,-1.4299,-1.4387,-1.4999,-1.544,-1.5881,-1.6849,-1.7989,-1.9204,-2.0675,-2.2654,-2.4882,-2.7521,-2.9752,-3.2259,-3.587,-3.8357,-4.0819,-4.3672,-4.6022,-4.8028,-4.9258,-5.0533,-5.1508,-5.1793,-5.187,-5.2024,-5.2459,-5.2764,-5.285,-5.2597,-5.3207,-5.3579,-5.3269,-5.3606,-5.3822,-5.3822,-5.3822,-5.3822,-5.3822,-5.3822,-5.3822,-5.3822,-5.3822,-5.3822,-5.3822,-5.3822,-5.3596,-5.3167,-5.2764,-5.2383,-2.6395,-2.4552,-2.3113,-1.9463,-1.8042,-1.7367,-1.72,-1.7112,-1.7024,-1.6841,-1.6928,-1.7024,-1.6841,-1.6577,-1.6313,-1.6137,-1.5881,-1.5704,-1.5704,-1.5704,-1.5793,-1.6049,-1.6225,-1.6489,-1.6753,-1.6936,-1.7258,-1.7616,-1.764,-1.7721,-1.7908,-1.7737,-1.7559,-1.7396,-1.7025,-1.6665,-1.6401,-1.5961,-1.5609,-1.5352,-1.5352,-1.544,-1.5704,-1.6401,-1.6928,-1.7112,-1.7112,-1.7112,-1.7112,-1.7112,-1.7112,-1.7112,-1.7112,-1.7112,-1.7112,-1.6841,-1.6753,-1.6665,-1.5704,-1.5352,-1.5264,-1.4564,-1.4299,-1.4387,-1.5087,-1.5352,-1.5616,-1.7024,-1.8331,-1.9631,-2.1445,-2.3686,-2.6068,-2.891,-3.0923,-3.3087,-3.626,-3.8918,-4.1407,-4.4084,-4.6366,-4.8288,-4.9573,-5.0844,-5.1793,-5.1947,-5.1944,-5.2008,-5.2462,-5.2475,-5.2437,-5.2347,-5.2784,-5.298,-5.2716,-5.2932,-5.3077,-5.3077,-5.3077,-5.3077,-5.3077,-5.3317,-5.3582,-5.3822,-5.3822,-5.3822,-5.3822,-5.3596,-5.3295,-5.2916,-5.2535,-5.2077,-2.4025,-2.3823,-2.3871,-1.6947,-1.5938,-1.6665,-1.6313,-1.6577,-1.6761,-1.6401,-1.6665,-1.6841,-1.6401,-1.6225,-1.6049,-1.5616,-1.5528,-1.544,-1.544,-1.544,-1.5528,-1.5528,-1.5961,-1.6313,-1.6401,-1.6841,-1.725,-1.7575,-1.7599,-1.7664,-1.7819,-1.7681,-1.7518,-1.7348,-1.6744,-1.6401,-1.6313,-1.5433,-1.4992,-1.4911,-1.4911,-1.5087,-1.5616,-1.6049,-1.6577,-1.7024,-1.7024,-1.7112,-1.7112,-1.7112,-1.7112,-1.7112,-1.7112,-1.7112,-1.7024,-1.6577,-1.6401,-1.6313,-1.5344,-1.4992,-1.4911,-1.4564,-1.4387,-1.4564,-1.5352,-1.544,-1.5697,-1.7375,-1.8681,-2.0134,-2.2481,-2.4714,-2.7161,-3.0128,-3.1955,-3.3715,-3.6626,-3.9263,-4.1899,-4.4477,-4.6888,-4.8921,-5.0187,-5.1193,-5.1861,-5.1897,-5.1826,-5.1919,-5.2315,-5.2009,-5.1846,-5.2139,-5.2235,-5.2235,-5.2163,-5.2235,-5.2283,-5.2283,-5.2283,-5.2283,-5.2283,-5.2692,-5.3173,-5.3678,-5.3774,-5.3822,-5.3822,-5.337,-5.2992,-5.2588,-5.2154,-5.1793,-2.584,-2.2322,-1.8572,-1.6475,-1.5593,-1.5344,-1.5704,-1.5881,-1.5881,-1.5793,-1.6137,-1.6313,-1.5881,-1.544,-1.5168,-1.508,-1.4734,-1.4476,-1.4476,-1.4476,-1.4653,-1.5087,-1.5528,-1.5969,-1.6401,-1.6841,-1.7201,-1.7404,-1.7421,-1.7429,-1.7461,-1.7437,-1.7339,-1.7153,-1.6681,-1.6225,-1.5793,-1.5264,-1.4822,-1.4387,-1.4387,-1.4646,-1.508,-1.5616,-1.6057,-1.6489,-1.6936,-1.7112,-1.7112,-1.7112,-1.7112,-1.7112,-1.7112,-1.7112,-1.7024,-1.6577,-1.6401,-1.6313,-1.5344,-1.4992,-1.4992,-1.4911,-1.4911,-1.4911,-1.508,-1.5873,-1.6936,-1.763,-1.937,-2.1531,-2.3858,-2.6151,-2.8446,-3.0832,-3.3182,-3.546,-3.7325,-3.9785,-4.2327,-4.4583,-4.7712,-5.0164,-5.0964,-5.1198,-5.1413,-5.1615,-5.1645,-5.1818,-5.2233,-5.2234,-5.2018,-5.1634,-5.1994,-5.2091,-5.1634,-5.2018,-5.2283,-5.2283,-5.2283,-5.2283,-5.2283,-5.2355,-5.262,-5.3149,-5.3606,-5.3822,-5.3822,-5.337,-5.2992,-5.2588,-5.2154,-5.1793,-2.6232,-2.2754,-1.905,-1.6664,-1.6102,-1.6049,-1.544,-1.5528,-1.5616,-1.5352,-1.5433,-1.5521,-1.5352,-1.5168,-1.4903,-1.4646,-1.4476,-1.4299,-1.4299,-1.4299,-1.4387,-1.4557,-1.5264,-1.5793,-1.5969,-1.6673,-1.7185,-1.7372,-1.7388,-1.7388,-1.7388,-1.7388,-1.7299,-1.712,-1.6409,-1.5881,-1.5704,-1.4999,-1.4476,-1.4299,-1.4299,-1.4387,-1.4646,-1.5352,-1.5969,-1.6401,-1.6928,-1.7112,-1.7112,-1.7112,-1.7112,-1.7112,-1.7112,-1.6928,-1.6665,-1.6137,-1.5873,-1.5521,-1.4822,-1.4822,-1.4992,-1.4646,-1.4999,-1.544,-1.5697,-1.6401,-1.7447,-1.8934,-2.0665,-2.2568,-2.4885,-2.7181,-2.9384,-3.1369,-3.3638,-3.5848,-3.7548,-3.9936,-4.2676,-4.576,-4.8157,-4.9958,-5.0712,-5.1166,-5.1467,-5.16,-5.1631,-5.1585,-5.1826,-5.1586,-5.1297,-5.1081,-5.1249,-5.1297,-5.1056,-5.1273,-5.1393,-5.1393,-5.1393,-5.1393,-5.1393,-5.1682,-5.1946,-5.2187,-5.298,-5.3534,-5.3822,-5.2934,-5.2481,-5.2588,-5.1622,-5.1286,-2.6123,-2.4094,-2.1795,-1.8008,-1.7459,-1.7423,-1.5564,-1.5264,-1.5264,-1.4911,-1.4822,-1.4822,-1.4822,-1.4822,-1.4734,-1.4387,-1.4299,-1.4299,-1.4299,-1.4299,-1.4299,-1.4299,-1.4999,-1.5528,-1.5704,-1.6409,-1.6993,-1.7307,-1.7315,-1.7315,-1.7315,-1.7315,-1.7162,-1.6936,-1.6145,-1.5616,-1.5528,-1.4741,-1.4299,-1.4299,-1.4299,-1.4299,-1.4299,-1.5175,-1.5697,-1.6049,-1.6753,-1.7112,-1.7112,-1.7112,-1.7112,-1.7112,-1.7112,-1.6841,-1.6313,-1.5881,-1.544,-1.5087,-1.4476,-1.4646,-1.4992,-1.4911,-1.5352,-1.6049,-1.6753,-1.7447,-1.8401,-2.0404,-2.205,-2.3846,-2.6176,-2.8376,-3.047,-3.2376,-3.4327,-3.6466,-3.8554,-4.0807,-4.3496,-4.6918,-4.8588,-4.9697,-5.0452,-5.1069,-5.1388,-5.1438,-5.1393,-5.1297,-5.1297,-5.096,-5.0696,-5.0696,-5.0696,-5.0696,-5.0696,-5.0696,-5.0696,-5.0696,-5.0696,-5.0696,-5.0696,-5.1081,-5.1345,-5.1489,-5.2259,-5.2908,-5.3437,-5.2234,-5.1859,-5.2212,-5.0984,-5.0719,-2.5796,-2.6143,-2.5855,-2.1222,-2.004,-1.9235,-1.6301,-1.5006,-1.4387,-1.4299,-1.4299,-1.4299,-1.4299,-1.4299,-1.4299,-1.4299,-1.4299,-1.4299,-1.4299,-1.4299,-1.4299,-1.4299,-1.4734,-1.5175,-1.5616,-1.6137,-1.6673,-1.712,-1.7128,-1.7128,-1.7128,-1.7128,-1.6944,-1.6489,-1.5969,-1.5528,-1.508,-1.4564,-1.4299,-1.4299,-1.4299,-1.4299,-1.4299,-1.4822,-1.508,-1.5168,-1.6489,-1.7112,-1.7112,-1.7112,-1.7112,-1.7112,-1.7112,-1.6841,-1.6313,-1.5881,-1.5704,-1.5528,-1.4653,-1.4646,-1.5168,-1.6049,-1.6313,-1.6665,-1.7972,-1.937,-2.0675,-2.1618,-2.3514,-2.5738,-2.8025,-3.0038,-3.1948,-3.4164,-3.5965,-3.7996,-4.099,-4.3227,-4.5404,-4.7564,-4.8945,-5.003,-5.0717,-5.0912,-5.0914,-5.0793,-5.0768,-5.0744,-5.0744,-5.072,-5.0696,-5.0696,-5.0696,-5.0696,-5.0696,-5.0696,-5.0696,-5.0696,-5.0696,-5.0696,-5.0696,-5.072,-5.0984,-5.1489,-5.1537,-5.1826,-5.2355,-5.1524,-5.1154,-5.1178,-5.0336,-5.0214,-2.598,-2.6168,-2.6077,-2.3278,-2.1727,-2.0492,-1.8801,-1.7036,-1.5521,-1.5264,-1.4741,-1.4299,-1.4299,-1.4299,-1.4299,-1.4299,-1.4299,-1.4299,-1.4299,-1.4299,-1.4299,-1.4299,-1.4734,-1.5168,-1.5616,-1.6137,-1.6577,-1.7024,-1.7112,-1.7112,-1.7112,-1.7112,-1.6841,-1.6401,-1.5969,-1.5352,-1.4564,-1.4387,-1.4299,-1.4299,-1.4299,-1.4299,-1.4299,-1.4822,-1.4992,-1.508,-1.5881,-1.6233,-1.6233,-1.6233,-1.6233,-1.6233,-1.6233,-1.6145,-1.5881,-1.544,-1.5264,-1.5175,-1.4911,-1.5264,-1.5961,-1.6657,-1.7447,-1.841,-1.9544,-2.0838,-2.2223,-2.3772,-2.5397,-2.7194,-2.9118,-3.0705,-3.2608,-3.5706,-3.7729,-3.9588,-4.1698,-4.3592,-4.5384,-4.7157,-4.8441,-4.9494,-5.0269,-5.0604,-5.077,-5.072,-5.0696,-5.0696,-5.0696,-5.0696,-5.0696,-5.0696,-5.0696,-5.0696,-5.0696,-5.0696,-5.0696,-5.0696,-5.0696,-5.0696,-5.0696,-5.0696,-5.0792,-5.0984,-5.0984,-5.1417,-5.2283,-5.1194,-5.0755,-5.1084,-4.992,-4.9663,-2.641,-2.7238,-2.7975,-2.6439,-2.482,-2.3329,-2.2212,-1.9886,-1.7613,-1.684,-1.5793,-1.4999,-1.4829,-1.4476,-1.4299,-1.4299,-1.4299,-1.4299,-1.4299,-1.4299,-1.4299,-1.4299,-1.4557,-1.4911,-1.544,-1.5873,-1.6401,-1.6841,-1.7024,-1.7112,-1.7112,-1.6928,-1.6577,-1.5961,-1.544,-1.4918,-1.4299,-1.4299,-1.4299,-1.4299,-1.4299,-1.4299,-1.4299,-1.4646,-1.4734,-1.4822,-1.5087,-1.544,-1.5704,-1.5704,-1.5704,-1.5704,-1.5881,-1.5704,-1.544,-1.5433,-1.5433,-1.5433,-1.5433,-1.6225,-1.7184,-1.7885,-1.8759,-1.9892,-2.1282,-2.2568,-2.3943,-2.5665,-2.7194,-2.8712,-3.022,-3.2031,-3.4164,-3.709,-3.9077,-4.0724,-4.2447,-4.3974,-4.548,-4.709,-4.8331,-4.9365,-5.0175,-5.0554,-5.0696,-5.0696,-5.0696,-5.0696,-5.0696,-5.0696,-5.0696,-5.0696,-5.0696,-5.0696,-5.0696,-5.0696,-5.0696,-5.0696,-5.0696,-5.0696,-5.0696,-5.0696,-5.0696,-5.0696,-5.0696,-5.1056,-5.1754,-5.0577,-5.0214,-5.0566,-4.9388,-4.9158,0.0,0.0,0.0,-3.0581,-2.9144,-2.7686,-2.6336,-2.3309,-2.0347,-1.8925,-1.7501,-1.6305,-1.5873,-1.4992,-1.438,-1.4387,-1.4299,-1.4299,-1.4299,-1.4299,-1.4299,-1.4299,-1.4299,-1.4476,-1.4903,-1.544,-1.5881,-1.6313,-1.6753,-1.7024,-1.7024,-1.6577,-1.5961,-1.4992,-1.4557,-1.4299,-1.4299,-1.4299,-1.4299,-1.4299,-1.4299,-1.4299,-1.4299,-1.4299,-1.4299,-1.4299,-1.4299,-1.4829,-1.5616,-1.5616,-1.5616,-1.5704,-1.6137,-1.5785,-1.5168,-1.6049,-1.6401,-1.6489,-1.6489,-1.7359,-1.8759,-1.9631,-2.0327,-2.1108,-2.3365,-2.4726,-2.575,-2.7194,-2.8796,-3.0386,-3.1316,-3.3854,-3.6529,-3.8206,-3.9845,-4.1578,-4.3213,-4.4579,-4.5832,-4.7434,-4.8694,-4.9723,-5.0554,-5.0696,-5.0696,-5.0696,-5.0696,-5.0696,-5.0696,-5.0696,-5.0696,-5.0696,-5.0696,-5.0696,-5.0696,-5.0696,-5.0696,-5.0696,-5.0696,-5.0696,-5.0696,-5.0696,-5.0696,-5.0696,-5.0696,-5.0696,-5.0696,-4.989,-4.9509,-4.9509,-4.874,-4.8653,-2.8838,0.0,0.0,0.0,0.0,0.0,-2.7357,-2.4919,-2.2433,-2.1502,-1.9921,-1.8441,-1.7586,-1.6979,-1.6253,-1.5418,-1.4741,-1.4299,-1.4299,-1.4299,-1.4299,-1.4299,-1.4299,-1.4476,-1.4903,-1.508,-1.5352,-1.5881,-1.5969,-1.6057,-1.6057,-1.5609,-1.5256,-1.4992,-1.4557,-1.4299,-1.4299,-1.4299,-1.4299,-1.4299,-1.4299,-1.4299,-1.4299,-1.4299,-1.4299,-1.4299,-1.4299,-1.4476,-1.4653,-1.4653,-1.4653,-1.4741,-1.4829,-1.5352,-1.5961,-1.5873,-1.6753,-1.7885,-1.7885,-1.8846,-2.024,-2.1531,-2.2406,-2.3451,-2.5421,-2.6431,-2.7279,-2.895,-2.9969,-3.1067,-3.2886,-3.4913,-3.685,-3.8286,-3.9845,-4.1578,-4.3213,-4.4805,-4.6299,-4.7918,-4.8933,-4.9723,-5.0554,-5.0696,-5.0696,-5.0696,-5.0696,-5.0696,-5.0696,-5.0696,-5.0696,-5.0696,-5.0696,-5.0696,-5.0696,-5.0696,-5.0696,-5.0696,-5.0696,-5.0696,-5.0696,-5.0696,-5.0696,-5.0696,-5.0696,-5.0696,-5.0696,-4.989,-4.9509,-4.9509,-4.874,-4.8653,0.0,0.0,0.0,-3.3273,0.0,0.0,-3.0741,-2.8303,-2.5597,-2.472,-2.2913,-2.1252,-2.0333,-1.9156,-1.8101,-1.7276,-1.6357,-1.5453,-1.4455,-1.4299,-1.4299,-1.4299,-1.4299,-1.4387,-1.4646,-1.4911,-1.508,-1.5352,-1.5616,-1.5616,-1.544,-1.5175,-1.4911,-1.4734,-1.4476,-1.4299,-1.4299,-1.4299,-1.4299,-1.4299,-1.4299,-1.4299,-1.4299,-1.4299,-1.4299,-1.4299,-1.4299,-1.4564,-1.4918,-1.4918,-1.4741,-1.4646,-1.4999,-1.5785,-1.6745,-1.7016,-1.806,-1.9457,-1.9796,-2.0838,-2.2233,-2.3686,-2.4555,-2.5507,-2.7376,-2.8207,-2.888,-3.0303,-3.1316,-3.2391,-3.4376,-3.5821,-3.709,-3.8524,-4.0021,-4.1578,-4.3213,-4.488,-4.6448,-4.8086,-4.9029,-4.9723,-5.0554,-5.0696,-5.0696,-5.0696,-5.0696,-5.0696,-5.0696,-5.0696,-5.0696,-5.0696,-5.0696,-5.0696,-5.0696,-5.0696,-5.0696,-5.0696,-5.0696,-5.0696,-5.0696,-5.0696,-5.0696,-5.0696,-5.0696,-5.0625,-5.0483,-4.9795,-4.9365,-4.9005,-4.8595,-4.8538,-3.4993,-3.5843,0.0,0.0,-3.6251,0.0,-3.487,-3.2324,-2.9485,-2.8104,-2.6054,-2.4314,-2.3478,-2.1741,-2.0324,-1.9861,-1.9068,-1.7654,-1.4833,-1.4448,-1.4367,-1.4299,-1.4387,-1.4387,-1.4299,-1.4734,-1.4992,-1.4911,-1.5352,-1.5352,-1.4911,-1.4903,-1.4734,-1.4299,-1.4299,-1.4299,-1.4299,-1.4299,-1.4299,-1.4299,-1.4299,-1.4387,-1.4476,-1.4476,-1.4476,-1.4653,-1.4653,-1.5175,-1.5969,-1.6057,-1.5785,-1.5433,-1.6225,-1.692,-1.7613,-1.8934,-2.0066,-2.1108,-2.205,-2.3268,-2.4566,-2.5921,-2.6698,-2.7461,-2.923,-2.9969,-3.0553,-3.1482,-3.2736,-3.4131,-3.5693,-3.6483,-3.7268,-3.8859,-4.0178,-4.1501,-4.3136,-4.4805,-4.6448,-4.8086,-4.9029,-4.9723,-5.0554,-5.0696,-5.0696,-5.0696,-5.0696,-5.0696,-5.0696,-5.0696,-5.0696,-5.0696,-5.0696,-5.0696,-5.0696,-5.0696,-5.0696,-5.0696,-5.0696,-5.0696,-5.0696,-5.0696,-5.0696,-5.0696,-5.0696,-5.0483,-5.0104,-4.9723,-4.915,-4.8473,-4.84,-4.84,-3.8962,-3.9796,-4.0522,-3.7643,0.0,0.0,-3.4735,-3.3902,-3.3035,-2.9662,-2.747,-2.6005,-2.5508,-2.547,-2.5164,-2.4161,-2.3687,-2.1658,-1.6395,-1.5409,-1.4944,-1.4374,-1.4646,-1.4734,-1.4299,-1.4734,-1.4822,-1.4476,-1.4564,-1.4564,-1.4476,-1.4476,-1.4387,-1.4299,-1.4299,-1.4299,-1.4299,-1.4299,-1.4299,-1.4299,-1.4299,-1.4741,-1.544,-1.544,-1.5881,-1.6585,-1.6928,-1.7192,-1.7455,-1.8226,-1.806,-1.7271,-1.7447,-1.8497,-1.997,-2.0655,-2.1964,-2.3451,-2.4384,-2.5409,-2.6443,-2.787,-2.8628,-2.923,-3.0651,-3.1384,-3.1963,-3.3214,-3.4539,-3.5693,-3.6016,-3.6885,-3.7906,-3.856,-3.9726,-4.1035,-4.2754,-4.4407,-4.6077,-4.8013,-4.9029,-4.9723,-5.0554,-5.0696,-5.0696,-5.0696,-5.0696,-5.0696,-5.0696,-5.0696,-5.0696,-5.0696,-5.0696,-5.0696,-5.0696,-5.0696,-5.0696,-5.0696,-5.0696,-5.0696,-5.0696,-5.0696,-5.0696,-5.0696,-5.0696,-5.0483,-5.0104,-4.9723,-4.9317,-4.8908,-4.8546,-4.84,-4.238,-4.2842,-4.3432,-4.1772,0.0,0.0,0.0,-3.5983,-3.4325,-3.3945,-3.1279,-2.9101,-2.9705,-2.9161,-2.8256,-2.7068,-2.658,-2.5094,-2.1597,-1.9085,-1.7341,-1.6502,-1.6065,-1.565,-1.5221,-1.4861,-1.4564,-1.4299,-1.4299,-1.4299,-1.4299,-1.4299,-1.4476,-1.5006,-1.5264,-1.5616,-1.6049,-1.6313,-1.6401,-1.6401,-1.6401,-1.6745,-1.7447,-1.7447,-1.7964,-1.8828,-1.9081,-1.9516,-2.0211,-2.0982,-2.1414,-2.1435,-2.0298,-2.0828,-2.2395,-2.3073,-2.4531,-2.6163,-2.6842,-2.7688,-2.8712,-3.0038,-3.0636,-3.1052,-3.2391,-3.3214,-3.3935,-3.4865,-3.5757,-3.6483,-3.6965,-3.7525,-3.8243,-3.9035,-4.004,-4.1268,-4.2907,-4.4579,-4.6225,-4.8013,-4.9029,-4.9723,-5.0554,-5.0696,-5.0696,-5.0696,-5.0696,-5.0696,-5.0696,-5.0696,-5.0696,-5.0696,-5.0696,-5.0696,-5.0696,-5.0696,-5.0696,-5.0696,-5.0696,-5.0696,-5.0696,-5.0696,-5.0696,-5.0696,-5.0696,-5.0625,-5.0412,-4.9795,-4.9317,-4.9003,-4.8618,-4.84,0.0,0.0,0.0,0.0,0.0,-4.2385,0.0,0.0,0.0,-3.758,-3.4736,-3.2323,-3.3723,-3.2362,-3.0723,-2.9718,-2.9045,-2.824,-2.722,-2.4026,-2.1312,-1.9904,-1.8671,-1.7824,-1.7425,-1.6297,-1.5575,-1.5533,-1.5549,-1.5541,-1.5498,-1.5542,-1.5908,-1.6777,-1.7238,-1.7868,-1.8741,-1.9168,-1.9429,-1.9429,-1.9507,-1.9855,-2.0375,-2.0452,-2.0962,-2.1804,-2.1977,-2.2761,-2.3801,-2.4473,-2.5422,-2.6151,-2.3738,-2.3652,-2.4873,-2.5908,-2.7253,-2.8685,-2.937,-3.0038,-3.0871,-3.2211,-3.2705,-3.3116,-3.4278,-3.5092,-3.5757,-3.6241,-3.6724,-3.7268,-3.7924,-3.8322,-3.87,-3.9745,-4.0744,-4.1733,-4.3289,-4.488,-4.6448,-4.8086,-4.9029,-4.9723,-5.0554,-5.0696,-5.0696,-5.0696,-5.0696,-5.0696,-5.0696,-5.0696,-5.0696,-5.0696,-5.0696,-5.0696,-5.0696,-5.0696,-5.0696,-5.0696,-5.0696,-5.0696,-5.0696,-5.0696,-5.0696,-5.0696,-5.0696,-5.0696,-5.0696,-4.9961,-4.946,-4.9124,-4.8618,-4.84,0.0,0.0,0.0,0.0,-4.7999,0.0,0.0,0.0,-3.9696,-3.6737,0.0,-3.4423,-3.5111,0.0,0.0,-3.33,-3.2332,-3.1187,-3.0015,-2.9126,-2.7449,-2.4289,-2.2953,-2.2345,-2.2526,-2.1169,-2.0134,-1.9828,-2.0017,-1.9954,-1.9642,-1.9893,-2.0331,-2.0823,-2.11,-2.1546,-2.2063,-2.2471,-2.2632,-2.2632,-2.3135,-2.3733,-2.4608,-2.501,-2.5604,-2.6571,-2.7415,-2.7835,-2.8087,-2.9355,-2.9953,-2.9884,-2.7201,-2.6719,-2.7759,-2.9091,-2.9941,-3.0705,-3.1865,-3.2376,-3.2705,-3.4099,-3.4994,-3.5723,-3.6207,-3.6466,-3.6626,-3.7125,-3.7765,-3.8402,-3.8481,-3.9333,-4.0275,-4.0431,-4.1366,-4.2524,-4.3421,-4.4859,-4.6448,-4.8086,-4.9029,-4.9723,-5.0554,-5.0696,-5.0696,-5.0696,-5.0696,-5.0696,-5.0696,-5.0696,-5.0696,-5.0696,-5.0696,-5.0696,-5.0696,-5.0696,-5.0696,-5.0696,-5.0696,-5.0696,-5.0696,-5.0696,-5.0696,-5.0696,-5.0696,-5.0696,-5.0696,-5.0246,-4.9818,-4.9437,-4.874,-4.84,0.0,0.0,0.0,0.0,0.0,0.0,-4.316,0.0,-3.9656,-3.9738,0.0,0.0,0.0,0.0,0.0,0.0,-3.3801,-3.2863,-3.2037,-3.1471,-2.9988,-2.676,-2.562,-2.4736,-2.3806,-2.3155,-2.2608,-2.209,-2.2484,-2.2621,-2.2544,-2.3271,-2.4211,-2.521,-2.6054,-2.6877,-2.7574,-2.8077,-2.8244,-2.8244,-2.848,-2.8994,-2.9907,-3.0073,-3.0748,-3.193,-3.2258,-3.2601,-3.2943,-3.3774,-3.4115,-3.4115,-3.3677,-3.2729,-3.1625,-3.2463,-3.3381,-3.4294,-3.488,-3.5204,-3.5608,-3.6672,-3.7392,-3.7968,-3.8444,-3.8761,-3.8919,-3.9175,-3.9647,-4.0099,-4.0334,-4.0802,-4.1346,-4.181,-4.2734,-4.3649,-4.4482,-4.5683,-4.7112,-4.8427,-4.915,-4.9723,-5.0554,-5.0696,-5.0696,-5.0696,-5.0696,-5.0696,-5.0696,-5.0696,-5.0696,-5.0696,-5.0696,-5.0696,-5.0696,-5.0696,-5.0696,-5.0696,-5.0696,-5.0696,-5.0696,-5.0696,-5.0696,-5.0696,-5.0696,-5.0696,-5.0696,-5.0033,-4.9652,-4.9509,-4.8957,-4.8618,-5.1117,0.0,-5.2068,-4.9033,-4.7881,-4.6757,-4.4003,-4.163,-4.0476,-4.1987,-4.0546,0.0,0.0,0.0,-3.6826,-3.5711,0.0,-3.3926,-3.2958,-3.2685,-3.1918,-2.9916,-2.9354,-2.8377,-2.6518,-2.5962,-2.5718,-2.5682,-2.5711,-2.607,-2.6743,-2.784,-2.9105,-3.062,-3.1768,-3.2887,-3.3856,-3.4276,-3.4534,-3.4534,-3.4614,-3.5016,-3.5657,-3.5737,-3.6313,-3.724,-3.7399,-3.7654,-3.8007,-3.842,-3.8656,-3.8734,-3.9791,-3.891,-3.7073,-3.6487,-3.686,-3.7755,-3.7834,-3.8152,-3.8645,-3.9216,-3.9688,-4.0099,-4.049,-4.0724,-4.0958,-4.0958,-4.1346,-4.1868,-4.2176,-4.2483,-4.2866,-4.3497,-4.4256,-4.5009,-4.563,-4.667,-4.7772,-4.8694,-4.927,-4.9866,-5.0554,-5.0696,-5.0696,-5.0696,-5.0696,-5.0696,-5.0696,-5.0696,-5.0696,-5.0696,-5.0696,-5.0696,-5.0696,-5.0696,-5.0696,-5.0696,-5.0696,-5.0696,-5.0696,-5.0696,-5.0696,-5.0696,-5.0696,-5.0696,-5.0696,-5.0033,-4.958,-4.9509,-4.9029,-4.8691,-5.4006,-5.4456,-5.3922,-4.7881,-4.7263,-4.6813,-4.1924,-4.2553,-4.3732,-4.2008,-4.3424,-4.4518,-4.2778,-4.0786,-3.8803,-3.6947,-3.5843,0.0,0.0,-3.3014,-3.3927,-3.4659,-3.5163,-3.4592,-3.2539,-3.0888,-3.0517,-3.1687,-3.0801,-3.1189,-3.3366,-3.4272,-3.5624,-3.7685,-3.8576,-3.9453,-4.0453,-4.0858,-4.1089,-4.1089,-4.1589,-4.1762,-4.1839,-4.2241,-4.2393,-4.247,-4.2967,-4.3139,-4.3215,-4.3614,-4.3786,-4.3786,-4.428,-4.4677,-4.4581,-4.1383,-4.0238,-4.0316,-4.0822,-4.1229,-4.1539,-4.1616,-4.1868,-4.2196,-4.2196,-4.2273,-4.2273,-4.2273,-4.2887,-4.3497,-4.3573,-4.4407,-4.5256,-4.533,-4.5928,-4.6522,-4.6522,-4.7502,-4.845,-4.8838,-4.9509,-5.0175,-5.0625,-5.0696,-5.0696,-5.0696,-5.0696,-5.0696,-5.0696,-5.0696,-5.0696,-5.0696,-5.0696,-5.0696,-5.0696,-5.0696,-5.0696,-5.0696,-5.0696,-5.0696,-5.0696,-5.0696,-5.0696,-5.0696,-5.0696,-5.0696,-5.0696,-5.0246,-4.989,-4.9509,-4.874,-4.84,-5.5046,-5.5805,-5.5552,-5.0578,-4.9342,-4.8134,-4.3582,-4.3526,-4.3891,-4.2008,-4.3582,-4.4762,-4.2907,-4.1311,-3.9688,-3.7782,-3.6543,-3.4992,0.0,-3.3318,-3.413,-3.4432,-3.4572,-3.4259,-3.3267,-3.2987,-3.2965,-3.3265,-3.3367,-3.408,-3.5625,-3.8071,-3.9914,-4.082,-4.27,-4.3802,-4.4142,-4.4313,-4.4388,-4.4388,-4.456,-4.4785,-4.5009,-4.5158,-4.5403,-4.5627,-4.5775,-4.5871,-4.5871,-4.6019,-4.6041,-4.6093,-4.6507,-4.6802,-4.6655,-4.4431,-4.3849,-4.4075,-4.4247,-4.4344,-4.4494,-4.4795,-4.4945,-4.5095,-4.5415,-4.5468,-4.5468,-4.5468,-4.5714,-4.6011,-4.6233,-4.6603,-4.6994,-4.7332,-4.7772,-4.8113,-4.8113,-4.8644,-4.9221,-4.958,-4.9866,-5.0246,-5.0625,-5.0696,-5.0696,-5.0696,-5.0696,-5.0696,-5.0696,-5.0696,-5.0696,-5.0696,-5.0696,-5.0696,-5.0696,-5.0696,-5.0696,-5.0696,-5.0696,-5.0696,-5.0696,-5.0696,-5.0696,-5.0696,-5.0696,-5.0696,-5.0696,-5.0317,-4.989,-4.9509,-4.9052,-4.8618,-5.6283,-5.676,-5.6451,-5.2517,-5.1225,-4.9792,-4.5464,-4.5464,-4.5717,-4.3413,-4.4565,-4.5689,-4.4734,-4.2626,-4.0547,-3.9114,-3.7316,-3.533,0.0,-3.3375,-3.388,-3.388,-3.4453,-3.471,-3.4434,-3.3847,-3.4066,-3.5645,-3.531,-3.6063,-3.8461,-4.1312,-4.3413,-4.4595,-4.6414,-4.7645,-4.8361,-4.7827,-4.7631,-4.7631,-4.7631,-4.7704,-4.8018,-4.8018,-4.8163,-4.8381,-4.8381,-4.8381,-4.8381,-4.8381,-4.8381,-4.8381,-4.8694,-4.8766,-4.8526,-4.6971,-4.6603,-4.6773,-4.6773,-4.6773,-4.6847,-4.7067,-4.7141,-4.7214,-4.7507,-4.758,-4.758,-4.758,-4.7653,-4.7777,-4.8091,-4.8236,-4.8404,-4.8717,-4.8933,-4.9126,-4.9126,-4.9437,-4.9795,-5.0033,-5.0246,-5.0412,-5.0625,-5.0696,-5.0696,-5.0696,-5.0696,-5.0696,-5.0696,-5.0696,-5.0696,-5.0696,-5.0696,-5.0696,-5.0696,-5.0696,-5.0696,-5.0696,-5.0696,-5.0696,-5.0696,-5.0696,-5.0696,-5.0696,-5.0696,-5.0696,-5.0696,-5.0317,-4.989,-4.9509,-4.9196,-4.8763]},{"header":{"parameterUnit":"m.s-1","parameterCategory":1,"la1":30.6,"la2":29.2853,"lo1":-89.7004,"lo2":-87.6739,"dy":0.0162,"dx":0.0183,"nx":112,"ny":82,"refTime":"2024-09-08T00:00:00:Z","depth":0,"parameterNumber":3,"parameterNumberName":"V-component_of_WINDS"},"data":[0.0,0.0,0.0,0.0,0.0,0.0,0.0,0.0,0.0,0.0,0.0,0.0,0.0,0.0,0.0,0.0,0.0,0.0,0.0,0.0,0.0,0.0,0.0,0.0,0.0,0.0,0.0,0.0,0.0,0.0,0.0,0.0,0.0,0.0,0.0,0.0,0.0,0.0,0.0,0.0,0.0,0.0,0.0,0.0,0.0,0.0,0.0,0.0,0.0,0.0,0.0,0.0,0.0,0.0,0.0,0.0,0.0,0.0,0.0,0.0,0.0,0.0,0.0,0.0,0.0,0.0,0.0,0.0,0.0,0.0,0.0,0.0,0.0,0.0,0.0,0.0,0.0,0.0,0.0,0.0,0.0,0.0,0.0,0.0,0.0,0.0,0.0,0.0,0.0,0.0,5.6758,6.3476,7.0312,7.4414,7.4414,7.414,6.9804,5.9999,0.0,0.0,0.0,0.0,0.0,0.0,0.0,0.0,0.0,0.0,0.0,0.0,0.0,0.0,0.0,0.0,0.0,0.0,0.0,0.0,0.0,0.0,0.0,0.0,0.0,0.0,0.0,0.0,0.0,0.0,0.0,0.0,0.0,0.0,0.0,0.0,0.0,0.0,0.0,0.0,0.0,0.0,0.0,0.0,0.0,0.0,0.0,0.0,0.0,0.0,0.0,0.0,0.0,0.0,0.0,0.0,0.0,0.0,0.0,0.0,0.0,0.0,0.0,0.0,0.0,0.0,0.0,0.0,0.0,0.0,0.0,0.0,0.0,0.0,0.0,0.0,0.0,0.0,0.0,0.0,0.0,0.0,0.0,0.0,0.0,0.0,0.0,0.0,0.0,0.0,0.0,0.0,0.0,0.0,0.0,0.0,0.0,0.0,0.0,0.0,0.0,0.0,0.0,0.0,5.8828,6.8515,7.1914,7.3515,7.3515,7.2148,6.8125,6.0703,0.0,0.0,0.0,0.0,0.0,0.0,0.0,0.0,0.0,0.0,0.0,0.0,0.0,0.0,0.0,0.0,0.0,0.0,0.0,0.0,0.0,0.0,0.0,0.0,0.0,0.0,0.0,0.0,0.0,0.0,0.0,0.0,0.0,0.0,0.0,0.0,0.0,0.0,0.0,0.0,0.0,0.0,0.0,0.0,0.0,0.0,0.0,0.0,0.0,0.0,0.0,0.0,0.0,0.0,0.0,0.0,0.0,0.0,0.0,0.0,0.0,0.0,0.0,0.0,0.0,0.0,0.0,0.0,0.0,0.0,0.0,0.0,0.0,0.0,0.0,0.0,0.0,0.0,0.0,0.0,0.0,0.0,0.0,0.0,0.0,0.0,0.0,0.0,0.0,0.0,0.0,0.0,0.0,0.0,0.0,0.0,0.0,0.0,0.0,0.0,0.0,0.0,0.0,5.7773,6.2734,7.1211,7.2812,7.3281,7.3281,7.1719,6.7578,6.0195,5.6445,0.0,0.0,0.0,0.0,0.0,0.0,0.0,0.0,0.0,0.0,0.0,0.0,0.0,0.0,0.0,0.0,0.0,0.0,0.0,0.0,0.0,0.0,0.0,0.0,0.0,0.0,0.0,0.0,0.0,0.0,0.0,0.0,0.0,0.0,0.0,0.0,0.0,0.0,0.0,0.0,0.0,0.0,0.0,0.0,0.0,0.0,0.0,0.0,0.0,0.0,0.0,0.0,0.0,0.0,0.0,0.0,0.0,0.0,0.0,0.0,0.0,0.0,0.0,0.0,0.0,0.0,0.0,0.0,0.0,0.0,0.0,0.0,0.0,0.0,0.0,0.0,0.0,0.0,0.0,0.0,0.0,0.0,0.0,0.0,0.0,0.0,0.0,0.0,0.0,0.0,0.0,0.0,0.0,0.0,0.0,0.0,0.0,0.0,0.0,0.0,0.0,0.0,6.3124,6.621,7.2344,7.3008,7.3008,7.3008,7.0469,6.6094,5.9609,5.3789,0.0,0.0,0.0,0.0,0.0,0.0,0.0,0.0,0.0,0.0,0.0,0.0,0.0,0.0,0.0,0.0,0.0,0.0,0.0,0.0,0.0,0.0,0.0,0.0,0.0,0.0,0.0,0.0,0.0,0.0,0.0,0.0,0.0,0.0,0.0,0.0,0.0,0.0,0.0,0.0,0.0,0.0,0.0,0.0,0.0,0.0,0.0,0.0,0.0,0.0,0.0,0.0,0.0,0.0,0.0,0.0,0.0,0.0,0.0,0.0,0.0,0.0,0.0,0.0,0.0,0.0,0.0,0.0,0.0,0.0,0.0,0.0,0.0,0.0,0.0,0.0,0.0,0.0,0.0,0.0,0.0,0.0,0.0,0.0,0.0,0.0,0.0,0.0,0.0,0.0,0.0,0.0,0.0,0.0,0.0,0.0,0.0,0.0,0.0,0.0,0.0,0.0,6.3545,6.7874,7.1679,7.2109,7.2109,7.2109,6.6836,6.2305,5.9375,4.9844,0.0,0.0,0.0,0.0,0.0,0.0,0.0,0.0,0.0,0.0,0.0,0.0,0.0,0.0,0.0,0.0,0.0,0.0,0.0,0.0,0.0,0.0,0.0,0.0,0.0,0.0,0.0,0.0,0.0,0.0,0.0,0.0,0.0,0.0,0.0,0.0,0.0,0.0,0.0,0.0,0.0,0.0,0.0,0.0,0.0,0.0,0.0,0.0,0.0,0.0,0.0,0.0,0.0,0.0,0.0,0.0,0.0,0.0,0.0,0.0,0.0,0.0,0.0,0.0,0.0,0.0,0.0,0.0,0.0,0.0,0.0,0.0,0.0,0.0,0.0,0.0,0.0,0.0,0.0,0.0,0.0,0.0,0.0,0.0,0.0,0.0,0.0,0.0,0.0,0.0,0.0,0.0,0.0,0.0,0.0,0.0,0.0,0.0,0.0,0.0,0.0,0.0,6.2586,6.6805,0.0,7.195,7.1797,7.125,6.8164,6.375,5.7969,0.0,0.0,0.0,0.0,0.0,0.0,0.0,0.0,0.0,0.0,0.0,0.0,0.0,0.0,0.0,0.0,0.0,0.0,0.0,0.0,0.0,0.0,0.0,0.0,0.0,0.0,0.0,0.0,0.0,0.0,0.0,0.0,0.0,0.0,0.0,0.0,0.0,0.0,0.0,0.0,0.0,0.0,0.0,0.0,0.0,0.0,0.0,0.0,0.0,0.0,0.0,0.0,0.0,0.0,0.0,0.0,0.0,0.0,0.0,0.0,0.0,0.0,0.0,0.0,0.0,0.0,0.0,0.0,0.0,0.0,0.0,0.0,0.0,0.0,0.0,0.0,0.0,0.0,0.0,0.0,0.0,0.0,0.0,0.0,0.0,0.0,0.0,0.0,0.0,0.0,0.0,0.0,0.0,0.0,0.0,0.0,0.0,0.0,0.0,0.0,0.0,0.0,5.7967,6.2662,6.697,0.0,7.1907,7.164,7.0781,6.789,6.3398,5.6992,0.0,0.0,0.0,0.0,0.0,0.0,0.0,0.0,0.0,0.0,0.0,0.0,0.0,0.0,0.0,0.0,0.0,0.0,0.0,0.0,0.0,0.0,0.0,0.0,0.0,0.0,0.0,0.0,0.0,0.0,0.0,0.0,0.0,0.0,0.0,0.0,0.0,0.0,0.0,0.0,0.0,0.0,0.0,0.0,0.0,0.0,0.0,0.0,0.0,0.0,0.0,0.0,0.0,0.0,0.0,0.0,0.0,0.0,0.0,0.0,0.0,0.0,0.0,0.0,0.0,0.0,0.0,0.0,0.0,0.0,0.0,0.0,0.0,0.0,0.0,0.0,0.0,0.0,0.0,0.0,0.0,0.0,0.0,0.0,0.0,0.0,0.0,0.0,0.0,0.0,0.0,0.0,0.0,0.0,0.0,0.0,0.0,0.0,0.0,0.0,0.0,0.0,5.8126,6.4189,6.8908,7.151,7.1907,7.164,7.0742,6.5195,6.0273,0.0,0.0,0.0,0.0,0.0,0.0,0.0,0.0,0.0,0.0,0.0,0.0,0.0,0.0,0.0,0.0,0.0,0.0,0.0,0.0,0.0,0.0,0.0,0.0,0.0,0.0,0.0,0.0,0.0,0.0,0.0,0.0,0.0,0.0,0.0,0.0,0.0,0.0,0.0,0.0,0.0,0.0,0.0,0.0,0.0,0.0,0.0,0.0,0.0,0.0,0.0,0.0,0.0,0.0,0.0,0.0,0.0,0.0,0.0,0.0,0.0,0.0,0.0,0.0,0.0,0.0,0.0,0.0,0.0,0.0,0.0,0.0,0.0,0.0,0.0,0.0,0.0,0.0,0.0,0.0,0.0,0.0,0.0,0.0,0.0,0.0,0.0,0.0,0.0,0.0,0.0,0.0,0.0,0.0,0.0,0.0,0.0,0.0,0.0,0.0,0.0,0.0,0.0,5.812,6.4552,6.9363,7.1381,7.1753,7.1266,6.9822,6.7028,6.2344,5.5234,0.0,0.0,0.0,0.0,0.0,0.0,0.0,0.0,0.0,0.0,0.0,0.0,0.0,0.0,0.0,0.0,0.0,0.0,0.0,0.0,0.0,0.0,0.0,0.0,0.0,0.0,0.0,0.0,0.0,0.0,0.0,0.0,0.0,0.0,0.0,0.0,0.0,0.0,0.0,0.0,0.0,0.0,0.0,0.0,0.0,0.0,0.0,0.0,0.0,0.0,0.0,0.0,0.0,0.0,0.0,0.0,0.0,0.0,0.0,0.0,0.0,0.0,0.0,0.0,0.0,0.0,0.0,0.0,0.0,0.0,0.0,0.0,0.0,0.0,0.0,0.0,0.0,0.0,0.0,0.0,0.0,0.0,0.0,0.0,0.0,0.0,0.0,0.0,0.0,0.0,0.0,0.0,0.0,0.0,0.0,0.0,0.0,0.0,0.0,0.0,0.0,0.0,5.8058,6.4683,6.9578,7.1326,7.1655,7.1203,6.9834,6.7922,6.3529,5.5911,0.0,0.0,0.0,0.0,0.0,0.0,0.0,0.0,0.0,0.0,0.0,0.0,0.0,0.0,0.0,0.0,0.0,0.0,0.0,0.0,0.0,0.0,0.0,0.0,0.0,0.0,0.0,0.0,0.0,0.0,0.0,0.0,0.0,0.0,0.0,0.0,0.0,0.0,0.0,0.0,0.0,0.0,0.0,0.0,0.0,0.0,0.0,0.0,0.0,0.0,0.0,0.0,0.0,0.0,0.0,0.0,0.0,0.0,0.0,0.0,0.0,0.0,0.0,0.0,0.0,0.0,0.0,0.0,0.0,0.0,0.0,0.0,0.0,0.0,0.0,0.0,0.0,0.0,0.0,0.0,0.0,0.0,0.0,0.0,0.0,0.0,0.0,0.0,0.0,0.0,0.0,0.0,0.0,0.0,0.0,0.0,0.0,0.0,0.0,0.0,0.0,0.0,5.8166,6.4774,6.967,7.1417,7.164,7.1332,7.047,6.8143,6.4169,5.8199,0.0,0.0,0.0,0.0,0.0,0.0,0.0,0.0,0.0,0.0,0.0,0.0,0.0,0.0,0.0,0.0,0.0,0.0,0.0,0.0,0.0,0.0,0.0,0.0,0.0,0.0,0.0,0.0,0.0,0.0,0.0,0.0,0.0,0.0,0.0,0.0,0.0,0.0,0.0,0.0,0.0,0.0,0.0,0.0,0.0,0.0,0.0,0.0,0.0,0.0,0.0,0.0,0.0,0.0,0.0,0.0,0.0,0.0,0.0,0.0,5.7869,5.4349,0.0,0.0,0.0,0.0,0.0,0.0,0.0,0.0,0.0,0.0,0.0,0.0,0.0,0.0,0.0,0.0,0.0,0.0,0.0,0.0,0.0,0.0,0.0,0.0,0.0,0.0,0.0,0.0,0.0,0.0,0.0,0.0,0.0,0.0,0.0,0.0,0.0,0.0,0.0,0.0,5.9871,6.5991,7.0436,7.2179,7.1857,7.1186,7.0316,6.8598,6.526,5.9898,5.458,0.0,0.0,0.0,0.0,0.0,0.0,0.0,0.0,0.0,0.0,0.0,0.0,0.0,0.0,0.0,0.0,0.0,0.0,0.0,0.0,0.0,0.0,0.0,0.0,0.0,0.0,0.0,0.0,0.0,0.0,0.0,0.0,0.0,0.0,0.0,0.0,0.0,0.0,0.0,0.0,0.0,0.0,0.0,0.0,0.0,0.0,0.0,0.0,0.0,0.0,0.0,0.0,0.0,0.0,0.0,0.0,0.0,0.0,0.0,6.4948,6.2472,0.0,0.0,0.0,0.0,0.0,0.0,0.0,0.0,0.0,0.0,0.0,0.0,0.0,0.0,0.0,0.0,0.0,0.0,0.0,0.0,0.0,0.0,0.0,0.0,0.0,0.0,0.0,0.0,0.0,0.0,0.0,0.0,0.0,0.0,0.0,0.0,0.0,0.0,0.0,0.0,6.1062,6.6583,7.0672,7.2413,7.1861,7.1232,7.0758,6.9218,6.6617,6.2718,5.8441,0.0,0.0,0.0,0.0,0.0,0.0,0.0,0.0,0.0,0.0,0.0,0.0,0.0,0.0,0.0,0.0,0.0,0.0,0.0,0.0,0.0,0.0,0.0,0.0,0.0,0.0,0.0,0.0,0.0,0.0,0.0,0.0,0.0,0.0,0.0,0.0,0.0,0.0,0.0,0.0,0.0,0.0,0.0,0.0,0.0,0.0,0.0,0.0,0.0,0.0,0.0,0.0,0.0,6.948,7.1645,7.3269,7.3423,7.4274,7.5434,7.1722,7.1076,7.2142,6.6185,0.0,0.0,0.0,0.0,0.0,0.0,0.0,0.0,0.0,0.0,0.0,0.0,0.0,0.0,0.0,0.0,0.0,0.0,0.0,0.0,0.0,0.0,6.3458,6.4837,6.7033,6.6417,5.7637,0.0,0.0,0.0,0.0,0.0,0.0,0.0,0.0,0.0,0.0,0.0,6.2394,6.7268,7.0905,7.2645,7.191,7.1291,7.1291,6.9899,6.8042,6.5799,6.265,5.8824,0.0,0.0,0.0,0.0,0.0,0.0,0.0,0.0,0.0,0.0,0.0,0.0,0.0,0.0,0.0,0.0,0.0,0.0,0.0,0.0,0.0,0.0,0.0,0.0,0.0,0.0,0.0,0.0,0.0,0.0,0.0,0.0,5.2724,5.3846,0.0,0.0,0.0,0.0,0.0,0.0,0.0,0.0,0.0,0.0,0.0,0.0,0.0,6.2695,6.5781,7.1272,7.3909,7.3677,8.0586,8.294,8.1126,8.1821,8.2298,8.2414,8.1165,0.0,7.2413,6.9976,0.0,0.0,0.0,0.0,0.0,0.0,0.0,0.0,0.0,0.0,0.0,0.0,0.0,0.0,0.0,0.0,0.0,0.0,0.0,0.0,0.0,0.0,7.1137,7.1358,7.2789,7.3342,7.0518,6.3671,5.7366,5.4813,5.1641,4.8353,0.0,0.0,0.0,0.0,0.0,0.0,6.4948,6.8893,7.1794,7.3535,7.2258,7.1291,7.1291,7.0402,6.9396,6.8352,6.5819,6.3352,6.1175,5.7383,0.0,0.0,0.0,0.0,0.0,0.0,0.0,0.0,0.0,0.0,0.0,0.0,0.0,0.0,0.0,0.0,0.0,0.0,0.0,0.0,0.0,0.0,0.0,0.0,0.0,0.0,0.0,0.0,0.0,5.3395,5.6589,5.7312,5.7197,5.6182,0.0,0.0,0.0,0.0,0.0,0.0,0.0,0.0,0.0,6.5881,6.6773,6.8381,7.0811,7.4411,7.6494,7.7086,8.1446,8.295,8.1908,8.2757,8.2873,8.2371,8.2024,7.966,7.5851,7.3662,7.0533,6.6814,0.0,0.0,0.0,0.0,6.325,6.3261,6.6582,6.747,6.6736,6.4728,0.0,0.0,0.0,0.0,0.0,0.0,0.0,6.2539,6.4897,6.9728,7.4316,7.5709,7.7319,7.8091,7.6392,7.2102,6.6763,6.076,5.8874,5.6244,4.9784,4.9591,0.0,0.0,0.0,6.3245,6.7771,7.0479,7.2491,7.3767,7.2336,7.1291,7.1291,7.0943,7.0363,6.9512,6.8429,6.7036,6.5334,6.2085,5.8565,0.0,0.0,0.0,0.0,0.0,0.0,0.0,0.0,0.0,0.0,0.0,0.0,0.0,0.0,0.0,0.0,0.0,0.0,0.0,0.0,0.0,0.0,0.0,0.0,0.0,0.0,0.0,0.0,5.6973,6.0118,6.0444,6.1701,6.1038,0.0,0.0,0.0,0.0,0.0,0.0,6.7025,6.7846,6.9116,7.1017,7.1891,7.3048,7.4551,7.6054,7.7519,7.8998,8.054,8.122,8.1244,8.186,8.1807,8.1176,8.1191,8.0357,7.8777,7.6519,7.3806,7.0823,6.8123,6.6696,6.6426,6.896,6.9191,6.8933,7.3601,7.4835,7.3909,7.1363,6.9962,6.7957,6.112,0.0,0.0,0.0,0.0,6.6676,7.0239,7.3251,7.5942,7.8436,8.0018,8.0597,7.9324,7.7936,7.4562,6.6552,6.5518,6.3574,5.6102,5.62,0.0,5.7648,6.2414,6.7103,7.0247,7.1988,7.3264,7.4115,7.2645,7.164,7.164,7.1446,7.1021,7.0363,7.0324,6.9589,6.7887,6.5799,6.3052,5.9648,0.0,0.0,0.0,0.0,0.0,0.0,0.0,0.0,0.0,0.0,0.0,0.0,0.0,0.0,0.0,0.0,0.0,0.0,0.0,0.0,0.0,0.0,0.0,0.0,0.0,0.0,0.0,0.0,0.0,6.3435,6.5498,0.0,0.0,0.0,0.0,6.46,6.7294,6.9336,7.0218,7.2813,7.4365,7.4535,7.5327,7.6183,7.7107,7.7953,7.8838,7.9746,8.0685,8.1023,8.0904,8.0981,8.0932,8.0826,8.091,8.0443,7.9537,7.7992,7.6276,7.4539,7.3613,7.3228,7.3215,7.3369,7.3871,7.4604,7.5761,7.6108,7.6455,7.8615,7.715,7.3665,6.9218,6.8446,0.0,0.0,7.0541,7.2366,7.4179,7.5375,7.6764,7.9324,8.0018,8.0057,7.9941,7.9208,7.728,7.2932,7.0165,6.784,6.5705,0.0,6.4508,6.5385,6.7211,6.9485,7.2131,7.3264,7.4154,7.4955,7.3535,7.2529,7.2529,7.1794,7.1291,7.1253,7.1214,7.0479,6.8816,6.781,6.5721,6.2278,5.7869,0.0,0.0,0.0,0.0,0.0,0.0,0.0,0.0,0.0,0.0,0.0,0.0,0.0,0.0,0.0,0.0,0.0,0.0,0.0,0.0,0.0,0.0,0.0,0.0,0.0,0.0,0.0,0.0,6.737,6.9187,0.0,6.6842,6.8793,7.0407,7.0877,7.3559,7.5295,7.5564,7.6485,7.7284,7.7799,7.8091,7.865,7.955,7.9857,8.0126,8.0471,8.0778,8.0877,8.0843,8.0843,8.0826,8.0792,8.0826,8.0416,7.9659,7.9138,7.7929,7.637,7.5509,7.5176,7.524,7.5817,7.6202,7.6563,7.7396,7.7665,7.7742,7.8142,7.6664,7.4508,7.2954,7.2723,7.2954,7.2954,7.4227,7.5771,7.6349,7.7544,7.8816,7.9702,8.0328,8.0568,8.0049,7.9678,7.8588,7.5517,7.2853,7.0165,6.7375,6.7467,6.793,6.7761,7.0127,7.2479,7.393,7.4405,7.4726,7.5071,7.4115,7.3226,7.2645,7.1579,7.0529,6.9461,6.868,6.7741,6.6588,6.5743,6.4462,6.2682,5.901,5.4622,0.0,0.0,0.0,0.0,0.0,0.0,0.0,0.0,0.0,0.0,0.0,0.0,0.0,0.0,0.0,0.0,0.0,0.0,0.0,0.0,0.0,0.0,0.0,0.0,0.0,6.7501,7.0374,7.0385,7.2701,7.3368,7.0854,7.336,7.528,7.5606,7.7319,7.8481,7.8766,7.8738,7.9088,7.991,7.9949,8.0217,8.0792,8.0792,8.0792,8.0792,8.0792,8.0775,8.0741,8.0741,8.0723,8.0705,8.0741,8.0486,8.0071,8.0103,7.9515,7.8477,7.7284,7.6823,7.6938,7.7823,7.8115,7.82,7.9008,7.9331,7.9215,7.8746,7.7784,7.6861,7.6861,7.6861,7.6861,7.6861,7.7699,7.8667,7.8667,7.9475,8.0284,8.0284,8.07,8.0954,8.0423,8.0053,7.936,7.7694,7.5333,7.2816,7.0272,7.0709,7.1351,7.1172,7.3074,7.4693,7.5129,7.5193,7.5064,7.4676,7.3892,7.3045,7.2211,7.0651,6.9361,6.8555,6.7016,6.5894,6.5321,6.425,6.3255,6.24,5.93,5.5885,5.226,0.0,0.0,0.0,0.0,0.0,0.0,0.0,0.0,0.0,0.0,0.0,0.0,0.0,0.0,0.0,0.0,0.0,0.0,0.0,0.0,0.0,0.0,0.0,6.7735,7.0086,7.2078,7.2452,7.6054,7.7424,7.4643,7.6859,7.8452,7.8452,7.841,7.8705,7.9472,7.951,7.9932,8.0754,8.0792,8.0792,8.0792,8.0792,8.0792,8.0792,8.0792,8.0741,8.0614,8.0614,8.056,8.0506,8.0578,8.0667,8.0792,8.0838,8.0975,8.0939,7.9246,7.8592,7.8669,7.9515,7.9799,7.9835,8.0619,8.0888,8.0943,8.1061,8.1093,8.1093,8.1093,8.1093,8.1093,8.1093,8.1093,8.1093,8.1093,8.1093,8.1093,8.1093,8.1093,8.1093,8.1093,8.0423,7.9792,7.9697,7.7747,7.5822,7.5047,7.474,7.4965,7.5971,7.6062,0.0,7.5632,7.56,7.5085,7.3856,7.2982,7.2106,7.1324,6.9032,6.7937,6.8722,6.6491,6.5176,6.5184,6.3647,6.2386,6.1583,5.9081,5.7319,5.6378,0.0,0.0,0.0,0.0,0.0,0.0,0.0,0.0,0.0,0.0,0.0,0.0,0.0,0.0,0.0,0.0,0.0,0.0,0.0,0.0,0.0,6.8648,7.2342,7.143,7.4363,7.6663,7.6799,7.7745,7.8353,7.8196,7.8793,7.9445,8.0098,8.0012,8.0075,8.0305,8.0234,8.0312,8.056,8.058,8.058,8.058,8.058,8.058,8.058,8.058,8.058,8.0543,8.0543,8.0525,8.0506,8.0543,8.056,8.065,8.0685,8.0754,8.0838,8.0507,8.0331,8.0267,8.0498,8.0564,8.052,8.075,8.0826,8.0826,8.086,8.086,8.086,8.086,8.086,8.086,8.086,8.086,8.086,8.086,8.086,8.086,8.086,8.086,8.086,8.086,8.0668,8.0344,7.9629,7.8759,7.7885,7.7061,7.6323,7.5872,7.5932,7.5475,7.5094,7.5037,7.5037,7.4904,7.46,7.3912,7.3092,7.2144,6.9679,6.7464,6.58,6.3728,6.2561,6.2542,6.2221,6.2201,6.2633,6.0803,5.9372,0.0,0.0,0.0,0.0,0.0,0.0,0.0,0.0,0.0,0.0,0.0,0.0,0.0,0.0,0.0,0.0,0.0,0.0,0.0,0.0,0.0,0.0,7.2996,7.6091,7.5612,7.7495,7.906,7.9406,7.9434,7.9594,8.0093,8.0064,8.0148,8.0702,8.0614,8.056,8.056,8.0505,8.0506,8.0506,8.0506,8.0506,8.0506,8.0506,8.0506,8.0506,8.0506,8.0506,8.0506,8.0506,8.0506,8.0506,8.0506,8.0523,8.0614,8.0614,8.0667,8.0809,0.0,0.0,0.0,0.0,8.0737,8.0741,8.0741,8.0741,8.0741,8.0775,8.0792,8.0792,8.0792,8.0792,8.0792,8.0792,8.0792,8.0792,8.0792,8.0792,8.0792,8.0792,8.0792,8.0775,8.0741,8.0741,8.0535,7.9856,7.9533,0.0,7.8365,7.7366,7.6496,7.5994,7.548,7.5043,7.454,7.4443,7.4287,7.384,7.343,7.2675,7.1367,6.9244,0.0,0.0,0.0,6.2326,6.2027,6.2408,0.0,0.0,0.0,0.0,0.0,6.5207,0.0,0.0,6.3577,6.401,0.0,0.0,0.0,0.0,0.0,0.0,0.0,0.0,0.0,0.0,0.0,0.0,0.0,0.0,0.0,0.0,7.6723,7.9574,7.9542,7.9595,7.9915,8.0716,8.0775,8.0775,8.0775,8.065,8.0596,8.0596,8.0523,8.0506,8.0506,8.0506,0.0,0.0,0.0,8.0506,8.0506,8.0506,8.0506,8.0506,8.0506,8.0506,8.0506,8.0506,8.0506,8.0506,8.0506,8.0523,8.0596,8.0596,8.065,8.0758,8.0775,8.0775,8.0758,8.0632,8.0596,8.0596,8.0596,0.0,0.0,8.0741,8.0758,8.0758,8.0758,8.0758,8.0758,8.0758,8.0758,8.0758,8.0758,8.0758,8.0758,8.0758,8.0741,8.0723,8.0578,8.056,8.043,8.0139,7.9975,7.9756,7.9115,7.8058,7.6982,7.6166,7.5939,7.5447,7.4212,7.409,7.36,7.2483,7.2283,0.0,7.0103,6.8565,6.7631,6.7556,6.5493,6.3988,6.328,6.4145,6.4927,6.565,6.7244,6.9517,7.2522,7.3492,7.4412,7.5072,6.8504,6.7793,0.0,0.0,0.0,0.0,0.0,0.0,0.0,0.0,0.0,0.0,0.0,0.0,0.0,0.0,0.0,7.5247,7.8237,8.0294,8.0276,8.0276,8.0425,8.0775,8.0685,8.065,8.065,8.056,8.0543,8.0543,8.0525,8.0506,8.0506,8.0506,8.0506,8.0506,8.0506,8.0506,8.0506,8.0506,8.0506,8.0506,8.0506,0.0,8.0506,8.0506,8.0506,8.0506,8.0506,8.0525,8.0543,8.0543,8.0543,8.058,8.0614,8.065,8.0632,8.0542,8.0543,8.0543,8.0543,8.0543,8.0505,8.0562,8.0562,8.0562,8.0562,8.0562,0.0,8.0562,8.0562,8.0562,8.0562,8.0562,8.0543,8.0507,8.0488,8.045,8.0314,8.0177,8.0075,7.9891,7.9712,7.9439,7.8979,7.8216,7.7454,7.6938,7.6252,7.5518,7.4595,7.4458,7.4134,7.325,7.2657,7.2199,7.1763,7.0301,6.9097,6.8344,6.7331,6.6758,6.6713,6.8248,6.909,6.9204,7.0293,7.1431,7.2684,7.4191,7.5605,7.6808,7.481,7.4748,0.0,0.0,0.0,0.0,0.0,0.0,0.0,0.0,0.0,0.0,0.0,6.8471,7.0726,0.0,7.6236,7.8085,7.9591,8.0506,8.0506,8.0506,8.0543,8.0634,8.0578,8.0523,8.0506,8.0468,8.0411,8.0354,8.0354,8.0354,8.0354,8.0411,8.0431,8.0431,8.0487,8.0506,8.0506,8.0506,8.0506,8.0506,8.0506,8.0506,8.0506,8.0506,8.0506,8.0506,8.0506,8.0506,8.0506,8.0506,8.0506,8.0506,8.0523,8.0542,8.0542,8.0525,8.0506,8.0506,8.0506,8.0506,8.0506,8.0506,8.0506,8.0506,8.0506,8.0506,8.0506,8.0506,8.0506,8.0506,8.0506,8.0468,8.0431,8.0411,8.0353,8.0235,8.0034,7.995,7.9843,7.96,7.9462,7.9287,7.8864,7.8476,7.7935,7.7206,7.6716,7.5973,7.4747,7.4598,7.4264,7.351,7.3115,7.2566,7.178,7.0293,6.9183,6.8733,6.8755,6.883,6.8888,7.052,7.1391,7.1347,7.2574,7.3442,7.3782,7.5418,7.656,7.7234,7.7226,7.7489,0.0,0.0,0.0,0.0,0.0,0.0,0.0,6.4538,6.6498,6.813,7.0687,7.3321,7.5645,7.7148,7.8539,8.0182,8.045,8.045,8.045,8.045,8.045,8.045,8.0468,8.045,8.0372,8.0372,8.0333,8.0215,8.0195,8.0195,8.0195,8.0275,8.0372,8.0372,8.0431,8.0487,8.0487,8.0506,8.0506,8.0506,8.0506,8.0506,8.0506,8.0506,8.0506,8.0506,8.0506,8.0506,8.0506,8.0506,8.0506,8.0506,8.0506,8.0506,8.0506,8.0525,8.0543,8.0543,8.0543,8.0525,8.0506,8.0506,8.0506,8.0506,8.0506,8.0506,8.0506,8.0506,8.0506,8.0506,8.0487,8.045,8.0392,8.0353,8.0215,8.0034,7.9843,7.9756,7.9623,7.9321,7.9263,7.9116,7.876,7.8682,7.8352,7.7476,7.731,7.6817,7.5267,7.4933,7.4535,7.3734,7.34,7.2714,7.1545,7.032,6.9596,6.9652,7.0233,7.063,7.063,7.187,7.2626,7.2759,7.4064,7.4785,7.4954,7.6348,7.6998,7.7009,7.7894,7.8385,5.7819,6.0167,6.2975,6.4705,6.5216,6.7182,0.0,7.4238,7.3611,7.6941,7.8426,7.9241,7.9586,7.9776,7.9967,8.0197,8.0235,8.0235,8.0235,8.0235,8.0235,8.0235,8.0353,8.0372,8.0235,8.0215,8.0215,8.0195,8.0195,8.0195,8.0195,8.0215,8.0215,8.0215,8.0353,8.0411,8.0411,8.0468,8.0506,8.0506,8.0506,8.0506,8.0506,8.0506,8.0506,8.0506,8.0506,8.0506,8.0506,8.0506,8.0506,8.0506,8.0506,8.0506,8.0525,8.056,8.0596,8.0596,8.0596,8.0542,8.0506,8.0506,8.0506,8.0506,8.0506,8.0506,8.0506,8.0506,8.0506,8.0487,8.043,8.0411,8.0353,8.0113,7.995,7.9822,7.9728,7.9523,7.9321,7.9311,7.9116,7.889,7.8734,7.8602,7.8431,7.8192,7.8165,7.783,7.6966,7.6121,7.5412,7.4735,7.3382,7.2461,7.2345,7.2183,7.2149,7.226,7.2368,7.2404,7.2404,7.2646,7.3034,7.3619,7.3956,7.4416,7.5084,7.5943,7.6265,7.6267,7.7679,7.873,6.8714,6.8335,6.7634,7.1181,7.2719,7.4084,7.6998,7.745,7.7711,7.9378,8.0007,8.0195,8.0195,8.0195,8.0195,8.0195,8.0195,8.0195,8.0195,8.0195,8.0175,8.0075,8.0134,8.0154,8.0113,8.0055,8.0072,8.0009,8.0047,8.0047,8.0047,8.0072,8.0055,8.0055,8.0313,8.0392,8.0392,8.0468,8.0506,8.0506,8.0506,8.0506,8.0506,8.0506,8.0506,8.0506,8.0506,8.0506,8.0506,8.0506,8.0506,8.0506,8.0506,8.0505,8.056,8.0542,8.0523,8.0523,8.0523,8.0506,8.0431,8.0431,8.0373,8.0334,8.0334,8.0334,8.0334,8.0334,8.0334,8.0314,8.0275,8.0215,8.0134,7.9929,7.98,7.9683,7.943,7.9263,7.9141,7.8991,7.8812,7.8655,7.8602,7.8118,7.771,7.7688,7.8014,7.7868,7.661,7.6146,7.547,7.4296,7.3229,7.2581,7.2604,7.2262,7.2049,7.2111,7.2535,7.2782,7.2782,7.3217,7.3639,7.3911,7.3956,7.4132,7.4444,7.5217,7.5763,7.6195,7.7265,7.814,7.3967,7.3358,7.2404,7.555,7.7738,7.899,7.8263,7.8997,7.9908,8.0075,8.0134,8.0113,8.0113,8.0113,8.0093,8.0072,8.0072,8.0072,8.0072,8.0072,8.0051,7.9988,7.9988,7.9988,7.9988,7.9988,7.9946,7.9919,7.9898,7.9898,7.9898,7.9946,7.9988,7.9988,8.0195,8.0353,8.0353,8.045,8.0506,8.0506,8.0506,8.0506,8.0506,8.0506,8.0506,8.0506,8.0506,8.0506,8.0506,8.0506,8.0506,8.0506,8.0506,8.0543,8.0523,8.0487,8.0506,8.0505,8.0525,8.045,8.0392,8.0372,8.0255,8.0195,8.0195,8.0195,8.0195,8.0195,8.0195,8.0175,8.0113,8.0013,7.9908,7.9756,7.96,7.9453,7.9165,7.9016,7.889,7.8682,7.8468,7.8267,7.8146,7.7563,7.704,7.6915,7.7353,7.7282,7.6172,7.588,7.516,7.3588,7.2976,7.2724,7.2724,7.2277,7.2114,7.2325,7.2851,7.3132,7.3132,7.3694,7.401,7.401,7.401,7.401,7.401,7.4735,7.5354,7.5922,7.6659,7.7452,6.9027,7.2347,7.6646,7.6221,7.8252,8.0314,8.0139,8.0075,7.9992,7.9992,7.9946,7.9919,7.9919,7.9919,7.9876,7.9728,7.9705,7.9705,7.9705,7.9705,7.975,7.9898,7.9898,7.9898,7.9898,7.9898,7.9898,7.9898,7.9898,7.9898,7.9898,7.9898,7.9898,7.9898,8.0093,8.0195,8.0195,8.0411,8.0506,8.0506,8.0506,8.0506,8.0506,8.0506,8.0506,8.0506,8.0506,8.0506,8.0506,8.0506,8.0506,8.0506,8.0506,8.045,8.0411,8.0411,8.0487,8.0596,8.0505,8.045,8.0372,8.0235,8.0195,8.0195,8.0195,8.0195,8.0195,8.0195,8.0195,8.0154,7.9886,7.9822,7.9778,7.9569,7.9311,7.9116,7.9116,7.8775,7.8522,7.8522,7.8165,7.7695,7.7322,7.6946,7.6559,7.6197,7.6164,7.6128,7.6094,7.5547,7.4512,7.2905,7.2782,7.2785,7.2785,7.2781,7.3097,7.3869,7.394,7.3975,7.3975,7.3975,7.401,7.401,7.401,7.401,7.401,7.4752,7.5103,7.5138,7.5951,7.6706,7.4168,7.5944,7.679,7.8519,7.9626,8.0215,8.0113,8.0013,7.9971,7.9946,7.9387,7.8891,7.8891,7.8404,7.7954,7.7929,7.8384,7.8776,7.8776,7.9298,7.9705,7.975,7.9854,7.9898,7.9898,7.9898,7.9898,7.9898,7.9898,7.9898,7.9898,7.9898,7.9941,7.9967,8.0113,8.0235,8.0333,8.045,8.0506,8.0506,8.0506,8.0506,8.0506,8.0506,8.0506,8.0506,8.0506,8.0506,8.0506,8.0506,8.0506,8.0506,8.0431,8.043,8.0392,8.0313,8.0295,8.0315,8.0314,8.0235,8.0134,8.0055,8.003,8.0026,8.0026,8.0026,7.9967,7.9881,7.986,7.9838,7.966,7.9577,7.9532,7.9311,7.9165,7.9016,7.8655,7.8468,7.8276,7.7965,7.7577,7.7169,7.6915,7.6164,7.5406,7.4787,7.5119,7.5442,7.5442,7.4823,7.4191,7.3623,7.3569,7.3589,7.3589,7.3589,7.3729,7.3975,7.401,7.401,7.401,7.401,7.401,7.401,7.401,7.401,7.401,7.4256,7.4607,7.5098,7.5906,7.67,7.7063,7.7657,7.7141,7.9664,8.0215,8.0037,7.9609,7.9512,7.9415,7.9085,7.8008,7.7202,7.7475,7.6774,7.6516,7.7541,7.8427,7.9117,7.9417,8.0005,8.0239,7.9774,7.9832,7.9898,7.9898,7.9898,7.9898,7.9898,7.9898,7.9898,7.9898,7.9898,7.9924,7.9992,8.0134,8.0255,8.0392,8.0468,8.0506,8.0506,8.0506,8.0506,8.0506,8.0506,8.0506,8.0506,8.0506,8.0506,8.0506,8.0468,8.045,8.045,8.0334,8.0313,8.0235,8.0175,8.0113,8.0093,8.0134,8.0055,7.9992,7.9988,7.9924,7.9898,7.9898,7.9876,7.9832,7.9705,7.966,7.9592,7.9406,7.9359,7.9287,7.9041,7.8941,7.8787,7.8386,7.8165,7.7937,7.7584,7.7087,7.6668,7.6267,7.5406,7.4558,7.4053,7.4405,7.4711,7.4711,7.429,7.401,7.401,7.401,7.401,7.401,7.401,7.401,7.401,7.401,7.401,7.401,7.401,7.401,7.401,7.401,7.401,7.401,7.401,7.4361,7.5098,7.5625,7.6292,7.7403,7.7521,7.788,7.9678,8.0017,7.9685,7.8744,7.8533,7.8246,7.7316,7.5825,7.4811,7.5408,7.4921,7.5335,7.8071,7.9338,8.0324,8.1132,8.1389,8.1051,7.9834,7.9832,7.9898,7.9898,7.9898,7.9898,7.9898,7.9898,7.9898,7.9898,7.9898,7.9924,7.9992,8.0134,8.0255,8.0392,8.0468,8.0506,8.0506,8.0506,8.0506,8.0506,8.0506,8.0506,8.0506,8.0506,8.0506,8.0487,8.043,8.0392,8.0372,8.0235,8.0134,7.9992,7.9992,7.9946,7.9919,7.9988,7.9992,7.9971,7.9941,7.9898,7.9898,7.9898,7.981,7.9683,7.9683,7.9592,7.943,7.9165,7.9091,7.9041,7.876,7.8602,7.8468,7.8304,7.7908,7.7524,7.7304,7.6705,7.6038,7.5442,7.4596,7.401,7.401,7.401,7.401,7.401,7.401,7.401,7.401,7.401,7.401,7.401,7.401,7.401,7.401,7.401,7.401,7.401,7.401,7.401,7.401,7.401,7.401,7.401,7.401,7.4361,7.5098,7.5133,7.559,7.8582,7.9347,7.9371,7.9077,7.8912,7.8598,7.7744,7.7555,7.6841,7.4282,7.2858,7.1369,6.9112,6.9754,7.0938,7.1666,7.4432,7.6803,7.7651,7.8566,7.9273,7.9523,7.9766,7.9898,7.9898,7.9898,7.9898,7.9898,7.9898,7.9898,7.9898,7.9898,7.9924,7.9992,8.0134,8.0255,8.0392,8.0468,8.0506,8.0506,8.0506,8.0506,8.0506,8.0506,8.0506,8.0506,8.0506,8.0468,8.043,8.0411,8.0353,8.0235,8.0113,8.0013,7.9992,7.9946,7.9919,7.9898,7.9941,7.9941,7.9903,7.9919,7.9898,7.9898,7.9898,7.981,7.966,7.9569,7.9453,7.9287,7.9041,7.8966,7.889,7.8629,7.8522,7.8414,7.8023,7.7762,7.7433,7.687,7.5934,7.5153,7.4857,7.4364,7.401,7.401,7.401,7.401,7.401,7.401,7.401,7.401,7.401,7.401,7.401,7.401,7.401,7.401,7.401,7.401,7.401,7.401,7.401,7.401,7.401,7.401,7.401,7.401,7.4361,7.5098,7.5695,7.6397,7.9474,7.983,7.947,7.8786,7.822,7.7272,7.5028,7.4531,7.3417,6.9575,6.8025,6.6725,6.4542,6.6403,6.8589,6.9642,7.339,7.6574,7.7828,7.8723,7.9266,7.9383,7.9638,7.981,7.9705,7.9788,7.9832,7.9832,7.9876,8.0049,8.039,8.0428,8.0645,8.1094,8.1157,8.1088,8.0866,8.0868,8.0716,8.0373,8.0373,8.0392,8.045,8.045,8.0468,8.0506,8.0506,8.045,8.0392,8.0353,8.0235,8.0113,8.0009,7.9967,7.9946,7.9919,7.9898,7.9898,7.9898,7.9898,7.9898,7.9898,7.9898,7.9898,7.9898,7.981,7.966,7.9546,7.9406,7.9239,7.8966,7.8915,7.8838,7.8576,7.8468,7.8304,7.7908,7.7584,7.7155,7.6415,7.5514,7.4857,7.4631,7.4283,7.401,7.401,7.401,7.401,7.401,7.401,7.401,7.401,7.401,7.401,7.401,7.401,7.401,7.401,7.401,7.401,7.401,7.401,7.415,7.4466,7.4466,7.4642,7.4993,7.4993,7.5204,7.5625,7.6432,7.6994,8.0157,7.9665,7.8803,7.8479,7.7706,7.5938,7.1865,7.084,6.9331,6.4353,6.2646,6.1664,6.0716,6.3506,6.6786,6.9206,7.3463,7.7186,7.9157,7.9714,7.9775,7.9352,7.9523,7.9615,7.95,7.9728,7.9872,7.9872,8.0097,8.0466,8.1073,8.1224,8.1669,8.2461,8.2499,8.2222,8.1565,8.1565,8.1147,8.0347,8.0347,8.0369,8.0392,8.0392,8.045,8.0506,8.0506,8.045,8.0372,8.0235,8.0134,7.9971,7.9903,7.9898,7.9898,7.9898,7.9898,7.9898,7.9898,7.9919,7.9919,7.9898,7.9898,7.9898,7.9898,7.981,7.966,7.9546,7.943,7.9287,7.9016,7.8941,7.8864,7.8576,7.8386,7.823,7.799,7.7549,7.6883,7.6008,7.5262,7.4819,7.4631,7.4354,7.415,7.415,7.4256,7.4256,7.415,7.408,7.401,7.401,7.401,7.401,7.401,7.401,7.401,7.401,7.401,7.401,7.401,7.408,7.4431,7.5063,7.5204,7.559,7.6292,7.6292,7.6362,7.6427,7.7094,7.7403,8.0235,7.9568,7.8631,7.7565,7.6639,7.4975,7.0877,6.9429,6.7232,6.1287,5.9381,5.8134,5.5936,5.8645,6.2127,6.4961,6.8963,7.2902,7.642,7.7205,7.7912,7.9137,7.9453,7.9523,7.95,8.022,8.0704,8.0704,8.146,8.1717,8.111,8.1755,8.2276,8.2499,8.2499,8.2488,8.2479,8.2479,8.206,8.1185,8.1185,8.0903,8.0392,8.0392,8.045,8.0506,8.0506,8.0411,8.0235,8.0215,8.0072,7.9919,7.9919,7.9898,7.9898,7.9898,7.9898,7.9898,7.9898,7.9924,7.9988,7.9941,7.9898,7.9898,7.9898,7.981,7.9683,7.966,7.9569,7.9406,7.9141,7.9066,7.8991,7.8602,7.8386,7.8378,7.8692,7.8075,7.7108,7.6012,7.5152,7.4631,7.4593,7.4777,7.4888,7.4888,7.5484,7.566,7.4993,7.4361,7.401,7.401,7.401,7.401,7.401,7.401,7.401,7.401,7.401,7.401,7.401,7.4572,7.4958,7.5098,7.573,7.6152,7.6292,7.6292,7.6561,7.695,7.709,7.739,8.0255,7.9203,7.7979,7.7197,7.5977,7.3588,6.8346,6.6505,6.4053,5.7415,5.5766,5.4855,5.2734,5.617,5.9874,6.1631,6.6372,7.0887,7.4078,7.5844,7.7255,7.8425,7.9071,7.9557,8.0009,8.0505,8.1013,8.1536,8.2483,8.2816,8.2399,8.3233,8.3711,8.3778,8.374,8.3573,8.3183,8.3183,8.2537,8.1246,8.1246,8.0912,8.0313,8.0313,8.0373,8.0506,8.0506,8.0392,8.0195,8.0195,8.0072,7.9898,7.9898,7.9898,7.9919,7.9924,7.9946,7.9967,8.0009,8.0072,8.0113,8.0051,8.0051,8.0051,8.0051,8.0009,7.9946,7.9881,7.98,7.969,7.9477,7.9359,7.9214,7.8812,7.8684,7.8758,7.905,7.8592,7.791,7.7163,7.6328,7.5797,7.5797,7.5763,7.5695,7.5695,7.6046,7.6152,7.5765,7.5028,7.4431,7.4045,7.401,7.415,7.4537,7.4572,7.4747,7.5168,7.5204,7.5204,7.5204,7.552,7.5865,7.6164,7.6549,7.6852,7.7153,7.7153,7.7243,7.7542,7.7542,7.7631,8.0253,7.8879,7.7424,7.7039,7.5411,7.2256,6.6098,6.3763,6.1018,5.4458,5.2825,5.2236,5.1011,5.4367,5.7839,5.9407,6.4372,6.9164,7.2391,7.507,7.7053,7.8076,7.8825,7.9674,8.0527,8.0872,8.1405,8.2368,8.3293,8.3854,8.3877,8.4522,8.4901,8.4901,8.4901,8.456,8.3877,8.3877,8.3043,8.1376,8.1376,8.0975,8.0195,8.0195,8.0314,8.0506,8.0506,8.0411,8.0235,8.0215,8.0093,7.9903,7.9903,7.9903,7.9924,8.003,8.0034,8.0034,8.0175,8.0215,8.0235,8.0235,8.0215,8.0195,8.0195,8.0195,8.0175,8.0075,8.0055,7.9992,7.9838,7.9683,7.9491,7.9179,7.9214,7.9258,7.9227,7.9085,7.8743,7.8099,7.7395,7.6891,7.6851,7.6675,7.6538,7.6538,7.6514,7.639,7.625,7.5317,7.4426,7.3694,7.3842,7.4291,7.5028,7.5098,7.5414,7.6257,7.6251,7.6211,7.6211,7.6345,7.6613,7.7034,7.7209,7.7473,7.7893,7.7893,7.785,7.7841,7.7841,7.7807,8.0165,7.8879,7.7404,7.6912,7.4807,7.1365,6.5723,6.2631,5.9421,5.3905,5.1644,5.0843,5.14,5.2468,5.4612,5.8816,6.2419,6.6554,7.195,7.4811,7.7068,7.8927,7.9273,7.966,8.0608,8.1542,8.2406,8.3223,8.4093,8.467,8.4764,8.4863,8.4901,8.4901,8.4901,8.4863,8.4787,8.4787,8.3953,8.2285,8.2285,8.1545,8.0195,8.0195,8.0314,8.0506,8.0506,8.045,8.0372,8.0235,8.0134,7.9971,7.9971,7.9971,7.9992,8.0134,8.0175,8.0175,8.0195,8.0255,8.0392,8.0392,8.0313,8.0195,8.0195,8.0195,8.0215,8.0257,8.0217,8.0137,8.0078,7.9912,7.9774,7.9814,8.0033,8.0043,7.9369,7.9521,7.9323,7.7839,7.7166,7.6851,7.6654,7.6976,7.731,7.731,7.7119,7.677,7.6044,7.4501,7.3209,7.2451,7.3351,7.4291,7.5028,7.5098,7.5414,7.6257,7.6053,7.5929,7.5929,7.6461,7.6795,7.6822,7.7484,7.7824,7.7893,7.7893,7.7798,7.7657,7.7657,7.749,7.9094,7.8318,7.7046,7.6286,7.3877,7.0296,6.4804,6.1664,5.851,5.3696,5.1476,5.0474,5.0702,5.1333,5.3048,5.6729,5.9562,6.279,6.7065,7.1533,7.4683,7.5445,7.8301,8.0533,8.1504,8.2312,8.3157,8.4012,8.439,8.4579,8.4665,8.4737,8.4784,8.4784,8.4854,8.4901,8.4901,8.4901,8.4067,8.2399,8.2399,8.1621,8.0195,8.0195,8.0314,8.0506,8.0506,8.045,8.0392,8.0235,8.0175,8.0134,8.0013,8.0034,8.0154,8.0255,8.0333,8.0333,8.0373,8.0411,8.045,8.045,8.0411,8.0392,8.0392,8.0392,8.0449,8.0486,8.0505,8.0543,8.0373,7.9996,7.9706,7.9903,8.0246,8.0415,7.9991,8.0144,8.0045,7.8897,7.7918,7.7139,7.6919,7.6563,7.6289,7.6289,7.6245,7.6083,7.5776,7.4691,7.3836,7.3566,7.2751,7.2717,7.3885,7.449,7.5257,7.6461,7.6911,7.7116,7.7116,7.7345,7.7433,7.7259,7.7572,7.7623,7.749,7.749,7.7446,7.7357,7.7357,7.7313,7.658,7.6368,7.5442,7.4338,7.1969,6.8483,6.3225,6.0253,5.7388,5.3112,5.1194,5.0263,5.0178,5.0564,5.1845,5.4683,5.7293,6.0344,6.4333,6.9231,7.2839,7.3859,7.7355,8.0226,8.1594,8.2872,8.3864,8.4393,8.4431,8.4406,8.4381,8.4481,8.4641,8.4713,8.4808,8.4854,8.4901,8.4901,8.4067,8.2399,8.2399,8.1621,8.0195,8.0195,8.0314,8.0506,8.0506,8.0468,8.043,8.0333,8.0255,8.0235,8.0154,8.0175,8.0255,8.0411,8.045,8.045,8.0487,8.0506,8.0506,8.0506,8.0525,8.0505,8.0505,8.056,8.0632,8.0685,8.0737,8.0792,8.056,8.0159,7.9886,8.0166,8.048,8.0666,8.0491,8.0545,8.04,7.94,7.8224,7.7273,7.6951,7.6139,7.5574,7.5574,7.5335,7.5142,7.5142,7.4165,7.3502,7.3502,7.1933,7.1647,7.3498,7.4139,7.5127,7.6611,7.7164,7.7588,7.7798,7.7754,7.7623,7.749,7.7446,7.7402,7.7223,7.7465,7.7568,7.7568,7.781,7.7868,7.2516,7.2645,7.205,7.0854,6.8715,6.567,6.0834,5.819,5.5659,5.1884,5.0528,5.0011,5.0011,5.0011,5.0769,5.3046,5.5943,5.9867,6.5493,6.8961,7.2191,7.5647,7.6759,7.8112,8.0377,8.3088,8.4554,8.4343,8.4317,8.4266,8.4136,8.424,8.4444,8.4713,8.4713,8.4784,8.4901,8.4901,8.4067,8.2399,8.2399,8.1621,8.0195,8.0195,8.0314,8.0506,8.0506,8.0506,8.0506,8.043,8.0392,8.0392,8.0392,8.0392,8.0411,8.0468,8.0506,8.0506,8.0506,8.0506,8.0506,8.0506,8.0542,8.0614,8.0614,8.0614,8.065,8.0838,8.0888,8.0838,8.0667,8.0468,8.0388,8.0719,8.0894,8.0916,8.0576,8.0613,8.0252,7.8794,7.7918,7.7184,7.6496,7.5986,7.5574,7.5574,7.4703,7.4038,7.4038,7.2475,7.1407,7.1407,7.0792,7.1519,7.4155,7.4411,7.5043,7.6565,7.6496,7.6793,7.7535,7.7357,7.7223,7.7223,7.7223,7.7223,7.7223,7.8017,7.8396,7.843,7.9155,7.9326,6.6271,6.6793,6.6583,6.5087,6.3563,6.1456,5.77,5.5984,5.4395,5.1662,5.0528,5.0011,5.0011,5.0011,5.1597,5.6495,5.8047,6.0532,6.5988,7.0373,7.3221,7.3847,7.7886,8.1338,8.3087,8.3992,8.4331,8.4189,8.4046,8.3982,8.4073,8.402,8.4087,8.4444,8.4579,8.4737,8.476,8.4854,8.4067,8.2399,8.2399,8.1577,8.0093,8.0154,8.0275,8.045,8.0487,8.0506,8.0506,8.043,8.043,8.045,8.043,8.045,8.0468,8.0506,8.0506,8.0506,8.0506,8.0506,8.0506,8.0506,8.0542,8.0632,8.0685,8.0754,8.0822,8.0975,8.0975,8.0871,8.0822,8.0667,8.045,8.0258,8.0821,8.1142,8.0223,8.0315,8.0216,7.8759,7.7229,7.5952,7.5224,7.4189,7.3459,7.3459,7.3181,7.2972,7.2972,7.2494,7.2152,7.2152,7.1798,7.1751,7.2306,7.2696,7.3293,7.424,7.4571,7.519,7.6173,7.6126,7.6439,7.7178,7.7223,7.7223,7.7223,7.7465,7.7478,7.7297,7.7914,7.8152,6.0219,6.1278,6.1206,6.0037,5.9153,5.7643,5.4422,5.3656,5.3019,5.0746,5.011,5.0011,5.0011,5.0011,5.1425,5.5805,5.7185,5.977,6.558,6.9654,7.2781,7.4858,7.9168,8.2446,8.3667,8.4024,8.4151,8.402,8.3822,8.3767,8.3913,8.3849,8.3902,8.4125,8.4381,8.4616,8.4713,8.4784,8.4172,8.2854,8.2551,8.1745,8.0486,8.0307,8.0255,8.0411,8.0468,8.0506,0.0,8.045,8.045,8.0506,8.045,8.045,8.0506,8.0506,8.0506,8.0506,8.0506,8.0506,8.0506,8.0506,8.056,8.0685,8.086,8.0926,8.0991,8.1077,8.1061,8.0975,8.0975,8.0838,8.0593,8.0141,8.0848,8.1292,8.0126,8.0269,8.0143,7.8641,7.6837,7.5335,7.4473,7.3337,7.2508,7.2508,7.2508,7.2508,7.2508,7.2508,7.2455,7.2348,7.2187,7.1939,7.1488,7.1796,7.2294,7.2979,7.3342,7.3972,7.4996,7.4996,7.5287,7.5986,7.5986,7.616,7.6473,7.7057,7.7411,7.7513,7.7793,7.789,0.0,5.5872,5.5729,5.5514,5.5164,5.411,5.1191,5.1269,0.0,4.9249,4.9376,4.9928,5.0199,5.0125,5.0676,5.267,5.4805,5.8437,6.497,6.8008,7.1909,7.8297,8.0651,8.2012,8.2786,8.3555,8.3945,8.3838,8.3712,8.3602,8.363,8.3767,8.3784,8.3811,8.4151,8.4406,8.4689,8.4713,8.433,8.3574,8.2816,8.2049,8.1246,8.059,8.0331,8.0392,8.0468,8.0506,8.0506,8.0506,8.0506,8.0506,8.0506,8.0506,8.0506,8.0506,8.0506,8.0506,8.0506,8.0506,8.0506,8.0525,8.0652,8.0826,8.1045,8.1093,8.1093,8.1093,8.1093,8.1093,8.1093,8.0991,8.0805,8.0449,8.1008,8.1357,8.0295,8.033,8.0071,7.844,7.6747,7.5287,7.4273,7.3214,7.2508,7.2508,7.2508,7.2508,7.2455,7.2455,7.2401,7.2079,7.2025,7.1916,7.1589,7.1589,7.1884,7.2644,7.2644,7.3064,7.382,7.3871,7.3922,7.3972,7.3972,7.4323,7.5094,7.6707,7.7801,7.8368,7.8394,7.8332,4.6848,0.0,4.906,4.9015,4.9381,4.9555,0.0,4.9158,4.9455,4.836,4.8289,4.928,5.2157,5.1267,5.2479,5.9736,6.1358,6.3797,6.9777,7.4223,7.8285,8.2221,8.2842,8.3581,8.5176,8.4685,8.4203,8.4177,8.3929,8.3822,8.3967,8.3876,8.3876,8.402,8.424,8.4394,8.453,8.4665,8.433,8.3574,8.3385,8.2573,8.1154,8.114,8.0824,8.0255,8.0431,8.0506,8.0506,8.0506,8.0506,8.0506,8.0506,8.0506,8.0506,8.0506,8.0506,8.0506,8.0506,8.0506,8.0525,8.0688,8.0758,8.0826,8.1045,8.1093,8.1093,8.1093,8.1093,8.1093,8.1093,8.0991,8.0855,8.0741,8.0921,8.1071,8.0671,8.0336,7.972,7.8547,7.6847,7.5287,7.4273,7.3214,7.2508,7.2508,7.2508,7.2455,7.224,7.2187,7.2079,7.1753,7.1534,7.1369,7.1314,7.1314,7.1337,7.1557,7.1392,7.1743,7.2717,7.2802,7.3187,7.3972,7.3972,7.3972,7.3906,7.5571,7.6035,7.5469,7.7254,7.7769,4.3068,4.544,4.7862,4.8148,4.878,4.9267,4.8914,4.8653,4.8299,4.7571,4.7638,4.8696,5.1396,5.2577,5.4667,5.9488,6.3415,6.7698,7.3012,7.7083,8.0396,8.2818,8.3247,8.3882,8.5386,8.4749,8.4242,8.4242,8.4035,8.3956,8.4035,8.4009,8.4024,8.4114,8.4305,8.4406,8.4481,8.4627,8.4519,8.4181,8.3764,8.293,8.1701,8.1499,8.0956,8.0215,8.0411,8.0506,8.0506,8.0506,8.0506,8.0506,8.0506,8.0506,8.0506,8.0506,8.0506,8.0506,8.0506,8.0506,8.0543,8.0741,8.0792,8.0826,8.1045,8.1093,8.1093,8.1093,8.1093,8.1093,8.1093,8.0991,8.0871,8.0809,8.1173,8.1414,8.0896,8.0603,8.0045,7.8705,7.6892,7.5287,7.4273,7.3214,7.2508,7.2508,7.2401,7.2294,7.2133,7.197,7.1753,7.1479,7.1314,7.1148,7.1037,7.1013,7.1013,7.1013,7.0901,7.1037,7.1634,7.1689,7.1928,7.2538,7.2769,7.2789,7.2599,7.4032,7.4746,7.4788,7.6391,7.7295,4.2252,4.6056,4.9742,4.9254,5.0,5.0583,4.9765,4.872,4.7733,4.7082,4.7527,4.8794,5.1227,5.4372,5.6992,5.8308,6.464,7.1012,7.5562,7.8563,8.0907,8.248,8.3033,8.3692,8.4683,8.4368,8.4092,8.4092,8.4116,8.4087,8.4087,8.4179,8.4268,8.4268,8.4456,8.453,8.453,8.4627,8.4784,8.4901,8.4143,8.3369,8.2595,8.1901,8.1147,8.0426,8.0469,8.0506,8.0506,8.0506,8.0506,8.0506,8.0506,8.0506,8.0506,8.0506,8.0506,8.0506,8.0506,8.0525,8.0562,8.0741,8.0809,8.0843,8.1045,8.1093,8.1093,8.1093,8.1093,8.1093,8.1093,8.0991,8.0871,8.0809,8.144,8.1792,8.0971,8.0861,8.0406,7.874,7.6892,7.5287,7.4273,7.3214,7.2508,7.2455,7.224,7.2079,7.197,7.1698,7.1424,7.1148,7.1148,7.1037,7.0845,7.0789,7.0789,7.0789,7.0789,7.0789,7.0789,7.0789,7.0701,7.0701,7.1084,7.1186,7.1186,7.2388,7.3554,7.4601,7.5705,7.6773,4.5191,5.0063,5.2907,4.6995,4.7775,4.9733,4.8516,4.8066,4.7898,4.7749,4.8269,5.0936,5.8084,5.7729,5.9031,6.718,7.1446,7.4938,7.8433,8.127,8.3399,8.4525,8.4095,8.408,8.5115,8.4293,8.371,8.371,8.4139,8.4431,8.4431,8.4456,8.4456,8.4456,8.4579,8.4689,8.4689,8.4713,8.4784,8.4901,8.4749,8.4302,8.3541,8.2834,8.2101,8.1364,8.0755,8.0506,8.0506,8.0506,8.0506,8.0506,8.0506,8.0506,8.0506,8.0506,8.0506,8.0506,8.0506,8.0523,8.0614,8.0758,8.0843,8.0926,8.1061,8.1093,8.1093,8.1093,8.1093,8.1093,8.1093,8.0991,8.0871,8.0809,8.102,8.1112,8.0859,8.0419,7.9756,7.8594,7.6892,7.5287,7.4273,7.3214,7.2455,7.2187,7.2133,7.1916,7.1424,7.1314,7.1148,7.0901,7.0845,7.0845,7.0789,7.0789,7.0789,7.0789,7.0789,7.0789,7.0789,7.0532,7.0363,7.0363,7.0161,6.9959,6.9703,7.0869,7.1688,7.2174,7.4989,7.6329,4.4022,4.8142,5.1248,4.873,5.2886,5.7239,5.5967,5.5344,5.4601,5.3119,5.3515,5.5512,6.0042,6.1636,6.5228,7.4375,7.5795,7.6837,7.9829,8.1408,8.2573,8.3497,8.3292,8.3307,8.3816,8.3762,8.3702,8.3702,8.4339,8.4737,8.4737,8.4737,8.4722,8.4755,8.4385,8.4454,8.4977,8.4454,8.4446,8.4901,8.4901,8.4514,8.3753,8.3024,8.2312,8.1574,8.0812,8.0506,8.0506,8.0506,8.0506,8.0506,8.0506,8.0506,8.0506,8.0506,8.0506,8.0506,8.0506,8.0542,8.0632,8.0758,8.086,8.0943,8.1061,8.1093,8.1093,8.1093,8.1093,8.1077,8.0991,8.0926,8.0788,8.0632,8.1029,8.1277,8.0654,8.0388,7.9789,7.8335,7.6576,7.5079,7.4054,7.3005,7.224,7.2133,7.1807,7.1534,7.1258,7.1037,7.0957,7.0845,7.0789,7.0789,7.0789,7.0789,7.0789,7.0789,7.0789,7.0733,7.0532,7.0419,7.0218,7.0047,6.9761,6.953,6.9387,7.0478,7.1222,7.173,7.4293,7.5644,4.3263,4.6617,5.0042,5.16,5.6809,6.164,6.1987,6.1127,6.003,5.9047,5.9668,6.0877,6.2471,6.6312,7.1441,7.8104,7.8405,7.8668,8.1014,8.1599,8.1915,8.2334,8.233,8.2339,8.2416,8.3122,8.359,8.353,8.4408,8.4924,8.4901,8.4924,8.4878,8.4702,8.4117,8.4068,8.461,8.4106,8.4186,8.4909,8.4901,8.4628,8.41,8.3122,8.2447,8.188,8.0927,8.0506,8.0506,8.0506,8.0506,8.0506,8.0506,8.0506,8.0506,8.0506,8.0506,8.0506,8.0543,8.056,8.0667,8.0792,8.0877,8.0975,8.1077,8.1093,8.1093,8.1061,8.1061,8.1045,8.0975,8.086,8.0667,8.0448,8.1084,8.1483,8.0422,8.0356,7.992,7.8069,7.6382,7.4884,7.38,7.2794,7.2079,7.1916,7.1479,7.1203,7.1092,7.0957,7.0789,7.0789,7.0789,7.0789,7.0789,7.0733,7.0645,7.0645,7.0645,7.0532,7.0218,7.0104,6.9933,6.9703,6.9414,6.9298,6.9298,7.0055,7.0748,7.1305,7.3201,7.4346,4.5602,4.9187,5.2425,5.4416,5.4377,5.523,6.029,5.9595,5.9075,6.3444,6.5079,6.6382,6.8385,7.2191,7.5259,7.6087,7.8986,8.1549,8.2608,8.3313,8.3452,8.2765,8.2074,8.1682,8.1669,8.2469,8.2924,8.2783,8.4138,8.4977,8.4901,8.4977,8.4664,8.3905,8.3899,8.3561,8.2897,8.3523,8.428,8.4984,8.4909,8.4977,8.5045,8.343,8.2792,8.2798,8.1194,8.0506,8.0506,8.0506,8.0506,8.0506,8.0506,8.0506,8.0506,8.0506,8.0506,8.0525,8.0578,8.0667,8.0792,8.0893,8.0975,8.1093,8.1093,8.1093,8.1077,8.0959,8.0904,8.0959,8.1061,8.086,8.0578,8.0373,8.0975,8.133,8.0245,8.0198,7.9804,7.8027,7.6382,7.4835,7.3544,7.2635,7.1916,7.1369,7.1203,7.1092,7.0845,7.0845,7.0789,7.0789,7.0789,7.0789,7.0789,7.0532,7.0363,7.0363,7.0363,7.0161,6.9875,6.9588,6.9445,6.9445,6.9123,6.8948,6.8948,6.8982,6.9379,7.0053,7.1316,7.2294,4.3769,4.8596,5.321,5.3761,5.6241,5.979,6.4376,6.6344,6.7815,7.0131,7.1526,7.2123,7.145,7.5331,7.817,7.6766,7.9359,8.1672,8.1946,8.2713,8.2962,8.2124,8.1842,8.1519,8.0984,8.2109,8.283,8.2707,8.4122,8.4961,8.4901,8.4977,8.467,8.3899,8.3472,8.3135,8.2872,8.2622,8.2904,8.3701,8.4638,8.5176,8.5287,8.361,8.2891,8.2913,8.1232,8.0506,8.0506,8.0506,8.0506,8.0506,8.0506,8.0506,8.0506,8.0506,8.0506,8.0525,8.0578,8.0685,8.0809,8.0893,8.0991,8.1077,8.0991,8.0975,8.0959,8.0877,8.0771,8.072,8.0771,8.065,8.0545,8.06,8.09,8.0953,8.0262,7.9936,7.9179,7.7458,7.5824,7.4356,7.3233,7.2208,7.1479,7.1203,7.1037,7.0869,7.0845,7.0789,7.0789,7.0789,7.0789,7.0733,7.0532,7.0363,7.0104,6.9761,6.9875,6.9875,6.953,6.9414,6.9298,6.9065,6.8948,6.8889,6.8889,6.932,6.9443,6.9289,7.0624,7.108,4.4624,4.9308,5.4428,5.5482,5.8627,6.2856,6.8159,7.0641,7.2655,7.5447,7.6184,7.5838,7.4211,7.692,7.8927,7.7568,7.9773,8.1632,8.1534,8.2108,8.2224,8.1346,8.1347,8.1156,8.0544,8.1977,8.2871,8.2707,8.4165,8.5006,8.4932,8.5044,8.4622,8.3624,8.3176,8.2683,8.2225,8.1843,8.1957,8.2567,8.388,8.4546,8.4549,8.3138,8.2549,8.2531,8.1117,8.0506,8.0506,8.0506,8.0506,8.0506,8.0506,8.0506,8.0506,8.0506,8.0506,8.0525,8.0614,8.0702,8.0809,8.0926,8.1045,8.1077,8.0959,8.0888,8.0855,8.0775,8.0667,8.0596,8.0542,8.043,8.0388,8.0674,8.0755,8.0671,8.0213,7.968,7.877,7.7016,7.5397,7.3988,7.292,7.1884,7.1148,7.1092,7.0957,7.0789,7.0789,7.0789,7.0789,7.0645,7.0645,7.0532,7.0161,7.0047,6.9818,6.9445,6.9472,6.9414,6.924,6.924,6.9123,6.8889,6.8889,6.8889,6.8889,6.9351,6.9351,6.8889,6.9962,7.0207,4.9148,5.2104,5.6353,6.0428,6.1037,6.2716,7.0698,7.0916,7.1484,7.8712,7.8511,7.7003,7.7003,7.703,7.7291,7.8146,8.0265,8.1805,8.1805,8.1805,8.1461,8.0582,8.0506,8.0506,8.0506,8.1996,8.2912,8.2728,8.4268,8.5116,8.5006,8.5116,8.45,8.2947,8.297,8.2187,8.0506,8.1347,8.1805,8.1805,8.2607,8.2931,8.2871,8.1993,8.1671,8.1767,8.0888,8.0506,8.0506,8.0506,8.0506,8.0506,8.0506,8.0506,8.0506,8.0506,8.0506,8.0543,8.0723,8.0792,8.0826,8.1029,8.1093,8.1077,8.0959,8.0888,8.0855,8.0667,8.0614,8.056,8.045,8.0195,8.0098,8.0513,8.0586,8.0489,8.0086,7.953,7.8641,7.7016,7.5287,7.3749,7.2688,7.1807,7.1092,7.0845,7.0789,7.0789,7.0789,7.0789,7.0645,7.0363,7.0306,7.0161,6.9787,6.953,6.9387,6.9387,6.9065,6.8889,6.8889,6.8889,6.8889,6.8889,6.8889,6.8889,6.8889,6.8889,6.8889,6.8889,6.924,6.9387,4.57,5.2615,5.9974,5.8785,6.5375,7.249,7.37,7.3582,7.4561,7.9391,7.979,7.8812,7.7273,7.836,7.9033,7.7628,7.9358,8.0888,8.0888,8.0888,8.0773,8.0544,8.0506,8.0506,8.0506,8.1499,8.2359,8.2792,8.3839,8.4636,8.5138,8.4691,8.3974,8.2947,8.2435,8.1614,8.0506,8.0773,8.0888,8.0888,8.1117,8.1862,8.2951,8.2111,8.1767,8.1767,8.0888,8.0506,8.0506,8.0506,8.0506,8.0506,8.0506,8.0506,8.0506,8.0506,8.0506,8.0543,8.0723,8.0792,8.0826,8.1029,8.1093,8.1061,8.0877,8.0826,8.0792,8.0598,8.0506,8.0392,8.0195,7.9865,7.9857,8.0918,8.0581,8.0042,8.0224,7.9387,7.8217,7.6508,7.4899,7.3511,7.2635,7.1644,7.0901,7.0845,7.0789,7.0789,7.0789,7.0589,7.0419,7.0306,7.0104,6.9818,6.953,6.9445,6.9298,6.9065,6.8948,6.8889,6.8889,6.8889,6.8889,6.8889,6.8889,6.8889,6.8889,6.8889,6.8889,6.8889,6.924,6.9387,5.1306,5.789,6.4567,6.5591,7.0891,7.6031,7.6753,7.6982,7.7719,8.003,8.04,7.9905,7.8623,7.9554,8.0046,7.8624,7.9554,8.0506,8.0506,8.0506,8.0506,8.0506,8.0506,8.0506,8.0506,8.1308,8.2111,8.2832,8.3671,8.4431,8.5245,8.4546,8.373,8.2968,8.2187,8.1385,8.0506,8.0543,8.0523,8.0523,8.0523,8.1059,8.2014,8.1518,8.127,8.1232,8.0735,8.0506,8.0506,8.0506,8.0506,8.0506,8.0506,8.0506,8.0506,8.0506,8.0506,8.0543,8.0723,8.0792,8.0826,8.1029,8.1093,8.1061,8.0843,8.0792,8.0758,8.0562,8.0431,8.0333,7.9992,7.9585,7.954,8.081,8.0369,7.9796,8.0043,7.917,7.7875,7.6173,7.4555,7.3168,7.2443,7.1479,7.0789,7.0789,7.0789,7.0789,7.0589,7.0419,7.0218,6.9933,6.9761,6.953,6.924,6.9182,6.9123,6.8889,6.8889,6.8889,6.8889,6.8889,6.8889,6.8889,6.8889,6.8889,6.8889,6.8889,6.8948,6.9123,6.9414,6.9646,6.1311,6.5228,6.9153,7.6592,7.6419,7.5521,7.949,8.0431,8.0506,8.0506,8.0506,8.0506,8.0506,8.0506,8.0525,8.0525,8.0525,8.0543,8.0543,8.0543,8.0525,8.0525,8.0525,8.0525,8.0506,8.1232,8.2034,8.2852,8.3595,8.4358,8.5256,8.4472,8.3655,8.2913,8.2111,8.1308,8.0525,8.0578,8.0614,8.0632,8.0632,8.0632,8.0632,8.0562,8.0506,8.0506,8.0506,8.0506,8.0506,8.0506,8.0506,8.0506,8.0506,8.0506,8.0506,8.0506,8.0506,8.0543,8.0723,8.0792,8.0826,8.1029,8.1093,8.1061,8.086,8.0792,8.0758,8.0562,8.0431,8.0255,7.9886,7.9378,7.9215,8.0162,7.9922,7.9536,7.9703,7.8846,7.758,7.5892,7.429,7.2907,7.2176,7.1337,7.0789,7.0789,7.0757,7.0645,7.0306,7.0218,6.999,6.9352,6.9325,6.924,6.8855,6.8858,6.8889,6.8889,6.8889,6.8889,6.8889,6.8889,6.8889,6.8889,6.8889,6.8889,6.8889,6.8889,6.9065,6.9445,6.9703,6.999,5.5879,6.2522,6.9569,7.3212,7.656,7.9201,8.0162,8.0431,8.0506,8.0506,8.0506,8.0506,8.0506,8.0523,8.0578,8.0578,8.0688,8.0741,8.0741,8.0741,8.0705,8.0596,8.0578,8.056,8.0525,8.0659,8.1385,8.2894,8.3161,8.36,8.4478,8.3715,8.2856,8.2073,8.1232,8.0696,8.0578,8.0596,8.065,8.0758,8.0758,8.0758,8.0758,8.058,8.0506,8.0506,8.0506,8.0506,8.0506,8.0506,8.0506,8.0506,8.0506,8.0506,8.0506,8.0506,8.0506,8.0543,8.0723,8.0792,8.0826,8.1029,8.1093,8.1077,8.0926,8.0843,8.0758,8.0562,8.0314,7.9992,7.9585,7.9004,7.8617,7.8809,7.8788,7.8852,7.9167,7.8427,7.7175,7.5642,7.4189,7.2907,7.2176,7.1337,7.0733,7.0476,7.0419,7.0306,6.9933,6.9703,6.9344,6.8701,6.8873,6.8732,6.8181,6.8612,6.8889,6.8889,6.8889,6.8889,6.8889,6.8889,6.8889,6.8889,6.8889,6.8889,6.8889,6.8889,6.9065,6.9445,6.9703,6.999,5.7255,6.3547,6.9582,7.5258,7.854,8.0411,8.0487,8.0506,8.0525,8.0523,8.0505,8.0525,8.0523,8.0578,8.0632,8.0667,8.0758,8.0792,8.0792,8.0792,8.0775,8.0685,8.065,8.0596,8.0542,8.0543,8.1194,8.2875,8.299,8.3372,8.425,8.3448,8.2607,8.1843,8.0964,8.056,8.0614,8.0702,8.0771,8.086,8.086,8.0843,8.0792,8.0614,8.0505,8.0506,8.0506,8.0506,8.0506,8.0506,8.0506,8.0506,8.0506,8.0506,8.0506,8.0523,8.0542,8.056,8.0792,8.086,8.0877,8.1045,8.1093,8.1077,8.091,8.086,8.0809,8.0525,8.0197,7.9849,7.934,7.87,7.8191,7.8102,7.8252,7.8423,7.843,7.7845,7.6861,7.5402,7.4021,7.2782,7.196,7.1116,7.0476,7.0363,6.9879,6.9489,6.9148,6.8696,6.8183,6.776,6.7866,6.7812,6.7473,6.775,6.7935,6.7935,6.7935,6.7935,6.7935,6.8243,6.8581,6.8889,6.8889,6.8889,6.8889,6.9065,6.9298,6.9588,6.9875,7.0218,5.8543,6.4574,6.9821,7.8464,8.0587,8.056,8.0632,8.0578,8.058,8.0614,8.056,8.0523,8.0614,8.065,8.0685,8.0809,8.0826,8.0843,8.0843,8.0843,8.0826,8.0826,8.0702,8.0632,8.0614,8.0523,8.1156,8.2684,8.2798,8.3104,8.383,8.3181,8.2416,8.1614,8.0942,8.0614,8.0632,8.0805,8.0888,8.0943,8.0943,8.091,8.0809,8.0685,8.0578,8.0525,8.0525,8.0506,8.0506,8.0506,8.0506,8.0506,8.0506,8.0506,8.0525,8.0578,8.0614,8.0632,8.0822,8.0888,8.0943,8.1045,8.1077,8.1045,8.086,8.0843,8.0754,8.045,8.0116,7.9643,7.9053,7.8383,7.7777,7.7473,7.7625,7.7772,7.7439,7.7058,7.6371,7.4944,7.3599,7.2358,7.1342,7.0623,7.0086,6.9816,6.9089,6.8432,6.8179,6.7626,6.7111,6.6735,6.6858,6.6858,6.6765,6.6858,6.6919,6.6919,6.6919,6.6919,6.6919,6.7442,6.8058,6.8705,6.8828,6.8889,6.8889,6.924,6.953,6.9787,7.0161,7.0476,5.0578,6.0506,7.1171,7.7926,8.0217,8.0822,8.0792,8.0758,8.0758,8.0775,8.0667,8.0632,8.0758,8.0843,8.0855,8.0871,8.0975,8.1061,8.1061,8.1061,8.1029,8.091,8.0826,8.0741,8.0614,8.0523,8.0926,8.1881,8.1958,8.1996,8.2149,8.2034,8.1576,8.0697,8.0636,8.065,8.0775,8.0877,8.0959,8.1077,8.1077,8.0991,8.0871,8.0809,8.0723,8.0596,8.0543,8.0506,8.0506,8.0506,8.0506,8.0506,8.0506,8.0506,8.0525,8.0578,8.0614,8.0632,8.0822,8.0888,8.0888,8.0943,8.0943,8.0943,8.0871,8.072,8.0543,8.0354,7.9912,7.9317,7.8648,7.7875,7.7107,7.6311,7.6087,7.6045,7.6105,7.582,7.5195,7.3833,7.26,7.131,6.9825,6.9507,6.9008,6.7878,6.761,6.7378,6.7156,6.7007,6.673,6.6088,6.655,6.6673,6.6088,6.6581,6.6919,6.6919,6.6919,6.6919,6.6919,6.7012,6.735,6.8027,6.8612,6.8889,6.8889,6.924,6.953,6.9787,7.0161,7.0476,5.3048,6.2095,7.0479,7.7566,8.0037,8.0685,8.0843,8.0826,8.0809,8.086,8.0805,8.0788,8.086,8.0855,8.0904,8.0991,8.1061,8.1093,8.1093,8.1093,8.1077,8.1007,8.0877,8.0775,8.0741,8.0598,8.085,8.1729,8.1805,8.1805,8.1805,8.1805,8.1385,8.0544,8.0652,8.0758,8.0792,8.0926,8.1061,8.1093,8.1093,8.1077,8.0991,8.086,8.0741,8.0614,8.0505,8.0506,8.0506,8.0506,8.0506,8.0506,8.0506,8.0505,8.056,8.0667,8.072,8.0788,8.0959,8.0959,8.0888,8.0991,8.0926,8.0843,8.0754,8.0614,8.0354,8.0017,7.9547,7.9028,7.8329,7.7563,7.6797,7.5965,7.5331,7.4738,7.4292,7.4325,7.3916,7.2002,7.0894,6.9877,6.8847,6.8364,6.799,6.7398,6.6832,6.6473,6.6334,6.6027,6.5657,6.538,6.5596,6.5657,6.5349,6.5626,6.578,6.578,6.578,6.578,6.578,6.615,6.6488,6.6796,6.7812,6.852,6.8889,6.8984,6.9329,6.9787,6.9923,7.0266,5.2971,5.9822,6.5615,7.4294,7.7551,7.9,8.0541,8.0877,8.0877,8.0943,8.0959,8.0959,8.0959,8.0959,8.0975,8.1077,8.1093,8.1093,8.1093,8.1093,8.1093,8.1093,8.0926,8.0826,8.0792,8.0652,8.0811,8.1423,8.1461,8.1461,8.1461,8.1461,8.1174,8.0543,8.0705,8.0809,8.0826,8.1013,8.1093,8.1093,8.1093,8.1093,8.1093,8.0893,8.0754,8.0685,8.0542,8.0506,8.0506,8.0506,8.0506,8.0506,8.0506,8.0523,8.0632,8.0758,8.0843,8.091,8.1061,8.0991,8.0888,8.0943,8.086,8.0685,8.0542,8.0354,8.0101,7.9614,7.9174,7.8611,7.7949,7.7175,7.6373,7.5584,7.4675,7.3742,7.2893,7.2867,7.239,7.055,6.9553,6.8717,6.7872,6.7312,6.697,6.6734,6.6077,6.5657,6.5657,6.5226,6.4888,6.4888,6.4888,6.4888,6.4888,6.4888,6.4888,6.4888,6.4888,6.4888,6.4888,6.538,6.5719,6.5903,6.6888,6.772,6.8397,6.8536,6.882,6.9288,6.9374,6.9809,4.4013,4.8655,5.436,6.5803,7.1056,7.4712,7.9678,8.0965,8.1077,8.1093,8.1093,8.1093,8.1093,8.1093,8.1093,8.1093,8.1093,8.1093,8.1093,8.1093,8.1093,8.1093,8.0975,8.0893,8.0809,8.0667,8.0598,8.0544,8.0582,8.0582,8.0582,8.0582,8.0581,8.0596,8.0741,8.0826,8.0871,8.1045,8.1093,8.1093,8.1093,8.1093,8.1093,8.0959,8.0871,8.0855,8.0596,8.0506,8.0506,8.0506,8.0506,8.0506,8.0506,8.0523,8.0632,8.0758,8.0792,8.0826,8.1029,8.0991,8.0855,8.0685,8.0632,8.056,8.0238,7.9912,7.9585,7.9293,7.8752,7.8053,7.7261,7.6501,7.5724,7.475,7.3944,7.3185,7.245,7.1412,7.042,7.0021,6.9255,6.8233,6.6696,6.635,6.6053,6.5159,6.498,6.4949,6.4949,6.4918,6.4888,6.4888,6.4888,6.4888,6.4888,6.4888,6.4888,6.4888,6.4888,6.4888,6.4888,6.4918,6.5257,6.5903,6.5965,6.6334,6.7012,6.7604,6.7884,6.7915,6.8493,6.9114,4.3131,4.6726,5.0632,5.9474,6.6132,7.1171,7.3694,7.7645,8.0788,8.0877,8.1013,8.1093,8.1093,8.1093,8.1093,8.1093,8.1093,8.1093,8.1093,8.1093,8.1093,8.1093,8.0975,8.0855,8.0809,8.0667,8.0578,8.0525,8.0506,8.0506,8.0506,8.0506,8.0523,8.0614,8.0741,8.086,8.1045,8.1077,8.1093,8.1093,8.1093,8.1093,8.1093,8.0959,8.0888,8.0871,8.0758,8.0688,8.0688,8.0688,8.0688,8.0688,8.0688,8.0705,8.0758,8.0843,8.0877,8.0893,8.0943,8.0877,8.0702,8.0522,8.0354,8.0139,7.987,7.9502,7.9126,7.8674,7.8165,7.7599,7.6856,7.6236,7.5442,7.4026,7.306,7.2159,7.1322,7.0272,6.9222,6.8454,6.7599,6.6735,6.5809,6.5503,6.5276,6.4918,6.4888,6.4888,6.4888,6.4888,6.4888,6.4888,6.4888,6.4888,6.4888,6.4888,6.4888,6.4888,6.4888,6.4888,6.4888,6.4888,6.5011,6.5257,6.5257,6.5811,6.6919,6.702,6.7354,6.779,6.7926,6.8355,4.0091,4.2858,4.6216,5.4208,5.9736,6.4754,7.0448,7.4541,7.7837,8.0084,8.0775,8.0926,8.0997,8.1061,8.1093,8.1093,8.1093,8.1093,8.1093,8.1093,8.1093,8.1093,8.1007,8.0943,8.0843,8.072,8.0614,8.0523,8.0525,8.0506,8.0506,8.0505,8.0578,8.0702,8.0843,8.0981,8.1093,8.1093,8.1093,8.1093,8.1093,8.1093,8.1093,8.0991,8.0975,8.0959,8.091,8.0843,8.0792,8.0792,8.0792,8.0792,8.0758,8.0792,8.0843,8.0805,8.0805,8.0805,8.0805,8.065,8.0411,8.0258,8.0058,7.9784,7.9425,7.9028,7.8622,7.8118,7.7599,7.7051,7.6472,7.5689,7.475,7.3386,7.2347,7.1433,7.0469,6.9526,6.855,6.7407,6.6523,6.5808,6.5242,6.4998,6.4888,6.4888,6.4888,6.4888,6.4888,6.4888,6.4888,6.4888,6.4888,6.4888,6.4888,6.4888,6.4888,6.4888,6.4888,6.4888,6.4888,6.4888,6.4888,6.4888,6.4888,6.5349,6.6242,6.6361,6.6636,6.7104,6.7202,6.766,0.0,0.0,0.0,4.966,5.1775,5.5379,6.9973,7.1738,7.2146,7.8453,8.0182,8.0593,8.072,8.0888,8.1038,8.1077,8.1093,8.1093,8.1093,8.1093,8.1093,8.1093,8.1093,8.1061,8.0904,8.0843,8.0758,8.0632,8.0542,8.0525,8.0525,8.0578,8.0702,8.0888,8.1007,8.1093,8.1093,8.1093,8.1093,8.1093,8.1093,8.1093,8.1093,8.1093,8.1093,8.1093,8.1093,8.0997,8.0809,8.0809,8.0809,8.0792,8.0667,8.0737,8.0855,8.0685,8.0614,8.0596,8.0596,8.0373,8.0058,7.9849,7.9674,7.9471,7.8878,7.8421,7.809,7.7599,7.7019,7.6406,7.6072,7.4934,7.3667,7.2811,7.1883,7.094,7.0002,6.914,6.8269,6.7118,6.6258,6.5538,6.4998,6.4888,6.4888,6.4888,6.4888,6.4888,6.4888,6.4888,6.4888,6.4888,6.4888,6.4888,6.4888,6.4888,6.4888,6.4888,6.4888,6.4888,6.4888,6.4888,6.4888,6.4888,6.4888,6.4888,6.4888,6.546,6.57,6.57,6.6321,6.6965,3.4444,0.0,0.0,0.0,0.0,0.0,5.5019,6.2858,6.9558,7.1444,7.5664,7.9089,7.9324,7.9456,7.9887,8.0728,8.1013,8.1093,8.1093,8.1093,8.1093,8.1093,8.1093,8.1061,8.0904,8.0871,8.086,8.0758,8.0741,8.0723,8.0723,8.0771,8.0838,8.0888,8.1007,8.1093,8.1093,8.1093,8.1093,8.1093,8.1093,8.1093,8.1093,8.1093,8.1093,8.1093,8.1093,8.1061,8.1029,8.1029,8.1029,8.1013,8.0997,8.086,8.0702,8.072,8.0542,8.0258,8.0258,8.0037,7.9696,7.9317,7.9115,7.8852,7.8239,7.7863,7.757,7.692,7.657,7.6174,7.5407,7.4446,7.3507,7.2769,7.1883,7.094,7.0002,6.8994,6.8,6.6869,6.613,6.5538,6.4998,6.4888,6.4888,6.4888,6.4888,6.4888,6.4888,6.4888,6.4888,6.4888,6.4888,6.4888,6.4888,6.4888,6.4888,6.4888,6.4888,6.4888,6.4888,6.4888,6.4888,6.4888,6.4888,6.4888,6.4888,6.546,6.57,6.57,6.6321,6.6965,0.0,0.0,0.0,3.939,0.0,0.0,5.1799,5.8514,6.4774,6.9566,7.4076,7.7287,7.7575,7.7914,7.8406,7.9152,7.9507,7.9966,8.0946,8.1093,8.1093,8.1093,8.1093,8.1077,8.0991,8.0943,8.0871,8.086,8.0809,8.0809,8.0843,8.0893,8.0943,8.0975,8.1061,8.1093,8.1093,8.1093,8.1093,8.1093,8.1093,8.1093,8.1093,8.1093,8.1093,8.1093,8.1093,8.1045,8.0981,8.0981,8.1013,8.0991,8.0926,8.0737,8.0503,8.0486,8.0219,7.9891,7.9768,7.9502,7.9163,7.87,7.8474,7.8211,7.7577,7.7237,7.6988,7.6439,7.6072,7.562,7.4782,7.4057,7.3386,7.2644,7.183,7.094,7.0002,6.8945,6.7899,6.6796,6.6108,6.5538,6.4998,6.4888,6.4888,6.4888,6.4888,6.4888,6.4888,6.4888,6.4888,6.4888,6.4888,6.4888,6.4888,6.4888,6.4888,6.4888,6.4888,6.4888,6.4888,6.4888,6.4888,6.4888,6.4888,6.4943,6.5053,6.5483,6.5808,6.6076,6.6427,6.6807,3.7444,3.777,0.0,0.0,4.1155,0.0,5.3694,5.5987,5.8497,6.8058,7.1827,7.3464,7.3899,7.4591,7.5192,7.5437,7.6125,7.7627,8.052,8.0907,8.0962,8.1093,8.1077,8.1077,8.1093,8.0975,8.0888,8.0943,8.086,8.086,8.0943,8.0904,8.0975,8.1093,8.1093,8.1093,8.1093,8.1093,8.1093,8.1093,8.1093,8.1077,8.1061,8.1061,8.1061,8.1029,8.1029,8.0893,8.0741,8.0723,8.0737,8.0805,8.065,8.0467,8.0278,8.0017,7.974,7.9471,7.9174,7.8866,7.8512,7.8034,7.7813,7.7547,7.6897,7.657,7.6339,7.6003,7.5514,7.4894,7.4206,7.3777,7.334,7.2509,7.1742,7.0985,7.0049,6.8994,6.7899,6.6796,6.6108,6.5538,6.4998,6.4888,6.4888,6.4888,6.4888,6.4888,6.4888,6.4888,6.4888,6.4888,6.4888,6.4888,6.4888,6.4888,6.4888,6.4888,6.4888,6.4888,6.4888,6.4888,6.4888,6.4888,6.4888,6.5053,6.5297,6.5538,6.5969,6.6565,6.6617,6.6617,4.0083,4.0851,4.1779,4.0633,0.0,0.0,4.158,4.6877,5.1855,5.1119,5.5704,6.0167,6.1015,6.2257,6.3475,6.4406,6.8067,7.2824,7.8821,7.9736,8.0142,8.1,8.0991,8.0975,8.1093,8.0975,8.0959,8.1061,8.1045,8.1045,8.1061,8.1061,8.1077,8.1093,8.1093,8.1093,8.1093,8.1093,8.1093,8.1093,8.1093,8.1013,8.0843,8.0843,8.0758,8.0616,8.0505,8.0449,8.0392,8.0141,8.0219,8.0392,8.0354,8.0119,7.9724,7.9509,7.9198,7.8852,7.8528,7.8202,7.79,7.7359,7.7082,7.6897,7.6342,7.6002,7.576,7.5262,7.4707,7.4206,7.4049,7.3577,7.3012,7.2713,7.2038,7.1255,7.0283,6.9204,6.8151,6.6849,6.6108,6.5538,6.4998,6.4888,6.4888,6.4888,6.4888,6.4888,6.4888,6.4888,6.4888,6.4888,6.4888,6.4888,6.4888,6.4888,6.4888,6.4888,6.4888,6.4888,6.4888,6.4888,6.4888,6.4888,6.4888,6.5053,6.5297,6.5538,6.5893,6.6246,6.6512,6.6617,4.2196,4.2563,4.3243,4.2415,0.0,0.0,0.0,4.5747,4.9021,5.0089,5.2706,5.5312,5.6759,5.7698,5.858,5.9568,6.3192,6.6893,6.9822,7.4468,7.7818,7.8479,7.9407,8.0047,8.0169,8.0674,8.1045,8.1093,8.1093,8.1093,8.1093,8.1093,8.1061,8.0965,8.0877,8.0809,8.0685,8.0632,8.0614,8.0614,8.0614,8.0503,8.0354,8.0354,8.02,7.9961,7.9861,7.9756,7.9583,7.9343,7.9227,7.9303,7.9561,7.9464,7.9077,7.8841,7.84,7.7912,7.768,7.7383,7.7051,7.6501,7.6306,7.6138,7.562,7.5262,7.4897,7.4555,7.4132,7.3777,7.3537,7.3252,7.288,7.2459,7.1864,7.112,7.019,6.914,6.805,6.6849,6.6108,6.5538,6.4998,6.4888,6.4888,6.4888,6.4888,6.4888,6.4888,6.4888,6.4888,6.4888,6.4888,6.4888,6.4888,6.4888,6.4888,6.4888,6.4888,6.4888,6.4888,6.4888,6.4888,6.4888,6.4888,6.4943,6.5108,6.5483,6.5893,6.6224,6.6459,6.6617,0.0,0.0,0.0,0.0,0.0,4.351,0.0,0.0,0.0,5.0671,5.1016,5.1105,5.2807,5.3332,5.3754,5.4449,5.7625,5.9541,5.8208,6.5789,7.1949,7.3323,7.5941,7.7588,7.7399,7.7923,7.8748,7.991,7.9071,7.9033,8.0196,8.0426,8.0434,8.0217,8.0239,8.0182,7.9982,7.984,7.9777,7.9777,7.9718,7.9632,7.9501,7.9441,7.9267,7.8959,7.8911,7.8729,7.8461,7.8213,7.7951,7.7875,7.8562,7.8588,7.8292,7.7997,7.7496,7.6977,7.6761,7.6501,7.6169,7.5655,7.5442,7.5263,7.4784,7.4405,7.4132,7.3896,7.3657,7.334,7.3046,7.2838,7.2594,7.2072,7.1467,7.0849,6.9955,6.8945,6.7899,6.6796,6.6108,6.5538,6.4998,6.4888,6.4888,6.4888,6.4888,6.4888,6.4888,6.4888,6.4888,6.4888,6.4888,6.4888,6.4888,6.4888,6.4888,6.4888,6.4888,6.4888,6.4888,6.4888,6.4888,6.4888,6.4888,6.4888,6.4888,6.5406,6.5785,6.6085,6.6459,6.6617,0.0,0.0,0.0,0.0,4.6453,0.0,0.0,0.0,4.1922,3.9396,0.0,3.995,4.0749,0.0,0.0,4.2241,4.6933,4.9789,4.7342,5.2545,5.8532,6.369,6.91,7.1962,7.0636,6.8973,7.0217,7.5648,7.1874,7.1648,7.6987,7.7971,7.8261,7.8051,7.8745,7.9029,7.8887,7.869,7.8603,7.8603,7.8416,7.8237,7.8048,7.7838,7.7645,7.7443,7.7149,7.6998,7.6907,7.6473,7.6283,7.6352,7.7349,7.7599,7.7316,7.6783,7.6498,7.6236,7.5759,7.5584,7.5442,7.4823,7.4408,7.4061,7.3826,7.3742,7.3662,7.3456,7.3129,7.2797,7.2755,7.2253,7.1732,7.1644,7.1109,7.0423,6.9827,6.8912,6.7899,6.6796,6.6108,6.5538,6.4998,6.4888,6.4888,6.4888,6.4888,6.4888,6.4888,6.4888,6.4888,6.4888,6.4888,6.4888,6.4888,6.4888,6.4888,6.4888,6.4888,6.4888,6.4888,6.4888,6.4888,6.4888,6.4888,6.4888,6.4888,6.5187,6.5515,6.5754,6.6321,6.6617,0.0,0.0,0.0,0.0,0.0,0.0,4.1679,0.0,4.0442,3.9479,0.0,0.0,0.0,0.0,0.0,0.0,4.2493,4.3809,4.1098,4.5154,5.0656,5.674,6.1096,6.4439,6.6533,6.701,6.8309,7.1141,7.0239,7.0933,7.4026,7.5233,7.592,7.6171,7.6753,7.6965,7.6801,7.6619,7.6558,7.6558,7.6428,7.6277,7.5923,7.5858,7.5629,7.5222,7.5082,7.4977,7.4869,7.4541,7.4429,7.4429,7.4542,7.5048,7.5648,7.5334,7.4975,7.4604,7.4376,7.4223,7.403,7.3552,7.3189,7.2936,7.2686,7.2517,7.2432,7.2339,7.2081,7.1786,7.1654,7.1389,7.1075,7.0803,7.025,6.9684,6.9156,6.8369,6.7439,6.6501,6.5969,6.5538,6.4998,6.4888,6.4888,6.4888,6.4888,6.4888,6.4888,6.4888,6.4888,6.4888,6.4888,6.4888,6.4888,6.4888,6.4888,6.4888,6.4888,6.4888,6.4888,6.4888,6.4888,6.4888,6.4888,6.4888,6.4888,6.5351,6.5592,6.57,6.6161,6.6459,4.9579,0.0,5.0281,4.7351,4.6238,4.5153,4.2493,4.1178,4.0565,4.0813,4.0107,0.0,0.0,0.0,3.8722,3.8802,0.0,3.981,3.6765,3.9474,4.3731,4.9059,5.2821,5.6606,6.0626,6.1163,6.2282,6.4782,6.4855,6.6183,6.9442,7.0902,7.2038,7.3019,7.372,7.4083,7.4075,7.3925,7.3848,7.3848,7.381,7.362,7.3312,7.3273,7.3033,7.2696,7.2614,7.2526,7.2431,7.2257,7.2131,7.2088,7.16,7.2038,7.2957,7.3382,7.3327,7.2914,7.2873,7.2707,7.249,7.2228,7.1969,7.1786,7.1566,7.1433,7.13,7.13,7.1075,7.0724,7.054,7.0356,7.0123,6.9779,6.9301,6.8814,6.8451,6.7746,6.6974,6.6258,6.583,6.5429,6.4998,6.4888,6.4888,6.4888,6.4888,6.4888,6.4888,6.4888,6.4888,6.4888,6.4888,6.4888,6.4888,6.4888,6.4888,6.4888,6.4888,6.4888,6.4888,6.4888,6.4888,6.4888,6.4888,6.4888,6.4888,6.5351,6.5646,6.57,6.6108,6.6406,5.2267,5.2588,5.2072,4.6238,4.5641,4.5207,4.0485,4.1183,4.2324,4.0567,4.2025,4.3085,4.14,4.0697,3.9746,3.801,3.8521,0.0,0.0,3.4638,3.6622,3.9434,4.4603,4.8833,5.1199,4.7337,4.7902,5.5722,5.19,5.3213,6.2423,6.4287,6.5955,6.781,6.9236,7.0268,7.0778,7.0591,7.0456,7.0456,7.0253,7.0196,7.015,6.9954,6.9862,6.9816,6.9603,6.9542,6.9495,6.9291,6.9229,6.9229,6.9007,6.8797,6.8813,7.0782,7.1484,7.144,7.1243,7.1053,7.0872,7.0827,7.0724,7.0574,7.0574,7.0528,7.0528,7.0528,7.0156,6.9779,6.9732,6.9204,6.8699,6.8649,6.8251,6.7848,6.7848,6.7213,6.6533,6.6152,6.57,6.5242,6.4943,6.4888,6.4888,6.4888,6.4888,6.4888,6.4888,6.4888,6.4888,6.4888,6.4888,6.4888,6.4888,6.4888,6.4888,6.4888,6.4888,6.4888,6.4888,6.4888,6.4888,6.4888,6.4888,6.4888,6.4888,6.5187,6.546,6.57,6.6321,6.6617,5.3158,5.389,5.3646,4.8843,4.7649,4.6482,4.2086,4.2032,4.2385,4.0567,4.2086,4.3226,4.1435,4.0331,3.9086,3.7291,3.6543,3.5221,0.0,3.3028,3.4205,3.5115,3.9509,4.2877,4.3847,4.4885,4.6969,5.0497,5.1503,5.4014,5.8708,6.1975,6.4188,6.5326,6.7512,6.8756,6.8956,6.8893,6.8844,6.8844,6.878,6.8634,6.8487,6.8389,6.8273,6.8124,6.8024,6.8007,6.8007,6.7907,6.7939,6.7856,6.7668,6.7465,6.7567,6.891,6.9328,6.9184,6.9121,6.9105,6.9009,6.8814,6.8716,6.8618,6.8453,6.8371,6.8371,6.8371,6.8254,6.8054,6.7903,6.765,6.7427,6.7285,6.6974,6.668,6.668,6.6343,6.5915,6.5646,6.5429,6.5187,6.4943,6.4888,6.4888,6.4888,6.4888,6.4888,6.4888,6.4888,6.4888,6.4888,6.4888,6.4888,6.4888,6.4888,6.4888,6.4888,6.4888,6.4888,6.4888,6.4888,6.4888,6.4888,6.4888,6.4888,6.4888,6.5132,6.546,6.57,6.6139,6.6459,5.4351,5.4813,5.4514,5.0715,4.9467,4.8083,4.3904,4.3904,4.4149,4.1924,4.3036,4.4122,4.3199,4.1164,3.9156,3.7772,3.6035,3.4043,0.0,3.23,3.2789,3.2789,3.5911,3.813,3.8327,4.0337,4.2731,4.5317,4.7394,5.0327,5.4421,5.8051,6.0582,6.1946,6.4919,6.6488,6.6259,6.6742,6.693,6.693,6.693,6.6878,6.6701,6.6701,6.6596,6.6438,6.6438,6.6438,6.6438,6.6438,6.6438,6.6438,6.6258,6.6205,6.6332,6.7395,6.765,6.758,6.758,6.758,6.7529,6.7375,6.7324,6.7272,6.7066,6.7014,6.7014,6.7014,6.6962,6.6826,6.6649,6.6544,6.647,6.6289,6.613,6.5938,6.5938,6.5754,6.5483,6.5351,6.5187,6.5108,6.4943,6.4888,6.4888,6.4888,6.4888,6.4888,6.4888,6.4888,6.4888,6.4888,6.4888,6.4888,6.4888,6.4888,6.4888,6.4888,6.4888,6.4888,6.4888,6.4888,6.4888,6.4888,6.4888,6.4888,6.4888,6.5132,6.546,6.57,6.6032,6.6352]}]]